[[{"header":{"parameterUnit":"m.s-1","parameterCategory":1,"la1":31.0,"la2":29.5877,"lo1":-88.7671,"lo2":-86.6584,"dy":0.0162,"dx":0.0185,"nx":115,"ny":88,"refTime":"2023-05-20T12:00:00:Z","depth":0,"parameterNumber":2,"parameterNumberName":"U-component_of_WINDS"},"data":[0.0,0.0,0.0,0.0,0.0,0.0,0.0,0.0,0.0,0.0,0.0,0.0,0.0,0.0,0.0,0.0,0.0,0.0,0.0,0.0,0.0,0.0,0.0,0.0,0.0,0.0,0.0,0.0,0.0,0.0,0.0,0.0,0.0,0.0,0.0,0.0,0.0,0.0,0.0,0.0,0.0,0.0,0.0,0.0,0.0,0.0,0.0,0.0,0.0,0.0,0.0,0.0,0.0,0.0,0.0,0.0,0.0,0.0,0.0,0.0,0.0,0.0,0.0,0.0,0.0,0.0,0.0,0.0,0.0,0.0,0.0,0.0,0.0,0.0,0.0,0.0,0.0,0.0,0.0,0.0,0.0,0.0,0.0,0.0,0.0,0.0,0.0,0.0,0.0,0.0,0.0,0.0,0.0,0.0,0.0,0.0,0.0,0.0,0.0,0.0,0.0,0.0,0.0,0.0,0.0,0.0,0.0,0.0,0.0,0.0,0.0,0.0,0.0,0.0,0.0,0.0,0.0,0.0,0.0,0.0,0.0,0.0,0.0,0.0,0.0,0.0,0.0,0.0,0.0,0.0,0.0,0.0,0.0,0.0,0.0,0.0,0.0,0.0,0.0,0.0,0.0,0.0,0.0,0.0,0.0,0.0,0.0,0.0,0.0,0.0,0.0,0.0,0.0,0.0,0.0,0.0,0.0,0.0,0.0,0.0,0.0,0.0,0.0,0.0,0.0,0.0,0.0,0.0,0.0,0.0,0.0,0.0,0.0,0.0,0.0,0.0,0.0,0.0,0.0,0.0,0.0,0.0,0.0,0.0,0.0,0.0,0.0,0.0,0.0,0.0,0.0,0.0,0.0,0.0,0.0,0.0,0.0,0.0,0.0,0.0,0.0,0.0,0.0,0.0,0.0,0.0,0.0,0.0,0.0,0.0,0.0,0.0,0.0,0.0,0.0,0.0,0.0,0.0,0.0,0.0,0.0,0.0,0.0,0.0,0.0,0.0,0.0,0.0,0.0,0.0,0.0,0.0,0.0,0.0,0.0,0.0,0.0,0.0,0.0,0.0,0.0,0.0,0.0,0.0,0.0,0.0,0.0,0.0,0.0,0.0,0.0,0.0,0.0,0.0,0.0,0.0,0.0,0.0,0.0,0.0,0.0,0.0,0.0,0.0,0.0,0.0,0.0,0.0,0.0,0.0,0.0,0.0,0.0,0.0,0.0,0.0,0.0,0.0,0.0,0.0,0.0,0.0,0.0,0.0,0.0,0.0,0.0,0.0,0.0,0.0,0.0,0.0,0.0,0.0,0.0,0.0,0.0,0.0,0.0,0.0,0.0,0.0,0.0,0.0,0.0,0.0,0.0,0.0,0.0,0.0,0.0,0.0,0.0,0.0,0.0,0.0,0.0,0.0,0.0,0.0,0.0,0.0,0.0,0.0,0.0,0.0,0.0,0.0,0.0,0.0,0.0,0.0,0.0,0.0,0.0,0.0,0.0,0.0,0.0,0.0,0.0,0.0,0.0,0.0,0.0,0.0,0.0,0.0,0.0,0.0,0.0,0.0,0.0,0.0,0.0,0.0,0.0,0.0,0.0,0.0,0.0,0.0,0.0,0.0,0.0,0.0,0.0,0.0,0.0,0.0,0.0,0.0,0.0,0.0,0.0,0.0,0.0,0.0,0.0,0.0,0.0,0.0,0.0,0.0,0.0,0.0,0.0,0.0,0.0,0.0,0.0,0.0,0.0,0.0,0.0,0.0,0.0,0.0,0.0,0.0,0.0,0.0,0.0,0.0,0.0,0.0,0.0,0.0,0.0,0.0,0.0,0.0,0.0,0.0,0.0,0.0,0.0,0.0,0.0,0.0,0.0,0.0,0.0,0.0,0.0,0.0,0.0,0.0,0.0,0.0,0.0,0.0,0.0,0.0,0.0,0.0,0.0,0.0,0.0,0.0,0.0,0.0,0.0,0.0,0.0,0.0,0.0,0.0,0.0,0.0,0.0,0.0,0.0,0.0,0.0,0.0,0.0,0.0,0.0,0.0,0.0,0.0,0.0,0.0,0.0,0.0,0.0,0.0,0.0,0.0,0.0,0.0,0.0,0.0,0.0,0.0,0.0,0.0,0.0,0.0,0.0,0.0,0.0,0.0,0.0,0.0,0.0,0.0,0.0,0.0,0.0,0.0,0.0,0.0,0.0,0.0,0.0,0.0,0.0,0.0,0.0,0.0,0.0,0.0,0.0,0.0,0.0,0.0,0.0,0.0,0.0,0.0,0.0,0.0,0.0,0.0,0.0,0.0,0.0,0.0,0.0,0.0,0.0,0.0,0.0,0.0,0.0,0.0,0.0,0.0,0.0,0.0,0.0,0.0,0.0,0.0,0.0,0.0,0.0,0.0,0.0,0.0,0.0,0.0,0.0,0.0,0.0,0.0,0.0,0.0,0.0,0.0,0.0,0.0,0.0,0.0,0.0,0.0,0.0,0.0,0.0,0.0,0.0,0.0,0.0,0.0,0.0,0.0,0.0,0.0,0.0,0.0,0.0,0.0,0.0,0.0,0.0,0.0,0.0,0.0,0.0,0.0,0.0,0.0,0.0,0.0,0.0,0.0,0.0,0.0,0.0,0.0,0.0,0.0,0.0,0.0,0.0,0.0,0.0,0.0,0.0,0.0,0.0,0.0,0.0,0.0,0.0,0.0,0.0,0.0,0.0,0.0,0.0,0.0,0.0,0.0,0.0,0.0,0.0,0.0,0.0,0.0,0.0,0.0,0.0,0.0,0.0,0.0,0.0,0.0,0.0,0.0,0.0,0.0,0.0,0.0,0.0,0.0,0.0,0.0,0.0,0.0,0.0,0.0,0.0,0.0,0.0,0.0,0.0,0.0,0.0,0.0,0.0,0.0,0.0,0.0,0.0,0.0,0.0,0.0,0.0,0.0,0.0,0.0,0.0,0.0,0.0,0.0,0.0,0.0,0.0,0.0,0.0,0.0,0.0,0.0,0.0,0.0,0.0,0.0,0.0,0.0,0.0,0.0,0.0,0.0,0.0,0.0,0.0,0.0,0.0,0.0,0.0,0.0,0.0,0.0,0.0,0.0,0.0,0.0,0.0,0.0,0.0,0.0,0.0,0.0,0.0,0.0,0.0,0.0,0.0,0.0,0.0,0.0,0.0,0.0,0.0,0.0,0.0,0.0,0.0,0.0,0.0,0.0,0.0,0.0,0.0,0.0,0.0,0.0,0.0,0.0,0.0,0.0,0.0,0.0,0.0,0.0,0.0,0.0,0.0,0.0,0.0,0.0,0.0,0.0,0.0,0.0,0.0,0.0,0.0,0.0,0.0,0.0,0.0,0.0,0.0,0.0,0.0,0.0,0.0,0.0,0.0,0.0,0.0,0.0,0.0,0.0,0.0,0.0,0.0,0.0,0.0,0.0,0.0,0.0,0.0,0.0,0.0,0.0,0.0,0.0,0.0,0.0,0.0,0.0,0.0,0.0,0.0,0.0,0.0,0.0,0.0,0.0,0.0,0.0,0.0,0.0,0.0,0.0,0.0,0.0,0.0,0.0,0.0,0.0,0.0,0.0,0.0,0.0,0.0,0.0,0.0,0.0,0.0,0.0,0.0,0.0,0.0,0.0,0.0,0.0,0.0,0.0,0.0,0.0,0.0,0.0,0.0,0.0,0.0,0.0,0.0,0.0,0.0,0.0,0.0,0.0,0.0,0.0,0.0,0.0,0.0,0.0,0.0,0.0,0.0,0.0,0.0,0.0,0.0,0.0,0.0,0.0,0.0,0.0,0.0,0.0,0.0,0.0,0.0,0.0,0.0,0.0,0.0,0.0,0.0,0.0,0.0,0.0,0.0,0.0,0.0,0.0,0.0,0.0,0.0,0.0,0.0,0.0,0.0,0.0,0.0,0.0,0.0,0.0,0.0,0.0,0.0,0.0,0.0,0.0,0.0,0.0,0.0,0.0,0.0,0.0,0.0,0.0,0.0,0.0,0.0,0.0,0.0,0.0,0.0,0.0,0.0,0.0,0.0,0.0,0.0,0.0,0.0,0.0,0.0,0.0,0.0,0.0,0.0,0.0,0.0,0.0,0.0,0.0,0.0,0.0,0.0,0.0,0.0,0.0,0.0,0.0,0.0,0.0,0.0,0.0,0.0,0.0,0.0,0.0,0.0,0.0,0.0,0.0,0.0,0.0,0.0,0.0,0.0,0.0,0.0,0.0,0.0,0.0,0.0,0.0,0.0,0.0,0.0,0.0,0.0,0.0,0.0,0.0,1.9962,0.0,0.0,0.0,0.0,0.0,0.0,0.0,0.0,0.0,0.0,0.0,0.0,0.0,0.0,0.0,0.0,0.0,0.0,0.0,0.0,0.0,0.0,0.0,0.0,0.0,0.0,0.0,0.0,0.0,0.0,0.0,0.0,0.0,0.0,0.0,0.0,0.0,0.0,0.0,0.0,0.0,0.0,0.0,0.0,0.0,0.0,0.0,0.0,0.0,0.0,0.0,0.0,0.0,0.0,0.0,0.0,0.0,0.0,0.0,0.0,0.0,0.0,0.0,0.0,0.0,0.0,0.0,0.0,0.0,0.0,0.0,0.0,0.0,0.0,0.0,0.0,0.0,0.0,0.0,0.0,0.0,0.0,0.0,0.0,0.0,0.0,0.0,0.0,0.0,0.0,0.0,0.0,0.0,0.0,0.0,0.0,0.0,0.0,0.0,0.0,0.0,0.0,0.0,0.0,0.0,0.0,0.0,0.0,0.0,0.0,2.1068,2.1157,2.0894,2.0538,2.0102,0.0,0.0,0.0,0.0,0.0,0.0,0.0,0.0,0.0,0.0,0.0,0.0,0.0,0.0,0.0,0.0,0.0,0.0,0.0,0.0,0.0,0.0,0.0,0.0,0.0,0.0,0.0,0.0,0.0,0.0,0.0,0.0,0.0,0.0,0.0,0.0,0.0,0.0,0.0,0.0,0.0,0.0,0.0,0.0,0.0,0.0,0.0,0.0,0.0,0.0,0.0,0.0,0.0,0.0,0.0,0.0,0.0,0.0,0.0,0.0,0.0,0.0,0.0,0.0,0.0,0.0,0.0,0.0,0.0,0.0,0.0,0.0,0.0,0.0,0.0,0.0,0.0,0.0,0.0,0.0,0.0,0.0,0.0,0.0,0.0,0.0,0.0,0.0,0.0,0.0,0.0,0.0,0.0,0.0,0.0,0.0,0.0,0.0,0.0,0.0,0.0,0.0,0.0,0.0,0.0,0.0,0.0,0.0,0.0,0.0,0.0,0.0,2.1552,2.1043,2.014,0.0,0.0,0.0,0.0,0.0,0.0,0.0,0.0,0.0,0.0,0.0,0.0,0.0,0.0,0.0,0.0,0.0,0.0,0.0,0.0,0.0,0.0,0.0,0.0,0.0,0.0,0.0,0.0,0.0,0.0,0.0,0.0,0.0,0.0,0.0,0.0,0.0,0.0,0.0,0.0,0.0,0.0,0.0,0.0,0.0,0.0,0.0,0.0,0.0,0.0,0.0,0.0,0.0,0.0,0.0,0.0,0.0,0.0,0.0,0.0,0.0,0.0,0.0,0.0,0.0,0.0,0.0,0.0,0.0,0.0,0.0,0.0,0.0,0.0,0.0,0.0,0.0,0.0,0.0,0.0,0.0,0.0,0.0,0.0,0.0,0.0,0.0,0.0,0.0,0.0,0.0,0.0,0.0,0.0,0.0,0.0,0.0,0.0,0.0,0.0,0.0,0.0,0.0,0.0,0.0,0.0,0.0,0.0,0.0,0.0,2.2437,2.2811,2.2262,0.0,2.0178,0.0,0.0,0.0,0.0,0.0,0.0,0.0,0.0,0.0,0.0,0.0,0.0,0.0,0.0,0.0,0.0,0.0,0.0,0.0,0.0,0.0,0.0,0.0,0.0,0.0,0.0,0.0,0.0,0.0,0.0,0.0,0.0,0.0,0.0,0.0,0.0,0.0,0.0,0.0,0.0,0.0,0.0,0.0,0.0,0.0,0.0,0.0,0.0,0.0,0.0,0.0,0.0,0.0,0.0,0.0,0.0,0.0,0.0,0.0,0.0,0.0,0.0,0.0,0.0,0.0,0.0,0.0,0.0,0.0,0.0,0.0,0.0,0.0,0.0,0.0,0.0,0.0,0.0,0.0,0.0,0.0,0.0,0.0,0.0,0.0,0.0,0.0,0.0,0.0,0.0,0.0,0.0,0.0,0.0,0.0,0.0,0.0,0.0,0.0,0.0,0.0,0.0,0.0,0.0,0.0,0.0,0.0,0.0,0.0,0.0,2.2815,2.302,2.2338,2.1589,0.0,0.0,0.0,0.0,0.0,0.0,0.0,0.0,0.0,0.0,0.0,0.0,0.0,0.0,0.0,0.0,0.0,0.0,0.0,0.0,0.0,0.0,0.0,0.0,0.0,0.0,0.0,0.0,0.0,0.0,0.0,0.0,0.0,0.0,0.0,0.0,0.0,0.0,0.0,0.0,0.0,0.0,0.0,0.0,0.0,0.0,0.0,0.0,0.0,0.0,0.0,0.0,0.0,0.0,0.0,0.0,0.0,0.0,0.0,0.0,0.0,0.0,0.0,0.0,0.0,0.0,0.0,0.0,0.0,0.0,0.0,0.0,0.0,0.0,0.0,0.0,0.0,0.0,0.0,0.0,0.0,0.0,0.0,0.0,0.0,0.0,0.0,0.0,0.0,0.0,0.0,0.0,0.0,0.0,0.0,0.0,0.0,0.0,0.0,0.0,0.0,0.0,0.0,0.0,0.0,0.0,0.0,0.0,0.0,0.0,2.2826,2.302,2.2979,2.2415,2.1747,2.1034,0.0,0.0,0.0,0.0,0.0,0.0,0.0,0.0,0.0,0.0,0.0,0.0,0.0,0.0,0.0,0.0,0.0,0.0,0.0,0.0,0.0,0.0,0.0,0.0,0.0,0.0,0.0,0.0,0.0,0.0,0.0,0.0,0.0,0.0,0.0,0.0,0.0,0.0,0.0,0.0,0.0,0.0,0.0,0.0,0.0,0.0,0.0,0.0,0.0,0.0,0.0,0.0,0.0,0.0,0.0,0.0,0.0,0.0,0.0,0.0,0.0,0.0,0.0,0.0,0.0,0.0,0.0,0.0,0.0,0.0,0.0,0.0,0.0,0.0,0.0,0.0,0.0,0.0,0.0,0.0,0.0,0.0,0.0,0.0,0.0,0.0,0.0,0.0,0.0,0.0,0.0,0.0,0.0,0.0,0.0,0.0,0.0,0.0,0.0,0.0,0.0,0.0,0.0,0.0,0.0,0.0,0.0,0.0,2.2925,2.299,2.302,2.299,2.2535,2.1894,0.0,0.0,0.0,0.0,0.0,0.0,0.0,0.0,0.0,0.0,0.0,0.0,0.0,0.0,0.0,0.0,0.0,0.0,0.0,0.0,0.0,0.0,0.0,0.0,0.0,0.0,0.0,0.0,0.0,0.0,0.0,0.0,0.0,0.0,0.0,0.0,0.0,0.0,0.0,0.0,0.0,0.0,0.0,0.0,0.0,0.0,0.0,0.0,0.0,0.0,0.0,0.0,0.0,0.0,0.0,0.0,0.0,0.0,0.0,0.0,0.0,0.0,0.0,0.0,0.0,0.0,0.0,0.0,0.0,0.0,0.0,0.0,0.0,0.0,0.0,0.0,0.0,0.0,0.0,0.0,0.0,0.0,0.0,0.0,0.0,0.0,0.0,0.0,0.0,0.0,0.0,0.0,0.0,0.0,0.0,0.0,0.0,0.0,0.0,0.0,0.0,0.0,0.0,0.0,0.0,0.0,0.0,0.0,0.0,2.2917,2.302,2.302,2.299,2.2837,2.2205,0.0,0.0,0.0,0.0,0.0,0.0,0.0,0.0,0.0,0.0,0.0,0.0,0.0,0.0,0.0,0.0,0.0,0.0,0.0,0.0,0.0,0.0,0.0,0.0,0.0,0.0,0.0,0.0,0.0,0.0,0.0,0.0,0.0,0.0,0.0,0.0,0.0,0.0,0.0,0.0,0.0,0.0,0.0,0.0,0.0,0.0,0.0,0.0,0.0,0.0,0.0,0.0,0.0,0.0,0.0,0.0,0.0,0.0,0.0,0.0,0.0,0.0,0.0,0.0,0.0,0.0,0.0,0.0,0.0,0.0,0.0,0.0,0.0,0.0,0.0,0.0,0.0,0.0,0.0,0.0,0.0,0.0,0.0,0.0,0.0,0.0,0.0,0.0,0.0,0.0,0.0,0.0,0.0,0.0,0.0,0.0,0.0,0.0,0.0,0.0,0.0,0.0,0.0,0.0,0.0,0.0,0.0,0.0,0.0,2.295,0.0,2.3154,0.0,2.3165,2.2587,0.0,0.0,0.0,0.0,0.0,0.0,0.0,0.0,0.0,0.0,0.0,0.0,0.0,0.0,0.0,0.0,0.0,0.0,0.0,0.0,0.0,0.0,0.0,0.0,0.0,0.0,0.0,0.0,0.0,0.0,0.0,0.0,0.0,0.0,0.0,0.0,0.0,0.0,0.0,0.0,0.0,0.0,0.0,0.0,0.0,0.0,0.0,0.0,0.0,0.0,0.0,0.0,0.0,0.0,0.0,0.0,0.0,0.0,0.0,0.0,0.0,0.0,0.0,0.0,0.0,0.0,0.0,0.0,0.0,0.0,0.0,0.0,0.0,0.0,0.0,0.0,0.0,0.0,0.0,0.0,0.0,0.0,0.0,0.0,0.0,0.0,0.0,0.0,0.0,0.0,0.0,0.0,0.0,0.0,0.0,0.0,0.0,0.0,0.0,0.0,0.0,0.0,0.0,0.0,0.0,0.0,0.0,0.0,2.1664,2.2972,2.3452,2.3444,2.3034,2.3452,2.3064,0.0,0.0,0.0,0.0,0.0,0.0,0.0,0.0,0.0,0.0,0.0,0.0,0.0,0.0,0.0,0.0,0.0,0.0,0.0,0.0,0.0,0.0,0.0,0.0,0.0,0.0,0.0,0.0,0.0,0.0,0.0,0.0,0.0,0.0,0.0,0.0,0.0,0.0,0.0,0.0,0.0,0.0,0.0,0.0,0.0,0.0,0.0,0.0,0.0,0.0,0.0,0.0,0.0,0.0,0.0,0.0,0.0,0.0,0.0,0.0,0.0,0.0,0.0,0.0,0.0,0.0,0.0,0.0,0.0,0.0,0.0,0.0,0.0,0.0,0.0,0.0,0.0,0.0,0.0,0.0,0.0,0.0,0.0,0.0,0.0,0.0,0.0,0.0,0.0,0.0,0.0,0.0,0.0,0.0,0.0,0.0,0.0,0.0,0.0,0.0,0.0,0.0,0.0,0.0,0.0,0.0,0.0,0.0,0.0,2.3463,2.3637,2.3637,2.3495,2.3637,2.3086,0.0,0.0,0.0,0.0,0.0,0.0,0.0,0.0,0.0,0.0,0.0,0.0,0.0,0.0,0.0,0.0,0.0,0.0,0.0,0.0,0.0,0.0,0.0,0.0,0.0,0.0,0.0,0.0,0.0,0.0,0.0,0.0,0.0,0.0,0.0,0.0,0.0,0.0,0.0,0.0,0.0,0.0,0.0,0.0,0.0,0.0,0.0,0.0,0.0,0.0,0.0,0.0,0.0,0.0,0.0,0.0,0.0,0.0,0.0,0.0,0.0,0.0,0.0,0.0,0.0,0.0,0.0,0.0,0.0,0.0,0.0,0.0,0.0,0.0,0.0,0.0,0.0,0.0,0.0,0.0,0.0,0.0,0.0,0.0,0.0,0.0,0.0,0.0,0.0,0.0,0.0,0.0,0.0,0.0,0.0,0.0,0.0,0.0,0.0,0.0,0.0,0.0,0.0,0.0,0.0,0.0,0.0,0.0,0.0,2.3701,2.3909,2.3899,2.3714,2.3819,2.3288,2.2025,0.0,0.0,0.0,0.0,0.0,0.0,0.0,0.0,0.0,0.0,0.0,0.0,0.0,0.0,0.0,0.0,0.0,0.0,0.0,0.0,0.0,0.0,0.0,0.0,0.0,0.0,0.0,0.0,0.0,0.0,0.0,0.0,0.0,0.0,0.0,0.0,0.0,0.0,0.0,0.0,0.0,0.0,0.0,0.0,0.0,0.0,0.0,0.0,0.0,0.0,0.0,0.0,0.0,0.0,0.0,0.0,0.0,0.0,0.0,0.0,0.0,0.0,0.0,0.0,0.0,0.0,0.0,0.0,0.0,0.0,0.0,0.0,0.0,0.0,0.0,0.0,0.0,0.0,0.0,0.0,0.0,0.0,0.0,0.0,0.0,0.0,0.0,0.0,0.0,0.0,0.0,0.0,0.0,0.0,0.0,0.0,0.0,0.0,0.0,0.0,0.0,0.0,0.0,0.0,0.0,0.0,0.0,0.0,2.3797,2.4259,2.4261,2.3776,2.4028,2.3616,0.0,0.0,0.0,0.0,0.0,0.0,0.0,0.0,0.0,0.0,0.0,0.0,0.0,0.0,0.0,0.0,0.0,0.0,0.0,0.0,0.0,0.0,0.0,0.0,0.0,0.0,0.0,0.0,0.0,0.0,0.0,0.0,0.0,0.0,0.0,0.0,0.0,0.0,0.0,0.0,0.0,0.0,0.0,0.0,0.0,0.0,0.0,0.0,0.0,0.0,0.0,0.0,0.0,0.0,0.0,0.0,0.0,0.0,0.0,0.0,0.0,0.0,0.0,0.0,0.0,0.0,0.0,0.0,0.0,0.0,0.0,0.0,0.0,0.0,0.0,0.0,0.0,0.0,0.0,0.0,0.0,0.0,0.0,0.0,0.0,0.0,0.0,0.0,0.0,0.0,0.0,0.0,0.0,0.0,0.0,0.0,0.0,0.0,0.0,0.0,0.0,0.0,0.0,0.0,0.0,0.0,0.0,0.0,0.0,2.3777,2.426,2.4439,2.4279,2.4035,2.351,0.0,0.0,0.0,0.0,0.0,0.0,0.0,0.0,0.0,0.0,0.0,0.0,0.0,0.0,0.0,0.0,0.0,0.0,0.0,0.0,0.0,0.0,0.0,0.0,0.0,0.0,0.0,0.0,0.0,0.0,0.0,0.0,0.0,0.0,0.0,0.0,0.0,0.0,0.0,0.0,0.0,0.0,0.0,0.0,0.0,0.0,0.0,0.0,0.0,0.0,0.0,0.0,0.0,0.0,0.0,0.0,0.0,0.0,0.0,0.0,0.0,0.0,0.0,0.0,0.0,0.0,0.0,0.0,0.0,0.0,0.0,0.0,0.0,0.0,0.0,0.0,0.0,0.0,0.0,0.0,0.0,0.0,0.0,0.0,0.0,0.0,0.0,0.0,0.0,0.0,0.0,0.0,0.0,0.0,0.0,0.0,0.0,0.0,0.0,0.0,0.0,0.0,0.0,0.0,0.0,0.0,0.0,0.0,2.3259,2.3831,2.4273,2.4504,2.4504,2.3965,2.3395,0.0,0.0,0.0,0.0,0.0,0.0,0.0,0.0,0.0,0.0,0.0,0.0,0.0,0.0,0.0,0.0,0.0,0.0,0.0,0.0,0.0,0.0,0.0,0.0,0.0,0.0,0.0,0.0,0.0,0.0,0.0,0.0,0.0,0.0,0.0,0.0,0.0,0.0,0.0,0.0,0.0,0.0,0.0,0.0,0.0,0.0,0.0,0.0,0.0,0.0,0.0,0.0,0.0,0.0,0.0,0.0,0.0,0.0,0.0,0.0,0.0,0.0,0.0,0.0,0.0,0.0,0.0,0.0,0.0,0.0,0.0,0.0,0.0,0.0,0.0,0.0,0.0,0.0,0.0,0.0,0.0,0.0,0.0,0.0,0.0,0.0,0.0,0.0,0.0,0.0,0.0,0.0,0.0,0.0,0.0,0.0,0.0,0.0,0.0,0.0,0.0,0.0,0.0,0.0,0.0,0.0,0.0,0.0,2.3453,2.3939,2.4363,2.4569,2.457,2.3908,2.332,0.0,0.0,0.0,0.0,0.0,0.0,0.0,0.0,0.0,0.0,0.0,0.0,0.0,0.0,0.0,0.0,0.0,0.0,0.0,0.0,0.0,0.0,0.0,0.0,0.0,0.0,0.0,0.0,0.0,0.0,0.0,0.0,0.0,0.0,0.0,0.0,0.0,0.0,0.0,0.0,0.0,0.0,0.0,0.0,0.0,0.0,0.0,0.0,0.0,0.0,0.0,0.0,0.0,0.0,0.0,0.0,0.0,0.0,0.0,0.0,0.0,0.0,0.0,0.0,0.0,0.0,0.0,0.0,0.0,0.0,0.0,0.0,0.0,0.0,0.0,0.0,0.0,0.0,0.0,0.0,0.0,0.0,0.0,0.0,0.0,0.0,0.0,0.0,0.0,0.0,0.0,0.0,0.0,0.0,0.0,0.0,0.0,0.0,0.0,0.0,0.0,0.0,0.0,0.0,0.0,0.0,0.0,0.0,2.3588,2.4363,2.4818,2.5066,2.5034,2.4251,2.3597,0.0,0.0,0.0,0.0,0.0,0.0,0.0,0.0,0.0,0.0,0.0,0.0,0.0,0.0,0.0,0.0,0.0,0.0,0.0,0.0,0.0,0.0,0.0,0.0,0.0,0.0,0.0,0.0,0.0,0.0,0.0,0.0,0.0,0.0,0.0,0.0,0.0,0.0,0.0,0.0,0.0,0.0,0.0,0.0,0.0,0.0,0.0,0.0,2.6352,0.0,0.0,0.0,0.0,0.0,0.0,0.0,0.0,0.0,0.0,0.0,0.0,0.0,0.0,0.0,0.0,0.0,0.0,0.0,0.0,0.0,0.0,0.0,0.0,0.0,0.0,0.0,0.0,0.0,0.0,0.0,0.0,0.0,0.0,0.0,0.0,0.0,0.0,0.0,0.0,0.0,0.0,0.0,0.0,0.0,0.0,0.0,0.0,0.0,0.0,0.0,0.0,0.0,0.0,0.0,0.0,0.0,0.0,0.0,2.3732,2.4808,2.5065,2.5211,2.519,2.4735,2.4095,0.0,0.0,0.0,0.0,0.0,0.0,0.0,0.0,0.0,0.0,0.0,0.0,0.0,0.0,0.0,0.0,0.0,0.0,0.0,0.0,0.0,0.0,0.0,0.0,0.0,0.0,0.0,0.0,0.0,0.0,0.0,0.0,0.0,0.0,0.0,0.0,0.0,0.0,0.0,0.0,0.0,0.0,0.0,0.0,0.0,0.0,0.0,0.0,0.0,0.0,0.0,0.0,0.0,0.0,0.0,0.0,0.0,0.0,0.0,0.0,0.0,0.0,0.0,0.0,0.0,0.0,0.0,0.0,0.0,0.0,0.0,0.0,0.0,0.0,0.0,0.0,0.0,0.0,0.0,0.0,0.0,0.0,0.0,0.0,0.0,0.0,0.0,0.0,0.0,0.0,0.0,0.0,0.0,0.0,0.0,0.0,0.0,0.0,0.0,0.0,0.0,0.0,0.0,0.0,0.0,0.0,0.0,2.3318,2.4022,2.5242,2.5377,2.5408,2.5418,2.5346,2.4685,2.336,0.0,0.0,0.0,0.0,0.0,0.0,0.0,0.0,0.0,0.0,0.0,0.0,0.0,0.0,0.0,0.0,0.0,0.0,0.0,0.0,0.0,0.0,0.0,0.0,0.0,0.0,0.0,0.0,0.0,0.0,0.0,0.0,0.0,0.0,0.0,0.0,0.0,0.0,2.6501,2.7668,0.0,0.0,0.0,0.0,0.0,0.0,0.0,0.0,2.685,0.0,0.0,0.0,0.0,0.0,0.0,0.0,0.0,0.0,0.0,0.0,0.0,0.0,0.0,0.0,0.0,0.0,0.0,0.0,0.0,0.0,0.0,0.0,0.0,0.0,0.0,0.0,0.0,0.0,0.0,0.0,0.0,0.0,0.0,0.0,0.0,0.0,0.0,0.0,0.0,0.0,0.0,0.0,0.0,0.0,0.0,0.0,0.0,0.0,0.0,0.0,0.0,0.0,0.0,0.0,0.0,2.3174,2.3908,2.4767,2.5751,2.6177,2.6384,2.6364,2.5991,2.5162,2.3857,0.0,0.0,0.0,0.0,0.0,0.0,0.0,0.0,0.0,0.0,0.0,0.0,0.0,0.0,0.0,0.0,0.0,0.0,0.0,0.0,0.0,0.0,0.0,0.0,0.0,0.0,0.0,0.0,0.0,0.0,0.0,0.0,0.0,0.0,0.0,0.0,0.0,0.0,0.0,2.8289,2.8819,0.0,0.0,0.0,0.0,0.0,0.0,0.0,0.0,2.6569,0.0,0.0,0.0,0.0,0.0,0.0,0.0,0.0,0.0,0.0,0.0,0.0,0.0,0.0,0.0,0.0,0.0,0.0,0.0,0.0,0.0,0.0,0.0,0.0,0.0,0.0,0.0,0.0,0.0,0.0,0.0,0.0,0.0,0.0,0.0,0.0,0.0,0.0,0.0,0.0,0.0,0.0,0.0,0.0,0.0,0.0,0.0,0.0,0.0,0.0,0.0,0.0,0.0,0.0,0.0,2.3194,2.4063,2.4953,2.5877,2.6353,2.6602,2.6592,2.6136,2.5357,0.0,0.0,0.0,0.0,0.0,0.0,0.0,0.0,0.0,0.0,0.0,0.0,0.0,0.0,0.0,0.0,0.0,0.0,0.0,0.0,0.0,0.0,0.0,0.0,0.0,0.0,0.0,0.0,0.0,0.0,0.0,0.0,0.0,0.0,0.0,0.0,0.0,0.0,0.0,0.0,2.8669,2.9309,2.8798,0.0,0.0,0.0,0.0,0.0,0.0,2.6789,2.6561,0.0,0.0,0.0,0.0,0.0,0.0,0.0,0.0,0.0,0.0,0.0,0.0,0.0,0.0,0.0,0.0,0.0,0.0,0.0,0.0,0.0,0.0,0.0,0.0,0.0,0.0,0.0,0.0,0.0,0.0,0.0,0.0,0.0,0.0,0.0,0.0,0.0,0.0,0.0,0.0,0.0,0.0,0.0,0.0,0.0,0.0,0.0,0.0,0.0,0.0,0.0,0.0,0.0,0.0,0.0,2.3349,2.428,2.5202,2.6011,2.6511,2.6737,2.6726,2.6198,2.5502,0.0,0.0,0.0,0.0,0.0,0.0,0.0,0.0,0.0,0.0,0.0,0.0,0.0,0.0,0.0,0.0,0.0,0.0,0.0,0.0,0.0,0.0,0.0,0.0,0.0,0.0,0.0,0.0,0.0,0.0,0.0,0.0,0.0,0.0,0.0,0.0,0.0,0.0,0.0,0.0,0.0,2.9687,2.9008,2.9059,0.0,0.0,0.0,0.0,2.7166,2.6968,0.0,0.0,0.0,0.0,0.0,0.0,0.0,0.0,0.0,0.0,0.0,0.0,0.0,0.0,0.0,0.0,0.0,0.0,0.0,0.0,0.0,0.0,0.0,0.0,0.0,0.0,0.0,0.0,0.0,0.0,0.0,0.0,0.0,0.0,0.0,0.0,0.0,0.0,0.0,0.0,0.0,0.0,0.0,0.0,0.0,0.0,0.0,0.0,0.0,0.0,0.0,0.0,0.0,0.0,0.0,0.0,2.3826,2.5089,2.5991,2.6498,2.6964,2.7226,2.7192,2.6364,2.5647,0.0,0.0,0.0,0.0,0.0,0.0,0.0,0.0,0.0,0.0,0.0,0.0,0.0,0.0,0.0,0.0,0.0,0.0,0.0,0.0,0.0,0.0,0.0,0.0,0.0,0.0,0.0,0.0,0.0,0.0,0.0,0.0,0.0,0.0,0.0,0.0,0.0,0.0,0.0,0.0,0.0,2.9735,2.9014,2.9366,2.9442,0.0,0.0,0.0,2.7927,2.7709,0.0,0.0,0.0,0.0,0.0,0.0,0.0,0.0,0.0,0.0,0.0,0.0,0.0,0.0,0.0,0.0,0.0,0.0,0.0,0.0,0.0,0.0,0.0,0.0,0.0,0.0,0.0,0.0,0.0,0.0,0.0,0.0,0.0,0.0,0.0,0.0,0.0,0.0,0.0,0.0,0.0,0.0,0.0,0.0,0.0,0.0,0.0,0.0,0.0,0.0,0.0,0.0,0.0,0.0,0.0,2.3215,2.3919,2.5224,2.6125,2.6604,2.7071,2.732,2.7309,2.6643,2.6084,0.0,0.0,0.0,0.0,0.0,0.0,0.0,0.0,0.0,0.0,0.0,0.0,0.0,0.0,0.0,0.0,0.0,0.0,0.0,0.0,0.0,0.0,0.0,0.0,0.0,0.0,0.0,0.0,0.0,0.0,0.0,0.0,0.0,0.0,0.0,0.0,0.0,0.0,0.0,0.0,0.0,0.0,2.9266,2.9446,0.0,0.0,0.0,2.8106,2.7854,0.0,0.0,0.0,0.0,0.0,0.0,0.0,0.0,0.0,0.0,0.0,0.0,0.0,0.0,0.0,0.0,0.0,0.0,0.0,0.0,0.0,0.0,0.0,0.0,0.0,0.0,0.0,0.0,0.0,0.0,0.0,0.0,0.0,0.0,0.0,0.0,0.0,0.0,0.0,0.0,0.0,0.0,0.0,0.0,0.0,0.0,0.0,0.0,0.0,0.0,0.0,0.0,0.0,0.0,0.0,0.0,0.0,2.4219,2.5338,2.6239,2.6913,2.7275,2.7462,2.7451,2.7006,0.0,0.0,0.0,0.0,0.0,0.0,0.0,0.0,0.0,0.0,0.0,0.0,0.0,0.0,0.0,0.0,0.0,0.0,0.0,0.0,0.0,0.0,0.0,0.0,0.0,0.0,0.0,2.5834,0.0,0.0,0.0,0.0,0.0,0.0,0.0,0.0,0.0,0.0,0.0,0.0,0.0,0.0,2.9642,2.9517,2.9589,2.9545,0.0,0.0,2.8432,2.8097,2.7996,2.7676,0.0,0.0,0.0,0.0,0.0,0.0,0.0,0.0,0.0,0.0,0.0,0.0,0.0,0.0,0.0,0.0,0.0,0.0,0.0,0.0,0.0,0.0,0.0,0.0,0.0,0.0,0.0,0.0,0.0,0.0,0.0,0.0,0.0,0.0,0.0,0.0,0.0,0.0,0.0,0.0,0.0,0.0,0.0,0.0,0.0,0.0,0.0,0.0,0.0,0.0,0.0,0.0,0.0,0.0,0.0,2.5087,2.5627,2.6506,2.7755,2.7838,2.7848,2.7848,2.7472,2.6843,0.0,0.0,0.0,0.0,0.0,0.0,0.0,0.0,0.0,0.0,0.0,0.0,0.0,0.0,0.0,0.0,0.0,0.0,0.0,0.0,0.0,0.0,0.0,0.0,0.0,0.0,0.0,0.0,0.0,0.0,0.0,0.0,0.0,0.0,0.0,0.0,0.0,0.0,0.0,0.0,0.0,2.9025,2.967,2.9983,3.0221,0.0,0.0,2.9823,2.9102,2.8777,2.8335,2.7404,0.0,0.0,0.0,0.0,0.0,0.0,0.0,0.0,0.0,0.0,0.0,0.0,0.0,0.0,0.0,0.0,0.0,0.0,0.0,0.0,0.0,0.0,0.0,0.0,0.0,0.0,0.0,0.0,0.0,0.0,0.0,0.0,0.0,0.0,0.0,0.0,0.0,0.0,0.0,0.0,0.0,0.0,0.0,0.0,0.0,0.0,0.0,0.0,0.0,0.0,0.0,0.0,0.0,2.3857,2.5179,2.5937,2.6861,2.7858,2.8179,2.8179,2.791,2.7759,2.7241,0.0,0.0,0.0,0.0,0.0,0.0,0.0,0.0,0.0,0.0,0.0,0.0,0.0,0.0,0.0,0.0,0.0,0.0,0.0,0.0,0.0,0.0,0.0,0.0,0.0,0.0,0.0,0.0,2.7299,2.7341,2.6527,0.0,0.0,0.0,0.0,0.0,0.0,0.0,0.0,0.0,0.0,2.9545,2.9997,3.0153,0.0,0.0,2.9782,2.9498,2.8941,2.8772,2.8391,2.7453,2.7156,0.0,0.0,0.0,0.0,0.0,0.0,0.0,0.0,0.0,0.0,0.0,0.0,0.0,0.0,0.0,0.0,0.0,0.0,0.0,0.0,0.0,0.0,0.0,0.0,0.0,0.0,0.0,0.0,0.0,0.0,0.0,0.0,0.0,0.0,0.0,0.0,0.0,0.0,0.0,0.0,0.0,0.0,0.0,0.0,0.0,0.0,0.0,0.0,0.0,0.0,0.0,0.0,2.4064,2.5397,2.6333,2.7244,2.8096,2.8576,2.8669,2.8324,2.8179,2.7707,0.0,0.0,0.0,0.0,0.0,0.0,0.0,0.0,0.0,0.0,0.0,0.0,0.0,0.0,0.0,0.0,0.0,0.0,0.0,0.0,0.0,0.0,0.0,0.0,0.0,0.0,0.0,0.0,2.7192,2.6999,2.614,0.0,0.0,0.0,0.0,0.0,0.0,0.0,0.0,0.0,0.0,2.9821,3.0114,3.0171,3.0047,2.9675,2.9551,2.9278,2.8699,2.8531,2.8205,2.7401,0.0,0.0,0.0,0.0,0.0,0.0,0.0,0.0,0.0,0.0,0.0,0.0,0.0,0.0,0.0,0.0,0.0,0.0,0.0,0.0,0.0,0.0,0.0,0.0,0.0,0.0,0.0,0.0,0.0,0.0,0.0,0.0,0.0,0.0,0.0,0.0,0.0,0.0,0.0,0.0,0.0,0.0,0.0,0.0,0.0,0.0,0.0,0.0,0.0,0.0,0.0,0.0,0.0,0.0,2.5866,2.6788,2.771,2.8541,2.9052,2.928,2.9239,2.881,2.8173,2.7286,0.0,0.0,0.0,0.0,0.0,0.0,0.0,0.0,0.0,0.0,0.0,0.0,0.0,0.0,0.0,0.0,0.0,0.0,0.0,0.0,0.0,0.0,0.0,0.0,0.0,0.0,2.7074,2.6739,2.6411,0.0,0.0,0.0,0.0,0.0,0.0,0.0,0.0,0.0,0.0,2.9101,2.9572,3.0027,3.0089,3.0104,3.0079,2.9876,2.9398,2.8554,2.8164,2.7779,0.0,0.0,0.0,0.0,0.0,0.0,0.0,0.0,0.0,0.0,0.0,0.0,0.0,0.0,0.0,0.0,0.0,0.0,0.0,0.0,0.0,0.0,0.0,0.0,0.0,0.0,0.0,1.9965,1.9958,0.0,0.0,0.0,0.0,0.0,0.0,0.0,0.0,0.0,0.0,0.0,2.4767,2.5089,0.0,0.0,0.0,0.0,0.0,0.0,0.0,0.0,0.0,0.0,0.0,0.0,2.483,2.5897,2.7086,2.7997,2.8593,2.9373,2.9611,2.9321,2.9156,2.8504,2.7317,0.0,0.0,0.0,0.0,0.0,0.0,0.0,0.0,0.0,0.0,0.0,0.0,0.0,0.0,0.0,0.0,0.0,0.0,0.0,0.0,0.0,0.0,0.0,0.0,0.0,2.6728,0.0,0.0,0.0,0.0,0.0,0.0,0.0,0.0,0.0,0.0,0.0,2.8287,2.9069,2.9556,2.997,3.0256,3.03,3.0212,0.0,0.0,0.0,0.0,0.0,0.0,0.0,0.0,0.0,0.0,0.0,0.0,0.0,0.0,2.8059,2.7748,2.7448,2.7231,2.7241,0.0,0.0,0.0,0.0,0.0,0.0,0.0,0.0,0.0,0.0,0.0,0.0,0.0,0.0,0.0,0.0,2.0878,0.0,0.0,0.0,0.0,0.0,0.0,0.0,0.0,2.4892,2.5492,2.5935,2.6382,2.6589,0.0,2.6144,2.5399,0.0,0.0,0.0,0.0,0.0,0.0,0.0,0.0,2.5306,2.6384,2.7552,2.838,2.8841,2.9601,2.9849,2.9549,2.9394,2.8814,2.7783,2.7475,2.6737,0.0,0.0,0.0,0.0,0.0,0.0,0.0,0.0,0.0,0.0,0.0,0.0,0.0,0.0,0.0,0.0,0.0,0.0,0.0,0.0,0.0,0.0,0.0,2.6497,0.0,0.0,0.0,0.0,0.0,0.0,0.0,0.0,0.0,2.6984,2.7762,2.8543,2.9391,2.9884,3.0209,3.0255,0.0,0.0,0.0,0.0,0.0,0.0,0.0,2.8959,2.8669,2.8593,2.8696,2.9042,2.9228,2.9487,2.9953,0.0,0.0,2.9208,2.8721,2.84,2.84,2.8099,2.7863,2.7927,2.8117,2.8274,0.0,0.0,0.0,0.0,0.0,0.0,0.0,0.0,2.1932,2.1923,0.0,2.1921,0.0,0.0,0.0,0.0,0.0,0.0,0.0,0.0,2.6001,2.6861,2.7327,2.7728,2.791,2.7889,2.7489,2.7092,2.6529,2.4882,0.0,0.0,0.0,0.0,0.0,0.0,2.5925,2.7268,2.8152,2.8856,2.929,2.9756,2.9994,2.9984,2.9559,2.9104,2.8628,2.7835,2.7372,2.7265,2.5606,0.0,0.0,0.0,0.0,0.0,0.0,0.0,0.0,0.0,0.0,0.0,0.0,0.0,0.0,0.0,0.0,0.0,0.0,0.0,0.0,2.6274,0.0,0.0,0.0,0.0,0.0,0.0,0.0,0.0,0.0,0.0,2.7986,2.8439,2.8947,2.961,0.0,0.0,0.0,0.0,2.9839,2.9404,2.9332,2.9187,2.8748,2.8711,2.8696,2.8706,0.0,0.0,2.9891,3.0398,3.0849,3.1326,3.1377,3.1139,3.029,2.9735,2.9368,2.9358,2.9116,2.8874,2.8874,2.9215,2.9553,2.5801,0.0,0.0,0.0,0.0,2.4084,2.4043,2.3753,2.4073,2.4043,2.3722,2.3743,0.0,0.0,0.0,0.0,0.0,0.0,2.5532,2.6498,2.6913,2.7493,2.8224,2.8359,2.8421,2.8411,2.8262,2.7986,2.7521,2.699,2.6051,2.4653,0.0,0.0,0.0,0.0,2.6892,2.7351,2.8483,2.9177,2.9301,2.9756,2.9994,2.9994,2.987,2.958,2.9114,2.8856,2.8411,2.7748,2.6931,0.0,0.0,0.0,0.0,0.0,0.0,0.0,0.0,0.0,0.0,0.0,0.0,0.0,0.0,0.0,0.0,0.0,0.0,0.0,2.6303,2.6508,2.654,0.0,0.0,0.0,0.0,0.0,0.0,0.0,0.0,0.0,2.8813,2.9036,2.9313,0.0,0.0,3.0099,2.9994,2.9994,2.9953,2.9818,0.0,0.0,0.0,3.0098,3.0212,3.0559,3.0611,3.0677,3.0963,3.1091,3.1329,3.1774,3.1819,3.1857,3.1881,3.1309,3.0748,3.0481,3.0346,3.013,2.9763,2.9826,2.9838,2.7807,2.6752,2.5958,2.5616,2.5637,2.5894,2.5885,2.5614,2.5894,2.5875,2.5606,2.5397,2.5347,2.5325,2.5325,0.0,0.0,0.0,2.6721,2.7565,2.7928,2.8359,2.8887,2.9073,2.9166,2.913,2.8944,2.8717,2.8462,2.8262,2.7631,2.6566,0.0,0.0,2.6274,2.7117,2.7731,2.8114,2.8887,2.9394,2.958,2.9849,2.9994,2.9994,2.9994,2.987,2.9591,2.9394,2.9052,2.8493,2.7862,2.7213,0.0,0.0,0.0,0.0,0.0,0.0,0.0,0.0,0.0,0.0,0.0,2.3668,0.0,0.0,0.0,0.0,2.5753,2.6263,2.6826,2.7016,0.0,0.0,0.0,0.0,0.0,0.0,0.0,2.8294,2.8587,2.9094,2.9994,3.0118,3.0098,3.0005,3.0176,3.0263,3.0263,0.0,3.0569,3.0543,3.0543,3.0646,3.0942,3.0984,3.106,3.1357,3.1526,3.164,3.164,3.1785,3.1974,3.2202,3.22,3.2197,3.2493,3.2017,3.1464,3.1235,3.0962,3.0665,3.0312,3.0282,3.0306,2.9394,2.9249,2.8021,2.7475,2.7389,2.7431,2.7455,2.7423,2.7455,2.7431,2.7382,2.6967,2.6757,2.6757,2.6757,0.0,0.0,2.7603,2.7972,2.8045,2.8893,2.9327,2.9435,2.9849,3.0067,3.0098,2.9663,2.9466,2.9456,2.9027,2.8785,2.8764,2.7972,2.7679,2.7917,2.7934,2.8388,2.9265,2.9343,2.9596,3.0046,3.0015,2.9994,2.9994,2.9994,2.9994,2.9984,2.958,2.9363,2.9332,2.8479,2.7841,2.7462,0.0,0.0,0.0,0.0,0.0,0.0,0.0,0.0,0.0,0.0,0.0,0.0,0.0,0.0,0.0,2.7068,0.0,2.7405,2.773,0.0,0.0,0.0,2.7781,2.7986,2.8034,2.8572,2.9901,0.0,0.0,0.0,0.0,3.1098,3.0212,3.0481,3.0777,3.0766,3.1108,3.1408,3.1346,3.1388,3.1381,3.144,3.1474,3.1564,3.1605,3.1826,3.2019,3.2032,3.2311,3.261,3.2563,3.242,3.2248,3.2248,3.1949,3.1724,3.1556,3.1079,3.0691,3.0616,3.073,3.083,3.0149,2.9808,2.9477,2.8928,2.8317,2.8669,2.8618,2.8338,2.8669,2.8618,2.8286,2.8173,2.8131,2.8121,2.8131,2.8131,2.8142,2.8324,2.8624,2.8955,2.9197,2.9673,3.0356,3.0497,3.0735,3.1056,3.0963,3.0911,3.0874,3.0535,3.0355,3.0318,2.9873,2.9152,2.8185,2.8274,2.8608,2.9128,2.9701,3.0165,3.0501,3.018,2.9994,2.9994,2.9994,2.9994,2.9994,2.9891,2.9829,2.9818,2.928,2.8903,2.8804,2.7741,0.0,0.0,0.0,0.0,0.0,0.0,0.0,0.0,0.0,2.472,2.567,0.0,2.5994,0.0,2.7303,2.7918,2.8247,2.8382,0.0,0.0,2.836,2.8522,2.8928,2.929,2.9766,3.0439,3.0843,3.116,3.1377,3.1408,3.1326,3.1081,3.117,3.1205,3.1243,3.1326,3.1408,3.1429,3.144,3.1505,3.1836,3.216,3.2385,3.2377,3.2471,3.2476,3.2266,3.2309,3.2315,3.2076,3.196,3.1942,3.1962,3.1643,3.145,3.1369,3.1234,3.1089,3.0877,3.0878,3.0928,3.0729,3.0331,3.0305,2.9891,2.9249,2.9508,2.9466,2.9249,2.9497,2.9466,2.9192,2.9021,2.8804,2.8638,2.8799,2.8928,2.8938,2.9135,2.9477,2.9911,2.9922,3.0294,3.1015,3.1025,3.1068,3.1158,3.1158,3.1103,3.0939,3.0763,3.067,3.0681,3.0377,2.9813,2.9035,2.9242,2.9457,2.9688,3.0035,3.0291,3.0453,3.0163,2.9994,2.9994,2.9994,2.9994,2.9994,2.9994,2.9994,2.9994,2.9756,2.9518,2.9311,2.8612,2.8011,0.0,0.0,0.0,0.0,0.0,0.0,0.0,0.0,0.0,0.0,0.0,2.6972,0.0,2.8307,0.0,2.9208,2.9601,2.9849,2.9865,2.9849,2.9942,3.0201,3.045,3.0818,3.1236,3.1516,3.1743,3.195,3.1981,3.1971,3.1981,3.1981,3.1909,3.1733,3.1836,3.1981,3.1971,3.1981,3.2043,3.2295,3.2533,3.2669,3.2545,3.2516,3.243,3.2143,3.2248,3.2283,3.2118,3.2123,3.2135,3.2135,3.1909,3.1712,3.1712,3.1712,3.1584,3.124,3.1172,3.1211,3.1195,3.0797,3.077,3.0512,3.0087,3.0087,3.0056,2.9994,2.9994,2.9994,2.9963,2.957,2.9166,2.8814,2.9208,2.9368,2.9415,2.987,3.0294,3.0677,3.0777,3.1046,3.1454,3.1436,3.1309,3.1092,3.1036,3.087,3.0583,3.0537,3.0509,3.0509,3.025,3.012,3.012,3.0352,3.0451,3.0447,3.0281,3.0258,3.0275,3.0105,3.0025,3.0103,3.0077,3.0118,3.017,3.0118,3.0077,3.0087,3.0025,2.9818,2.9425,2.9306,2.8924,0.0,2.8024,0.0,0.0,0.0,0.0,0.0,0.0,0.0,0.0,2.7893,2.8334,2.8752,2.9632,3.017,3.017,3.0905,3.1408,3.1408,3.1408,3.1419,3.1481,3.1491,3.1629,3.2047,3.2098,3.2253,3.2605,3.2698,3.2688,3.2646,3.2626,3.2481,3.2184,3.2408,3.2626,3.2669,3.2669,3.254,3.2635,3.2676,3.2592,3.245,3.2454,3.2287,3.2009,3.2232,3.2404,3.2374,3.2425,3.2523,3.2532,3.2351,3.2199,3.216,3.216,3.2022,3.1689,3.1611,3.1728,3.1661,3.1284,3.1274,3.0977,3.058,3.058,3.0346,2.9994,2.9994,2.9994,2.9994,2.9901,2.9818,2.9735,2.9818,2.987,2.988,3.0336,3.0632,3.0698,3.1108,3.1485,3.1843,3.1658,3.172,3.2001,3.1765,3.1593,3.1536,3.1249,3.1134,3.1134,3.0866,3.0731,3.0731,0.0,0.0,0.0,3.0449,3.0494,3.0748,3.0249,3.018,3.0532,3.058,0.0,3.1108,3.0787,3.058,3.0543,3.0228,0.0,0.0,0.0,0.0,0.0,0.0,0.0,0.0,0.0,0.0,0.0,2.9228,2.9063,2.8452,2.9125,2.9642,2.9746,3.0574,3.1139,3.1122,3.1295,3.1408,3.1408,3.1408,3.1505,3.1829,3.1881,3.2067,3.2512,3.2564,3.2595,3.2677,3.2698,3.2698,3.2669,3.2669,3.2667,3.2556,3.2646,3.2698,3.2669,3.2568,3.2537,3.2825,3.2643,3.2608,3.2822,3.2953,3.2804,3.2485,3.2495,3.2474,3.2313,3.2261,3.2299,3.2309,3.2219,3.2247,3.2208,3.2218,3.2179,3.2091,3.2081,3.2101,3.2088,0.0,3.1702,3.1443,0.0,3.1046,3.0922,3.0673,3.018,3.0118,3.0346,3.0611,3.0677,3.0704,3.0677,3.0704,3.0688,3.0926,3.1143,3.1371,3.1598,3.1856,3.2148,3.1996,3.1881,3.1806,3.1643,3.1469,3.1373,3.1189,3.1112,3.1112,3.0966,3.0928,3.0928,3.0928,3.0868,3.0816,3.059,3.067,3.0946,3.0618,3.0636,3.1036,0.0,0.0,0.0,0.0,0.0,0.0,0.0,0.0,0.0,0.0,0.0,3.0325,3.0118,2.9973,2.9973,3.001,3.0077,3.0315,3.0543,3.0507,3.0005,3.0408,3.0677,3.0698,3.1298,3.1702,3.1712,3.1909,3.2043,3.2043,3.2043,3.2119,3.2315,3.2357,3.245,3.2646,3.2698,3.2698,3.2698,3.2698,3.2612,3.2537,3.2683,3.273,3.2583,3.2642,3.2703,3.2786,3.277,3.2758,3.295,3.2852,3.2724,3.2875,3.2864,3.2724,3.2461,3.2568,3.2645,3.2521,3.2637,3.2783,3.2783,3.2793,3.2783,3.2783,3.2783,3.2731,3.2587,3.2534,3.2549,3.2481,3.214,3.214,3.1899,3.1522,3.1495,3.1471,3.1329,0.0,0.0,0.0,3.1243,3.1408,3.1408,3.1408,3.1408,3.1408,3.1491,3.1664,3.1932,3.2014,3.2099,3.2219,3.2133,3.1816,3.1325,3.1247,3.1102,3.0928,3.0928,3.0928,3.0928,3.0928,3.0928,3.0928,3.0928,3.0928,3.0898,3.0698,3.0717,3.099,3.0931,3.1079,3.143,3.1495,3.1564,3.1647,3.1564,3.1495,3.1495,3.145,3.1408,3.1408,3.1408,3.1408,3.1408,3.1408,3.1408,3.1408,3.1408,3.144,3.1485,3.1567,3.1547,3.1429,3.1443,3.1495,3.1522,3.1909,3.2129,3.214,3.2471,3.2698,3.2698,3.2698,3.2688,3.2698,3.2698,3.2688,3.2698,3.2698,3.27,3.2736,3.2746,3.2681,3.2552,3.2742,3.2847,3.26,3.271,3.2832,3.2905,3.2893,3.2965,3.3085,3.3045,3.2974,3.284,3.2809,3.2678,3.2533,3.2676,3.2881,3.291,3.3203,3.3318,3.3304,3.3233,3.3292,3.3228,3.3228,3.3143,3.2892,3.2746,3.2799,3.2657,3.2605,3.2605,3.2346,3.1922,3.1912,3.1723,3.1398,3.1263,3.1243,3.1315,3.1377,3.1408,3.1408,3.1408,3.1408,3.1429,3.1774,3.1842,0.0,3.2058,3.2101,3.1874,3.1585,3.1383,3.1296,3.1083,3.0947,3.0928,3.0928,3.0928,3.0928,3.0928,3.0928,3.0928,3.0928,3.0928,3.0908,3.0698,3.0613,3.066,3.082,3.1102,3.1574,3.18,3.2109,3.2491,3.2129,3.1922,3.1912,3.1578,3.1408,3.1408,3.1429,3.1408,3.1408,3.1408,3.1408,3.1408,3.1408,3.1547,3.1891,3.2284,3.2191,3.1464,3.1733,3.1922,3.1933,3.2315,3.2605,3.2615,3.2657,3.2698,3.2698,3.2698,3.2698,3.2698,3.2719,3.27,3.27,3.2698,3.2769,3.2846,3.2878,3.2893,3.2952,3.2954,3.3045,3.3005,3.3024,3.3034,3.3024,3.2845,3.2852,3.313,3.3013,3.3008,3.3256,3.3246,3.3207,3.3135,3.3213,3.325,3.3289,3.3306,3.325,3.3048,3.2953,3.2858,3.2676,3.2632,3.2546,3.2501,3.2457,3.2438,3.2698,3.2698,3.2698,3.2584,3.2388,3.2388,3.2274,3.2116,3.2106,3.1961,3.1774,3.2002,3.2078,3.2078,3.1965,3.1881,3.1891,3.1888,3.1838,3.1724,3.1917,3.1845,3.1537,3.1354,3.1218,3.1083,3.0937,3.0928,3.0928,3.0928,3.0928,3.0928,3.0928,3.0928,3.0928,3.0928,3.0928,3.0889,3.0809,3.0836,3.097,3.1057,3.1388,3.196,3.2112,3.2329,3.2659,3.2502,3.2388,3.2398,3.2191,3.2106,3.2106,3.2106,3.2106,3.2106,3.2116,3.2106,3.2078,3.2106,3.2199,3.2367,3.2574,3.2533,3.2157,3.2264,3.2377,3.2398,3.2595,3.2698,3.2698,3.2698,3.2698,3.2698,3.2698,3.2698,3.2729,3.2965,3.2992,3.2878,3.3044,3.3142,3.3021,3.3001,3.2943,3.2885,3.2893,3.3019,3.3237,3.3255,3.3259,3.3212,3.3117,3.3149,3.3314,3.326,3.3223,3.3367,3.3386,3.3386,3.3386,3.3386,3.3323,3.3175,3.3143,3.2985,3.2718,3.2635,3.2549,3.2482,3.2446,3.2402,3.2222,3.2036,3.2013,3.2545,3.2612,3.2612,3.2612,3.2612,3.2612,3.2584,3.2498,3.2487,3.2292,3.2046,3.2429,3.2584,3.2469,3.2287,3.2162,3.2143,3.1913,3.1749,3.1672,3.1672,3.1508,3.1218,3.1218,3.1112,3.0918,3.0928,3.0928,3.0928,3.0928,3.0928,3.0928,3.0928,3.0928,3.0928,3.0928,3.0928,3.0928,3.0928,3.1005,3.1189,3.1276,3.1556,3.2018,3.2133,3.2315,3.2584,3.2612,3.2641,3.2698,3.2698,3.2698,3.2698,3.2698,3.2698,3.2698,3.2698,3.2698,3.2698,3.2698,3.2669,3.2602,3.2612,3.2584,3.2498,3.2498,3.2555,3.2669,3.2688,3.2698,3.2698,3.2698,3.2739,3.2822,3.2785,3.2821,3.2903,3.3152,3.3241,3.3036,3.3252,3.3385,3.3196,3.3135,3.3074,3.2888,3.2879,3.3066,3.3318,3.3386,3.3356,3.3365,3.3379,3.3359,3.3386,3.3367,3.3367,3.3386,3.3323,3.326,3.3228,3.3238,3.308,3.2835,3.2899,3.2775,3.2454,3.2429,3.2356,3.2227,3.2161,3.212,3.1751,3.1532,3.1537,3.2086,3.2315,3.2315,3.2334,3.2315,3.2344,3.2172,3.1932,3.1874,3.1864,3.1861,3.218,3.2162,3.1913,3.1884,3.1835,3.1845,3.1816,3.1643,3.1392,3.1354,3.1199,3.0976,3.0947,3.0928,3.0928,3.0898,3.0967,3.0928,3.0967,3.0947,3.0928,3.0928,3.0957,3.0947,3.0947,3.0937,3.0928,3.0928,3.0928,3.0937,3.116,3.1325,3.1383,3.1701,3.1999,3.2315,3.2344,3.2459,3.2669,3.2698,3.2669,3.2669,3.2698,3.2698,3.2698,3.2698,3.2698,3.2669,3.2698,3.2584,3.2363,3.2344,3.224,3.1952,3.1894,3.2125,3.2568,3.27,3.2672,3.2669,3.2711,3.2868,3.3198,3.3025,3.3062,3.3359,3.3284,3.3105,3.3105,3.3176,3.3165,3.3271,3.3289,3.3264,3.325,3.3244,3.3269,3.3357,3.3355,3.3345,3.3359,3.3386,3.3386,3.3386,3.3386,3.3355,3.3323,3.3111,3.2985,3.2921,3.2718,3.2463,3.2532,3.2698,3.2636,3.2315,3.2278,3.2256,3.1766,3.1588,3.1478,3.1115,3.0991,3.1125,3.1884,3.1989,3.1989,3.2018,3.1989,3.1989,3.1932,3.1816,3.1816,3.1701,3.1527,3.1643,3.174,3.1797,3.1585,3.1498,3.1508,3.1334,3.1199,3.1073,3.1083,3.1005,3.0918,3.0928,3.0928,3.0928,3.1133,3.126,3.1309,3.1514,3.168,3.168,3.168,3.168,3.168,3.167,3.168,3.167,3.168,3.168,3.1622,3.126,3.1131,3.1296,3.1441,3.1643,3.196,3.1999,3.2057,3.2172,3.2334,3.2459,3.2459,3.2612,3.2698,3.2669,3.2545,3.2373,3.2172,3.2172,3.2143,3.1989,3.1989,3.2023,3.215,3.1965,3.2153,3.2767,3.2692,3.2519,3.255,3.2763,3.3027,3.319,3.3101,3.3093,3.3285,3.3437,3.3467,3.3274,3.3422,3.3498,3.3396,3.3352,3.3358,3.3398,3.3386,3.3386,3.3386,3.3228,3.3111,3.308,3.2953,3.3016,3.3238,3.3206,3.3143,3.3048,3.2826,3.2603,3.2578,3.2562,3.2403,3.2209,3.2323,3.2256,3.1793,3.1582,3.1463,3.1153,3.0935,3.0788,3.0645,3.0626,3.0687,3.1585,3.1682,3.1759,3.1759,3.1672,3.1672,3.1624,3.1566,3.1566,3.1421,3.1218,3.1189,3.1404,3.1629,3.1336,3.1199,3.116,3.1005,3.0967,3.1055,3.1064,3.1123,3.126,3.124,3.124,3.1319,3.1562,3.1699,3.1728,3.2022,3.2198,3.2198,3.2198,3.2198,3.2198,3.2198,3.2198,3.2189,3.2198,3.2198,3.211,3.1592,3.1348,3.1515,3.1544,3.1691,3.2004,3.1893,3.1891,3.1968,3.2089,3.2162,3.2162,3.2344,3.244,3.243,3.2287,3.2108,3.1948,3.1881,3.1844,3.1867,3.1828,3.181,3.1949,3.1819,3.1957,3.2373,3.2355,3.2276,3.2603,3.2884,3.3125,3.3256,3.3226,3.3165,3.3345,3.3595,3.358,3.3392,3.3528,3.3702,3.3449,3.3398,3.3377,3.3377,3.3292,3.326,3.3206,3.2985,3.2772,3.2762,3.254,3.2603,3.3016,3.2921,3.2772,3.2683,3.2488,3.2308,3.2267,3.2269,3.219,3.1872,3.1863,3.1732,3.1445,3.1122,3.0849,3.0737,3.0544,3.0289,3.0293,3.0231,3.0053,3.1083,3.1354,3.1672,3.1595,3.1334,3.1344,3.118,3.1054,3.1015,3.0976,3.1015,3.0996,3.1152,3.1514,3.1192,3.0947,3.0947,3.0986,3.1162,3.1475,3.1494,3.1709,3.214,3.214,3.212,3.2032,3.212,3.2189,3.2198,3.2218,3.2198,3.2228,3.2267,3.2237,3.2267,3.2286,3.2218,3.2286,3.2286,3.2247,3.2237,3.2179,3.214,3.217,3.215,3.2253,3.2454,3.2187,3.2097,3.2342,3.2059,3.1857,3.1846,3.1885,3.1934,3.1896,3.1885,3.1999,3.2223,3.1998,3.188,3.1963,3.168,3.1472,3.1247,3.1174,3.1221,3.124,3.1634,3.2108,3.2803,3.2944,3.3195,3.3546,3.3411,3.3426,3.3742,3.3419,3.341,3.3328,3.3357,3.3323,3.3355,3.3386,3.3323,3.326,3.3111,3.2921,3.2848,3.2635,3.2412,3.2358,3.2326,3.2358,3.2412,3.238,3.238,3.2311,3.2083,3.1955,3.188,3.1794,3.1649,3.1508,3.1458,3.1297,3.1115,3.086,3.0626,3.0445,3.0165,2.9981,2.9632,2.9505,2.9326,3.0947,3.1054,3.117,3.1131,3.1083,3.1309,3.1368,3.1318,3.1622,3.1739,3.1739,3.1739,3.1797,3.1954,3.1807,3.1739,3.1729,3.1709,3.1827,3.1954,3.1964,3.2042,3.2179,3.2198,3.2198,3.2228,3.2441,3.2715,3.2959,3.2969,3.2969,3.2969,3.2959,3.2959,3.2969,3.2969,3.2969,3.2969,3.2969,3.2969,3.2939,3.2969,3.2978,3.2939,3.2472,3.2229,3.235,3.2193,3.2175,3.2285,3.2296,3.2306,3.2336,3.2514,3.2514,3.2306,3.2127,3.1958,3.1845,3.1572,3.1306,3.1155,3.103,3.0925,3.0819,3.0674,3.0734,3.1122,3.1184,3.1584,3.2162,3.2512,3.2705,3.2841,3.2826,3.2801,3.2873,3.2826,3.2762,3.2762,3.2762,3.2762,3.2794,3.2762,3.2772,3.274,3.2635,3.2571,3.2476,3.2115,3.1772,3.1676,3.1396,3.1106,3.1106,3.1548,3.1732,3.1666,3.1543,3.1363,3.1232,3.1264,3.1192,3.0926,3.0888,3.0707,3.0414,3.005,2.9898,2.9533,2.9318,2.9254,2.8779,2.8751,2.8606,3.0928,3.0937,3.1035,3.1103,3.1143,3.1543,3.1728,3.1758,3.2071,3.2198,3.2198,3.2198,3.2267,3.2384,3.2404,3.2492,3.2519,3.2314,3.2267,3.2363,3.2404,3.2441,3.2589,3.2568,3.2578,3.2617,3.2851,3.3154,3.3347,3.3386,3.3386,3.3377,3.3386,3.3386,3.3386,3.3386,3.3386,3.3386,3.3386,3.3377,3.3386,3.3386,3.3386,3.3308,3.2871,3.2568,3.2599,3.2472,3.2394,3.2415,3.2449,3.2482,3.2482,3.2563,3.2532,3.227,3.1956,3.1759,3.1638,3.1225,3.0931,3.0834,3.053,3.0365,3.0388,3.0104,3.0223,3.054,3.0667,3.0764,3.1143,3.1529,3.191,3.2262,3.2422,3.2422,3.2422,3.2422,3.2422,3.2453,3.2453,3.2422,3.239,3.2422,3.2358,3.2253,3.2157,3.2061,3.1869,3.1451,3.1,3.0894,3.0546,3.0189,3.0079,3.0304,3.0876,3.0896,3.1158,3.0954,3.0754,3.0796,3.066,3.0403,3.0159,2.9932,2.962,2.9254,2.8895,2.8555,2.8527,2.8527,2.8238,2.8057,2.7992,3.0928,3.0976,3.1338,3.1474,3.1582,3.1982,3.2208,3.2208,3.2257,3.2335,3.2374,3.2276,3.2531,3.2734,3.2803,3.3008,3.3103,3.2607,3.2521,3.2783,3.2803,3.2998,3.3301,3.325,3.3281,3.3259,3.3347,3.3367,3.3377,3.3386,3.3386,3.3386,3.3386,3.3386,3.3386,3.3386,3.3386,3.3386,3.3386,3.3386,3.3386,3.3386,3.3386,3.3386,3.3308,3.3289,3.335,3.2988,3.2793,3.2764,3.2472,3.2237,3.2245,3.2001,3.1688,3.1715,3.1361,3.1365,3.1624,3.1097,3.0883,3.0878,3.0337,2.9806,2.9694,2.9468,2.9339,2.9421,2.9626,2.9813,2.9911,3.0222,3.0879,3.2102,3.2166,3.2166,3.223,3.2326,3.2358,3.2262,3.2166,3.2326,3.2358,3.2166,3.1997,3.1763,3.157,3.1281,3.1,3.062,3.0263,2.9952,2.9691,2.9471,2.9238,2.9126,2.9686,3.0185,3.0583,3.0702,3.0456,3.0374,3.0165,2.9903,2.9432,2.9182,2.8895,2.8534,2.8354,2.8093,2.8021,2.7956,2.7811,2.7666,2.763,3.1055,3.1318,3.1425,3.1699,3.2002,3.2422,3.2598,3.2637,3.2891,3.3037,3.3027,3.3027,3.3105,3.3152,3.3223,3.3259,3.3357,3.3135,3.3105,3.3203,3.3213,3.3281,3.3357,3.3386,3.3386,3.3386,3.3386,3.3386,3.3386,3.3386,3.3386,3.3386,3.3386,3.3386,3.3386,3.3386,3.3386,3.3386,3.3386,3.3386,3.3386,3.3386,3.3386,3.3386,3.3386,3.3386,3.3377,3.3301,3.3191,3.3181,3.3105,3.2912,3.2683,3.2348,3.215,3.2096,3.1613,3.1356,3.1413,3.0883,3.0307,3.0,2.9635,2.9242,2.8848,2.8683,2.8593,2.8626,2.8725,2.8848,2.9069,2.9201,2.9831,3.0912,3.1018,3.1082,3.1082,3.105,3.1018,3.105,3.1009,3.1018,3.105,3.1041,3.1041,3.0912,3.075,3.0555,3.018,2.9863,2.9504,2.9192,2.8971,2.8757,2.8527,2.8475,2.8915,2.9418,2.985,3.0196,3.0001,2.9736,2.9564,2.929,2.8823,2.8462,2.8137,2.792,2.7775,2.7666,2.7558,2.7449,2.7347,2.7311,2.7311,3.1133,3.1514,3.1689,3.2012,3.2432,3.2851,3.3037,3.3066,3.331,3.3386,3.3377,3.3377,3.3386,3.3386,3.3386,3.3386,3.3386,3.3386,3.3386,3.3386,3.3386,3.3386,3.3386,3.3386,3.3386,3.3386,3.3386,3.3386,3.3386,3.3386,3.3386,3.3386,3.3386,3.3386,3.3386,3.3386,3.3386,3.3386,3.3386,3.3386,3.3386,3.3386,3.3386,3.3386,3.3386,3.3386,3.3386,3.3292,3.3197,3.3206,3.3111,3.2921,3.2699,3.2275,3.2029,3.1901,3.1419,3.0958,3.0788,3.0269,2.9741,2.9209,2.8872,2.8543,2.8155,2.799,2.7898,2.7873,2.8023,2.8147,2.837,2.8543,2.8946,2.9513,2.9872,2.997,3.0011,3.01,3.0198,3.0263,3.0361,3.0304,3.023,3.0165,3.0068,2.9905,2.9807,2.9676,2.9332,2.9078,2.8774,2.8444,2.8155,2.7948,2.7781,2.7911,2.8148,2.8598,2.904,2.9354,2.9401,2.9039,2.8787,2.8491,2.8101,2.792,2.7594,2.7492,2.7347,2.7238,2.7202,2.7165,2.7136,2.71,2.71,3.1143,3.1592,3.2022,3.2402,3.2842,3.3232,3.3338,3.3367,3.3386,3.3386,3.3386,3.3386,3.3386,3.3386,3.3386,3.3386,3.3386,3.3386,3.3386,3.3386,3.3386,3.3386,3.3386,3.3386,3.3386,3.3386,3.3386,3.3386,3.3386,3.3386,3.3386,3.3386,3.3386,3.3386,3.3386,3.3386,3.3386,3.3386,3.3386,3.3386,3.3386,3.3386,3.3386,3.3386,3.3386,3.3355,3.3292,3.2985,3.2826,3.2835,3.2571,3.239,3.223,3.174,3.1419,3.1345,3.0717,3.0222,2.9822,2.9504,2.9111,2.8708,2.8172,2.7708,2.7683,2.7492,2.7334,2.7342,2.7525,2.7675,2.7783,2.799,2.8229,2.8296,2.8889,2.9218,2.9275,2.9495,2.9593,2.9691,3.0026,3.0133,2.9659,2.9626,2.9364,2.9036,2.8872,2.8749,2.8485,2.8287,2.8056,2.7724,2.7359,2.7175,2.7032,2.7248,2.7528,2.7872,2.8287,2.8538,2.876,2.8447,2.8072,2.7775,2.7594,2.7376,2.7238,2.7165,2.7136,2.71,2.7063,2.7027,2.6991,2.6991,2.6991,3.1358,3.2022,3.2159,3.2598,3.3181,3.3357,3.3386,3.3386,3.3386,3.3386,3.3386,3.3386,3.3386,3.3386,3.3386,3.3386,3.3386,3.3386,3.3386,3.3386,3.3386,3.3386,3.3386,3.3386,3.3386,3.3386,3.3386,3.3386,3.3386,3.3386,3.3386,3.3386,3.3386,3.3386,3.3386,3.3386,3.3386,3.3386,3.3386,3.3386,3.3386,3.3386,3.3386,3.3386,3.3386,3.327,3.3016,3.2485,3.2294,3.2485,3.2198,3.191,3.1676,3.1258,3.0903,3.062,3.0035,2.9537,2.9373,2.8914,2.8419,2.8039,2.7808,2.7609,2.7359,2.7267,2.72,2.72,2.73,2.7326,2.7359,2.7434,2.7508,2.7566,2.8122,2.8527,2.8593,2.8659,2.8683,2.8683,2.8823,2.8889,2.8815,2.8716,2.865,2.8452,2.832,2.8221,2.7824,2.7566,2.7367,2.6992,2.6692,2.6465,2.6382,2.662,2.6893,2.7196,2.7506,2.7743,2.7964,2.7985,2.7601,2.7274,2.7311,2.7165,2.71,2.7063,2.7027,2.6991,2.6991,2.6991,2.6991,2.6991,2.6991,3.1416,3.2198,3.2198,3.2656,3.3338,3.3386,3.3386,3.3386,3.3386,3.3386,3.3386,3.3386,3.3386,3.3386,3.3386,3.3386,3.3386,3.3386,3.3386,3.3386,3.3386,3.3386,3.3386,3.3386,3.3386,3.3386,3.3386,3.3386,3.3386,3.3386,3.3386,3.3386,3.3386,3.3386,3.3386,3.3386,3.3386,3.3386,3.3386,3.3386,3.3386,3.3386,3.3386,3.3386,3.3386,3.3206,3.2699,3.2175,3.1983,3.2038,3.175,3.1396,3.1184,3.07,3.0352,3.01,2.948,2.9053,2.8815,2.8353,2.789,2.7584,2.7492,2.74,2.7267,2.72,2.72,2.72,2.72,2.72,2.72,2.72,2.7134,2.71,2.7359,2.7699,2.7807,2.7957,2.8023,2.8089,2.8188,2.8229,2.8056,2.8023,2.789,2.7691,2.7558,2.7326,2.7067,2.6875,2.6708,2.6432,2.6197,2.5996,2.5861,2.5975,2.6174,2.6478,2.6879,2.7117,2.7363,2.7528,2.7347,2.71,2.7027,2.6991,2.6991,2.6991,2.6991,2.6991,2.6991,2.6991,2.6991,2.6991,2.6991,3.1397,3.213,3.2179,3.2627,3.3259,3.3377,3.3386,3.3386,3.3386,3.3386,3.3386,3.3386,3.3386,3.3386,3.3386,3.3386,3.3386,3.3386,3.3386,3.3386,3.3386,3.3386,3.3386,3.3386,3.3386,3.3386,3.3386,3.3386,3.3386,3.3386,3.3386,3.3386,3.3386,3.3386,3.3386,3.3386,3.3386,3.3386,3.3386,3.3386,3.3386,3.3386,3.3386,3.3386,3.3292,3.3016,3.2508,3.2102,3.1919,3.1823,3.1267,3.1,3.0838,3.018,2.9855,2.9691,2.9218,2.8741,2.8403,2.8056,2.7617,2.74,2.7267,2.72,2.72,2.72,2.72,2.72,2.72,2.72,2.72,2.72,2.71,2.6934,2.6859,2.6934,2.7134,2.7392,2.755,2.755,2.7824,2.7824,2.7675,2.7476,2.7318,2.6967,2.6867,2.6733,2.6532,2.6331,2.6205,2.6104,2.5835,2.5599,2.5457,2.5344,2.5498,2.5736,2.6265,2.6613,2.6936,2.7062,2.7071,2.6991,2.6991,2.6991,2.6991,2.6991,2.6991,2.6991,2.6991,2.6991,2.6991,2.6991,2.6991,3.1191,3.168,3.2061,3.2492,3.2939,3.324,3.3377,3.3386,3.3386,3.3386,3.3386,3.3386,3.3386,3.3386,3.3386,3.3386,3.3386,3.3386,3.3386,3.3386,3.3386,3.3386,3.3386,3.3386,3.3386,3.3386,3.3386,3.3386,3.3386,3.3386,3.3386,3.3386,3.3386,3.3386,3.3386,3.3386,3.3386,3.3386,3.3386,3.3386,3.3386,3.3386,3.3386,3.3386,3.3175,3.2826,3.2422,3.207,3.1782,3.1557,3.1387,3.1097,3.0653,3.0369,3.0035,2.9537,2.9119,2.8774,2.8601,2.8122,2.7675,2.7617,2.7425,2.72,2.72,2.7234,2.7234,2.72,2.72,2.7267,2.7234,2.72,2.7134,2.7034,2.7034,2.7067,2.7067,2.6767,2.6633,2.6566,2.6633,2.6566,2.6491,2.6558,2.6432,2.6238,2.6205,2.6171,2.6003,2.5835,2.5768,2.57,2.5566,2.5356,2.5296,2.5216,2.5303,2.5432,2.5814,2.6194,2.6515,2.6742,2.6793,2.6896,2.6991,2.6991,2.6991,2.6991,2.6991,2.6991,2.6991,2.6991,2.6991,2.6991,2.6991,3.1133,3.1503,3.1768,3.2226,3.2783,3.3037,3.3232,3.3357,3.3386,3.3386,3.3386,3.3386,3.3386,3.3386,3.3386,3.3386,3.3386,3.3386,3.3386,3.3386,3.3386,3.3386,3.3386,3.3386,3.3386,3.3386,3.3386,3.3386,3.3386,3.3386,3.3386,3.3386,3.3386,3.3386,3.3386,3.3386,3.3386,3.3386,3.3386,3.3386,3.3386,3.3386,3.3386,3.3323,3.308,3.2794,3.2635,3.2326,3.1974,3.1708,3.1612,3.1354,3.0726,3.0476,3.0183,2.9848,2.9283,2.9062,2.8856,2.8428,2.799,2.7981,2.7824,2.7766,2.7733,2.7699,2.7699,2.7733,2.7699,2.7666,2.7459,2.7267,2.72,2.7,2.6967,2.69,2.6708,2.6507,2.6398,2.6331,2.6306,2.6205,2.6104,2.6037,2.5936,2.5936,2.5869,2.5835,2.5566,2.5397,2.5397,2.5329,2.5221,2.5153,2.5127,2.5144,2.5247,2.5396,2.5602,2.5909,2.6208,2.642,2.6596,2.6757,2.6925,2.6991,2.6991,2.6991,2.6991,2.6991,2.6991,2.6991,2.6991,2.6991,2.6991,3.1103,3.1396,3.1494,3.1913,3.2549,3.2666,3.293,3.3281,3.3289,3.333,3.3386,3.3386,3.3386,3.3386,3.3386,3.3386,3.3386,3.3386,3.3386,3.3386,3.3386,3.3386,3.3386,3.3386,3.3386,3.3386,3.3386,3.3386,3.3386,3.3386,3.3386,3.3386,3.3386,3.3386,3.3386,3.3386,3.3386,3.3386,3.3386,3.3386,3.3386,3.3386,3.3386,3.3323,3.3175,3.2985,3.2826,3.2603,3.2326,3.2015,3.1983,3.1695,3.1212,3.0694,3.0402,3.0369,2.9783,2.9578,2.9447,2.8979,2.8584,2.8527,2.8461,2.8461,2.8461,2.8362,2.832,2.8296,2.8229,2.8097,2.7816,2.7625,2.7292,2.7026,2.6892,2.6666,2.644,2.6566,2.6599,2.6465,2.6164,2.5936,2.5895,2.5828,2.5734,2.5607,2.5566,2.5464,2.5228,2.5093,2.5161,2.5161,2.5127,2.5093,2.5093,2.51,2.521,2.5264,2.5461,2.5652,2.5879,2.5975,2.623,2.6669,2.6852,2.6888,2.6954,2.6991,2.6991,2.6991,2.6991,2.6991,2.6991,2.6991,2.6991,3.0937,3.1025,3.1337,3.1572,3.1777,3.2109,3.255,3.2861,3.29,3.3105,3.3347,3.3377,3.3357,3.3386,3.3386,3.3386,3.3386,3.3386,3.3386,3.3386,3.3386,3.3386,3.3386,3.3386,3.3386,3.3386,3.3386,3.3386,3.3386,3.3386,3.3386,3.3386,3.3386,3.3386,3.3386,3.3386,3.3386,3.3386,3.3386,3.3386,3.3386,3.3386,3.3386,3.3386,3.3292,3.3175,3.2953,3.2858,3.2667,3.2358,3.2335,3.223,3.1933,3.129,3.0815,3.0597,3.0393,3.0263,3.0133,2.9789,2.9593,2.9495,2.9307,2.9152,2.9078,2.8946,2.8872,2.8741,2.8551,2.8296,2.8196,2.8097,2.7923,2.7642,2.7476,2.7359,2.7067,2.6867,2.6666,2.6465,2.6063,2.5734,2.5801,2.5727,2.5566,2.5464,2.5363,2.5296,2.5161,2.5093,2.5093,2.5093,2.5093,2.5093,2.5093,2.5093,2.513,2.5144,2.5242,2.5337,2.5513,2.5551,2.5814,2.6231,2.6574,2.6676,2.6771,2.6903,2.6976,2.6969,2.6976,2.6991,2.6991,2.6991,2.6991,3.0928,3.0918,3.1113,3.1289,3.1533,3.1738,3.2101,3.2441,3.2511,3.2705,3.2998,3.3105,3.3223,3.3338,3.3386,3.3386,3.3386,3.3386,3.3386,3.3386,3.3386,3.3386,3.3386,3.3386,3.3386,3.3386,3.3386,3.3386,3.3386,3.3386,3.3386,3.3386,3.3386,3.3386,3.3386,3.3386,3.3386,3.3386,3.3386,3.3386,3.3386,3.3386,3.3386,3.3386,3.3386,3.3323,3.3238,3.3175,3.2985,3.2731,3.2667,3.2571,3.2316,3.2038,3.1612,3.1419,3.1258,3.1097,3.0912,3.0579,3.0319,3.01,2.997,2.9872,2.9848,2.9741,2.9602,2.9537,2.9299,2.9012,2.8856,2.8683,2.8378,2.8114,2.8015,2.7849,2.755,2.7318,2.7026,2.6666,2.6306,2.6071,2.5869,2.5734,2.5464,2.5296,2.5194,2.5161,2.5093,2.5093,2.5093,2.5093,2.5093,2.5093,2.5093,2.5093,2.5093,2.5093,2.5108,2.521,2.5254,2.5322,2.5486,2.58,2.6091,2.6303,2.6552,2.6676,2.68,2.6917,2.6917,2.6917,2.6969,2.6991,2.6969,3.0801,3.0928,3.0928,3.1084,3.1357,3.1367,3.1631,3.2003,3.2041,3.2306,3.2637,3.2685,3.2851,3.3115,3.3211,3.3289,3.3367,3.3386,3.3386,3.3386,3.3386,3.3386,3.3386,3.3386,3.3386,3.3386,3.3386,3.3386,3.3386,3.3386,3.3386,3.3386,3.3386,3.3386,3.3386,3.3386,3.3386,3.3386,3.3386,3.3386,3.3386,3.3386,3.3386,3.3386,3.3386,3.3386,3.3355,3.3355,3.3228,3.308,3.2985,3.2899,3.2635,3.2571,3.2571,3.254,3.2211,3.1891,3.1644,3.1396,3.117,3.0976,3.0847,3.0824,3.0759,3.0726,3.0532,3.0458,3.0124,2.9798,2.9545,2.9299,2.8938,2.8617,2.8494,2.8353,2.799,2.775,2.7584,2.7193,2.67,2.6432,2.6264,2.5936,2.57,2.5457,2.5397,2.5228,2.5161,2.5093,2.5093,2.5093,2.5093,2.5093,2.5093,2.5093,2.5093,2.5093,2.5093,2.5144,2.5137,2.5144,2.5322,2.5513,2.5586,2.582,2.6127,2.6405,2.6464,2.6566,2.6727,2.68,2.6778,2.6815,2.6837,3.0518,3.0928,3.0928,3.0928,3.0976,3.0996,3.1201,3.1562,3.1592,3.1836,3.2267,3.2276,3.2316,3.2451,3.2744,3.3057,3.324,3.3328,3.3308,3.3299,3.3357,3.3386,3.3386,3.3386,3.3386,3.3386,3.3386,3.3386,3.3386,3.3386,3.3386,3.3386,3.3386,3.3386,3.3386,3.3386,3.3386,3.3386,3.3386,3.3386,3.3386,3.3386,3.3386,3.3386,3.3386,3.3386,3.3386,3.3386,3.3323,3.3323,3.3313,3.3313,3.3292,3.326,3.326,3.3111,3.2762,3.2316,3.2243,3.2134,3.2038,3.191,3.1974,3.2134,3.1878,3.1525,3.117,3.0815,3.0555,3.0361,3.0304,3.0207,2.9839,2.9438,2.9143,2.8823,2.8428,2.8196,2.8023,2.775,2.7251,2.6992,2.6759,2.6331,2.5936,2.5734,2.5524,2.5363,2.5228,2.5161,2.5093,2.5093,2.5093,2.5093,2.5093,2.5093,2.5093,2.5093,2.5093,2.5093,2.5093,2.5093,2.5093,2.5213,2.5313,2.5459,2.5769,2.5996,2.6076,2.6208,2.6376,2.6464,2.6522,2.6581,2.6639,3.0469,3.0918,3.0928,3.0928,3.0928,3.0928,3.0986,3.1133,3.1172,3.1396,3.1738,3.1807,3.1954,3.2189,3.2413,3.2529,3.2734,3.2959,3.3066,3.3144,3.3262,3.3357,3.3386,3.3386,3.3386,3.3357,3.3386,3.3386,3.3386,3.3386,3.3386,3.3386,3.3386,3.3386,3.3386,3.3386,3.3386,3.3386,3.3386,3.3386,3.3386,3.3377,3.3367,3.3367,3.3357,3.3347,3.3347,3.3386,3.3386,3.3338,3.3242,3.3066,3.2998,3.2861,3.2695,3.2695,3.2488,3.2431,3.2603,3.267,3.2594,3.2453,3.2422,3.2358,3.2358,3.2157,3.1901,3.1782,3.1428,3.1179,3.0953,3.0791,3.0426,3.0068,2.9733,2.9373,2.8988,2.87,2.8469,2.8155,2.7841,2.7517,2.7185,2.6792,2.6432,2.6164,2.5861,2.5532,2.5363,2.5228,2.5161,2.5093,2.5093,2.5093,2.5093,2.5093,2.5093,2.5093,2.5093,2.5093,2.5093,2.5093,2.5093,2.5093,2.5173,2.5342,2.554,2.5637,2.5769,2.5893,2.6018,2.6105,2.6186,2.6244,2.6332,3.0576,3.0918,3.0928,3.0928,3.0928,3.0928,3.0928,3.0928,3.0937,3.1074,3.1289,3.1387,3.1611,3.1934,3.2012,3.209,3.2247,3.2531,3.2648,3.2773,3.292,3.3037,3.2998,3.3047,3.3115,3.324,3.3203,3.3291,3.3367,3.3386,3.3386,3.3386,3.3386,3.3386,3.3386,3.3367,3.3347,3.3203,3.3213,3.3164,3.3066,3.3047,3.3057,3.3076,3.3105,3.3115,3.3115,3.3076,3.3057,3.2988,3.2803,3.2667,3.2619,3.2472,3.2325,3.2325,3.2244,3.2337,3.2589,3.2717,3.2764,3.2702,3.2635,3.2731,3.2699,3.2603,3.2508,3.2412,3.2134,3.1846,3.1589,3.1299,3.0944,3.062,3.0254,2.9929,2.9585,2.9206,2.8937,2.8683,2.8345,2.794,2.7584,2.7218,2.6885,2.6625,2.6231,2.5734,2.5464,2.5262,2.5161,2.5093,2.5093,2.5093,2.5093,2.5093,2.5093,2.5093,2.5093,2.5093,2.5093,2.5093,2.5093,2.5093,2.5093,2.5159,2.532,2.5381,2.5469,2.5527,2.56,2.5754,2.5849,2.5908,2.6039,3.0859,3.0928,3.0928,3.0928,3.0928,3.0928,3.0928,3.0928,3.0928,3.0947,3.0996,3.0986,3.1221,3.1475,3.1601,3.1758,3.2149,3.2218,3.2237,3.2247,3.2296,3.2413,3.2452,3.2501,3.2529,3.2793,3.2842,3.3047,3.3271,3.3193,3.3269,3.3377,3.3281,3.3328,3.3289,3.3184,3.3066,3.29,3.2832,3.2666,3.2501,3.2404,3.2394,3.2374,3.2325,3.2286,3.2296,3.2394,3.2443,3.2412,3.2306,3.2237,3.2208,3.2071,3.1983,3.1973,3.1983,3.2069,3.2252,3.2562,3.2924,3.3177,3.3182,3.2991,3.2911,3.2888,3.2851,3.2682,3.2302,3.2092,3.1894,3.1763,3.1203,3.086,3.0436,3.0156,2.9866,2.9628,2.9347,2.9191,2.8847,2.8328,2.7981,2.7584,2.7159,2.6892,2.6331,2.5835,2.5431,2.5194,2.5127,2.5093,2.5093,2.5093,2.5093,2.5093,2.5093,2.5093,2.5093,2.5093,2.5093,2.5093,2.5093,2.5093,2.5093,2.5093,2.51,2.5183,2.5235,2.5173,2.5232,2.5403,2.5564,2.5652,2.5798,3.0928,3.0928,3.0928,3.0928,3.0928,3.0928,3.0928,3.0928,3.0928,3.0928,3.0928,3.0937,3.0976,3.1103,3.1133,3.1211,3.1416,3.168,3.1728,3.1915,3.2022,3.2169,3.2198,3.2169,3.2306,3.2413,3.2452,3.2472,3.2598,3.2765,3.2656,3.2695,3.2881,3.2812,3.2754,3.2755,3.2619,3.2521,3.2433,3.2325,3.2276,3.2198,3.2198,3.2198,3.2198,3.2198,3.2218,3.2208,3.2198,3.211,3.1925,3.1837,3.1749,3.1572,3.1504,3.1485,3.1475,3.1572,3.1826,3.2148,3.248,3.2559,3.2637,3.2685,3.2744,3.2552,3.2471,3.2328,3.2178,3.1956,3.1757,3.1396,3.0943,3.0729,3.0532,3.0284,3.0026,2.9793,2.9567,2.9325,2.9008,2.8619,2.8278,2.7981,2.7517,2.7093,2.6499,2.5936,2.5532,2.5194,2.5127,2.5093,2.5093,2.5093,2.5093,2.5093,2.5093,2.5093,2.5093,2.5093,2.5093,2.5093,2.5093,2.5093,2.5093,2.5093,2.5093,2.5093,2.5093,2.51,2.5108,2.5166,2.5271,2.5403,2.5535,3.0928,3.0928,3.0928,3.0928,3.0928,3.0928,3.0928,3.0928,3.0928,3.0928,3.0928,3.0928,3.0928,3.0928,3.0937,3.0918,3.1035,3.1201,3.1299,3.1426,3.1592,3.1807,3.1817,3.1807,3.1788,3.1954,3.2022,3.2052,3.2286,3.2208,3.2159,3.2148,3.2236,3.2226,3.2335,3.2189,3.2149,3.2032,3.2003,3.1895,3.1837,3.1778,3.1768,3.1758,3.1729,3.1729,3.171,3.169,3.1719,3.1611,3.1494,3.1328,3.123,3.1084,3.0957,3.0928,3.0957,3.1055,3.1357,3.1836,3.2169,3.2306,3.2286,3.2267,3.2189,3.2189,3.2255,3.2225,3.1973,3.1713,3.1632,3.1328,3.0996,3.0801,3.0565,3.0303,3.0044,2.9758,2.9609,2.9395,2.9038,2.8618,2.8137,2.7743,2.73,2.6884,2.6465,2.5962,2.5633,2.5296,2.5093,2.5093,2.5093,2.5093,2.5093,2.5093,2.5093,2.5093,2.5093,2.5093,2.5093,2.5093,2.5093,2.5093,2.5093,2.5093,2.5093,2.5093,2.5093,2.5093,2.51,2.5108,2.5137,2.5227,2.5283,3.0928,3.0928,3.0928,3.0928,3.0928,3.0928,3.0928,3.0928,3.0928,3.0928,3.0928,3.0928,3.0928,3.0928,3.0928,3.0928,3.0928,3.0976,3.0976,3.1045,3.1113,3.1064,3.1064,3.1143,3.1309,3.1484,3.1553,3.1719,3.2071,3.1973,3.1797,3.1621,3.1631,3.1748,3.213,3.2179,3.1964,3.1601,3.1543,3.1338,3.1162,3.1133,3.1123,3.1133,3.1172,3.1172,3.1211,3.1201,3.1221,3.1143,3.1103,3.1025,3.0976,3.0986,3.0928,3.0928,3.0928,3.0947,3.1016,3.1739,3.1983,3.1993,3.1895,3.1954,3.2091,3.212,3.2022,3.1846,3.1902,3.1809,3.1685,3.1432,3.106,3.0769,3.0487,3.0193,2.9889,2.9603,2.9433,2.9284,2.8949,2.8512,2.7936,2.7401,2.6971,2.658,2.6306,2.6007,2.5685,2.545,2.5252,2.5228,2.5228,2.5161,2.5161,2.5093,2.5093,2.5093,2.5093,2.5093,2.5093,2.5093,2.5093,2.5093,2.5093,2.5093,2.5093,2.5093,2.5093,2.5093,2.5093,2.51,2.5093,2.5108,2.5159,3.0928,3.0928,3.0928,3.0928,3.0928,3.0928,3.0928,3.0928,3.0928,3.0928,3.0928,3.0928,3.0928,3.0928,3.0928,3.0928,3.0928,3.0928,3.0928,3.0928,3.0928,3.0928,3.0928,3.0918,3.0976,3.1064,3.1133,3.1182,3.1319,3.1446,3.1338,3.1113,3.1172,3.1172,3.1279,3.1318,3.1231,3.1123,3.1094,3.1025,3.0937,3.0928,3.0928,3.0928,3.0928,3.0928,3.0928,3.0928,3.0928,3.0928,3.0928,3.0928,3.0928,3.0928,3.0928,3.0928,3.0928,3.0928,3.0918,3.1221,3.1319,3.1377,3.1436,3.1446,3.1367,3.1348,3.1348,3.1397,3.1475,3.1327,3.1151,3.0865,3.0589,3.043,3.0164,2.9845,2.9566,2.9314,2.9137,2.9074,2.8849,2.8355,2.7812,2.728,2.6799,2.6375,2.608,2.6035,2.5835,2.5654,2.5485,2.5476,2.5431,2.5296,2.5221,2.5214,2.5184,2.5194,2.5127,2.5093,2.5093,2.5093,2.5093,2.5093,2.5093,2.5093,2.5093,2.5093,2.5093,2.5093,2.5093,2.5093,2.5093,2.5093,2.5108,3.0928,3.0928,3.0928,3.0928,3.0928,3.0928,3.0928,3.0928,3.0928,3.0928,3.0928,3.0928,3.0928,3.0928,3.0928,3.0928,3.0928,3.0928,3.0928,3.0928,3.0928,3.0928,3.0928,3.0928,3.0918,3.0928,3.0928,3.0957,3.1006,3.0947,3.0957,3.0967,3.0928,3.0986,3.0967,3.0986,3.0976,3.0937,3.0947,3.0928,3.0928,3.0928,3.0928,3.0928,3.0928,3.0928,3.0928,3.0928,3.0928,3.0928,3.0928,3.0928,3.0928,3.0928,3.0928,3.0928,3.0928,3.0928,3.0918,3.0918,3.1035,3.1016,3.0928,3.0928,3.0928,3.1016,3.1006,3.0986,3.0928,3.0937,3.0889,3.0577,3.0489,3.0382,3.0176,2.9871,2.9535,2.9305,2.9154,2.908,2.8755,2.8219,2.7651,2.7187,2.6688,2.629,2.5897,2.5928,2.5921,2.5705,2.5535,2.5527,2.5497,2.5345,2.53,2.536,2.5327,2.5266,2.5218,2.5166,2.5093,2.5093,2.5093,2.5093,2.5093,2.5127,2.5093,2.5093,2.5093,2.5093,2.5093,2.5093,2.5093,2.5093,2.5093,3.0928,3.0928,3.0928,3.0928,3.0928,3.0928,3.0928,3.0928,3.0928,3.0928,3.0928,3.0928,3.0928,3.0928,3.0928,3.0928,3.0928,3.0928,3.0928,3.0928,3.0928,3.0928,3.0928,3.0928,3.0928,3.0928,3.0928,3.0928,3.0928,3.0928,3.0928,3.0928,3.0928,3.0928,3.0928,3.0928,3.0928,3.0928,3.0928,3.0928,3.0928,3.0928,3.0928,3.0928,3.0928,3.0928,3.0928,3.0928,3.0928,3.0928,3.0928,3.0928,3.0928,3.0928,3.0928,3.0928,3.0928,3.0928,3.0928,3.0928,3.0928,3.0928,3.0928,3.0928,3.0928,3.0928,3.0928,3.0928,3.0928,3.0928,3.0859,3.0801,3.0743,3.0587,3.0421,3.0069,2.9725,2.9498,2.932,2.9097,2.8727,2.8215,2.75,2.6986,2.6753,2.6319,2.5982,2.5878,2.5834,2.5552,2.5427,2.538,2.535,2.5357,2.536,2.5391,2.5327,2.5244,2.5323,2.5289,2.5215,2.5169,2.5297,2.533,2.5172,2.5127,2.5127,2.5093,2.5093,2.5093,2.5093,2.5093,2.5093,2.5093,2.5093,3.0928,3.0928,3.0928,3.0928,3.0928,3.0928,3.0928,3.0928,3.0928,3.0928,3.0928,3.0928,3.0928,3.0928,3.0928,3.0928,3.0928,3.0928,3.0928,3.0928,3.0928,3.0928,3.0928,3.0928,3.0928,3.0928,3.0928,3.0928,3.0928,3.0928,3.0928,3.0928,3.0928,3.0928,3.0928,3.0928,3.0928,3.0928,3.0928,3.0928,3.0928,3.0928,3.0928,3.0928,3.0928,3.0928,3.0928,3.0928,3.0928,3.0928,3.0928,3.0928,3.0928,3.0928,3.0928,3.0928,3.0928,3.0928,3.0928,3.0928,3.0928,3.0928,3.0928,3.0928,3.0928,3.0928,3.0928,3.0928,3.0928,3.0928,3.0928,3.0859,3.083,3.0733,3.0577,3.0333,2.9981,2.9745,2.9568,2.9242,2.8865,2.8298,2.7578,2.715,2.6919,2.643,2.6133,2.5988,2.5848,2.5588,2.5486,2.5476,2.5498,2.5561,2.5332,2.53,2.5248,2.5237,2.5373,2.5462,2.5372,2.5396,2.5575,2.5546,2.5349,2.5211,2.5119,2.5131,2.52,2.5146,2.5127,2.5093,2.5093,2.5093,2.5093,3.0928,3.0928,3.0928,3.0928,3.0928,3.0928,3.0928,3.0928,3.0928,3.0928,3.0928,3.0928,3.0928,3.0928,3.0928,3.0928,3.0928,3.0928,3.0928,3.0928,3.0928,3.0928,3.0928,3.0928,3.0928,3.0928,3.0928,3.0928,3.0928,3.0928,3.0928,3.0928,3.0928,3.0928,3.0928,3.0928,3.0928,3.0928,3.0928,3.0928,3.0928,3.0928,3.0928,3.0928,3.0928,3.0928,3.0928,3.0928,3.0928,3.0928,3.0928,3.0928,3.0928,3.0928,3.0928,3.0928,3.0928,3.0928,3.0928,3.0928,3.0928,3.0928,3.0928,3.0928,3.0928,3.0928,3.0928,3.0928,3.0928,3.0928,3.0928,3.0928,3.0928,3.0889,3.0733,3.0548,3.0304,3.0059,2.9765,2.945,2.8975,2.8448,2.7938,2.7539,2.7146,2.6792,2.6479,2.6225,2.6076,2.5906,2.5802,2.5805,2.58,2.5817,2.5604,2.5515,2.5585,2.5639,2.5683,2.5694,2.5576,2.5466,2.5462,2.5472,2.5434,2.5333,2.5223,2.5316,2.5368,2.5275,2.5323,2.5386,2.5326,2.5161,2.5161,3.0928,3.0928,3.0928,3.0928,3.0928,3.0928,3.0928,3.0928,3.0928,3.0928,3.0928,3.0928,3.0928,3.0928,3.0928,3.0928,3.0928,3.0928,3.0928,3.0928,3.0928,3.0928,3.0928,3.0928,3.0928,3.0928,3.0928,3.0928,3.0928,3.0928,3.0928,3.0928,3.0928,3.0928,3.0928,3.0928,3.0928,3.0928,3.0928,3.0928,3.0928,3.0928,3.0928,3.0928,3.0928,3.0928,3.0928,3.0928,3.0928,3.0928,3.0928,3.0928,3.0928,3.0928,3.0928,3.0928,3.0928,3.0928,3.0928,3.0928,3.0928,3.0928,3.0928,3.0928,3.0928,3.0928,3.0928,3.0928,3.0928,3.0928,3.0928,3.0928,3.0928,3.0928,3.083,3.0704,3.0548,3.0304,3.001,2.9656,2.9242,2.8737,2.8448,2.805,2.7659,2.7276,2.7034,2.6722,2.6579,2.6422,2.6258,2.6224,2.6029,2.6081,2.6178,2.6121,2.6108,2.6119,2.6064,2.5969,2.5857,2.5607,2.5267,2.5438,2.5616,2.5443,2.5373,2.5368,2.5418,2.5532,2.5564,2.5725,2.5603,2.536,2.5199,3.0928,3.0928,3.0928,3.0928,3.0928,3.0928,3.0928,3.0928,3.0928,3.0928,3.0928,3.0928,3.0928,3.0928,3.0928,3.0928,3.0928,3.0928,3.0928,3.0928,3.0928,3.0928,3.0928,3.0928,3.0928,3.0928,3.0928,3.0928,3.0928,3.0928,3.0928,3.0928,3.0928,3.0928,3.0928,3.0928,3.0928,3.0928,3.0928,3.0928,3.0928,3.0928,3.0928,3.0928,3.0928,3.0928,3.0928,3.0928,3.0928,3.0928,3.0928,3.0928,3.0928,3.0928,3.0928,3.0928,3.0928,3.0928,3.0928,3.0928,3.0928,3.0928,3.0928,3.0928,3.0928,3.0928,3.0928,3.0928,3.0928,3.0928,3.0928,3.0928,3.0928,3.0928,3.0928,3.083,3.0762,3.0489,3.0216,2.9863,2.947,2.9153,2.8865,2.8537,2.8178,2.7938,2.781,2.7629,2.753,2.7366,2.6982,2.6812,2.6269,2.6252,2.6516,2.6667,2.6646,2.6436,2.6323,2.622,2.6178,2.5968,2.5747,2.576,2.5797,2.5662,2.5493,2.5254,2.5321,2.571,2.5739,2.5824,2.5743,2.5527,2.5342,3.0449,3.0605,3.081,3.0928,3.0928,3.0928,3.0928,3.0928,3.0928,3.0928,3.0928,3.0928,3.0928,3.0928,3.0928,3.0928,3.0928,3.0928,3.0928,3.0928,3.0928,3.0928,3.0928,3.0928,3.0928,3.0928,3.0928,3.0928,3.0928,3.0928,3.0928,3.0928,3.0928,3.0928,3.0928,3.0928,3.0928,3.0928,3.0928,3.0928,3.0928,3.0928,3.0928,3.0928,3.0928,3.0928,3.0928,3.0928,3.0928,3.0928,3.0928,3.0928,3.0928,3.0928,3.0928,3.0928,3.0928,3.0928,3.0928,3.0928,3.0928,3.0928,3.0928,3.0928,3.0928,3.0928,3.0928,3.0928,3.0928,3.0928,3.0928,3.0928,3.0928,3.0928,3.0928,3.0889,3.0762,3.0577,3.0362,3.0177,2.9824,2.9509,2.9222,2.8925,2.8567,2.8247,2.8178,2.808,2.8071,2.825,2.787,2.7569,2.7168,2.6978,2.7258,2.7276,2.7141,2.6891,2.6645,2.6605,2.6568,2.6405,2.6255,2.6171,2.6078,2.5975,2.5771,2.5596,2.5881,2.6392,2.6174,2.5941,2.5808,2.5739,2.5568,2.9833,3.0166,3.0537,3.0713,3.0752,3.0713,3.0761,3.0781,3.0791,3.083,3.0928,3.0928,3.0928,3.0928,3.0928,3.0928,3.0928,3.0928,3.0928,3.0928,3.0928,3.0928,3.0928,3.0928,3.0928,3.0928,3.0928,3.0928,3.0928,3.0928,3.0928,3.0928,3.0928,3.0928,3.0928,3.0928,3.0928,3.0928,3.0928,3.0928,3.0928,3.0928,3.0928,3.0928,3.0928,3.0928,3.0928,3.0928,3.0928,3.0928,3.0928,3.0928,3.0928,3.0928,3.0928,3.0928,3.0928,3.0928,3.0928,3.0928,3.0928,3.0928,3.0928,3.0928,3.0928,3.0928,3.0928,3.0928,3.0928,3.0928,3.0928,3.0928,3.0928,3.0928,3.0928,3.0928,3.0772,3.0674,3.0548,3.045,3.0186,2.9863,2.9627,2.9302,2.9014,2.8696,2.8478,2.8349,2.837,2.8668,2.8698,2.8588,2.84,2.828,2.811,2.7921,2.7732,2.75,2.725,2.7138,2.6999,2.6886,2.6745,2.6491,2.6402,2.635,2.6354,2.6289,2.6635,2.6856,2.6402,2.6015,2.6168,2.6064,2.5823,2.9637,2.9725,2.9823,2.9872,2.9872,2.9872,3.0038,3.0293,3.0361,3.0518,3.0791,3.0898,3.0928,3.0918,3.0928,3.0928,3.0928,3.0928,3.0928,3.0928,3.0928,3.0928,3.0928,3.0928,3.0928,3.0928,3.0928,3.0928,3.0928,3.0928,3.0928,3.0928,3.0928,3.0928,3.0928,3.0928,3.0928,3.0928,3.0928,3.0928,3.0928,3.0928,3.0928,3.0928,3.0928,3.0928,3.0928,3.0928,3.0928,3.0928,3.0928,3.0928,3.0928,3.0928,3.0928,3.0928,3.0928,3.0928,3.0928,3.0928,3.0928,3.0928,3.0928,3.0928,3.0928,3.0928,3.0928,3.0928,3.0928,3.0928,3.0928,3.0928,3.0928,3.0928,3.0928,3.0928,3.0859,3.083,3.0801,3.0665,3.048,3.0274,3.0157,2.9892,2.9686,2.9429,2.94,2.9263,2.9203,2.9351,2.945,2.942,2.937,2.8984,2.8567,2.8519,2.8361,2.8131,2.7921,2.7861,2.7711,2.7461,2.7272,2.7069,2.6896,2.6846,2.6836,2.6912,2.6728,2.677,2.6368,2.6122,2.6344,2.6422,2.6251]},{"header":{"parameterUnit":"m.s-1","parameterCategory":1,"la1":31.0,"la2":29.5877,"lo1":-88.7671,"lo2":-86.6584,"dy":0.0162,"dx":0.0185,"nx":115,"ny":88,"refTime":"2023-05-20T12:00:00:Z","depth":0,"parameterNumber":3,"parameterNumberName":"V-component_of_WINDS"},"data":[0.0,0.0,0.0,0.0,0.0,0.0,0.0,0.0,0.0,0.0,0.0,0.0,0.0,0.0,0.0,0.0,0.0,0.0,0.0,0.0,0.0,0.0,0.0,0.0,0.0,0.0,0.0,0.0,0.0,0.0,0.0,0.0,0.0,0.0,0.0,0.0,0.0,0.0,0.0,0.0,0.0,0.0,0.0,0.0,0.0,0.0,0.0,0.0,0.0,0.0,0.0,0.0,0.0,0.0,0.0,0.0,0.0,0.0,0.0,0.0,0.0,0.0,0.0,0.0,0.0,0.0,0.0,0.0,0.0,0.0,0.0,0.0,0.0,0.0,0.0,0.0,0.0,0.0,0.0,0.0,0.0,0.0,0.0,0.0,0.0,0.0,0.0,0.0,0.0,0.0,0.0,0.0,0.0,0.0,0.0,0.0,0.0,0.0,0.0,0.0,0.0,0.0,0.0,0.0,0.0,0.0,0.0,0.0,0.0,0.0,0.0,0.0,0.0,0.0,0.0,0.0,0.0,0.0,0.0,0.0,0.0,0.0,0.0,0.0,0.0,0.0,0.0,0.0,0.0,0.0,0.0,0.0,0.0,0.0,0.0,0.0,0.0,0.0,0.0,0.0,0.0,0.0,0.0,0.0,0.0,0.0,0.0,0.0,0.0,0.0,0.0,0.0,0.0,0.0,0.0,0.0,0.0,0.0,0.0,0.0,0.0,0.0,0.0,0.0,0.0,0.0,0.0,0.0,0.0,0.0,0.0,0.0,0.0,0.0,0.0,0.0,0.0,0.0,0.0,0.0,0.0,0.0,0.0,0.0,0.0,0.0,0.0,0.0,0.0,0.0,0.0,0.0,0.0,0.0,0.0,0.0,0.0,0.0,0.0,0.0,0.0,0.0,0.0,0.0,0.0,0.0,0.0,0.0,0.0,0.0,0.0,0.0,0.0,0.0,0.0,0.0,0.0,0.0,0.0,0.0,0.0,0.0,0.0,0.0,0.0,0.0,0.0,0.0,0.0,0.0,0.0,0.0,0.0,0.0,0.0,0.0,0.0,0.0,0.0,0.0,0.0,0.0,0.0,0.0,0.0,0.0,0.0,0.0,0.0,0.0,0.0,0.0,0.0,0.0,0.0,0.0,0.0,0.0,0.0,0.0,0.0,0.0,0.0,0.0,0.0,0.0,0.0,0.0,0.0,0.0,0.0,0.0,0.0,0.0,0.0,0.0,0.0,0.0,0.0,0.0,0.0,0.0,0.0,0.0,0.0,0.0,0.0,0.0,0.0,0.0,0.0,0.0,0.0,0.0,0.0,0.0,0.0,0.0,0.0,0.0,0.0,0.0,0.0,0.0,0.0,0.0,0.0,0.0,0.0,0.0,0.0,0.0,0.0,0.0,0.0,0.0,0.0,0.0,0.0,0.0,0.0,0.0,0.0,0.0,0.0,0.0,0.0,0.0,0.0,0.0,0.0,0.0,0.0,0.0,0.0,0.0,0.0,0.0,0.0,0.0,0.0,0.0,0.0,0.0,0.0,0.0,0.0,0.0,0.0,0.0,0.0,0.0,0.0,0.0,0.0,0.0,0.0,0.0,0.0,0.0,0.0,0.0,0.0,0.0,0.0,0.0,0.0,0.0,0.0,0.0,0.0,0.0,0.0,0.0,0.0,0.0,0.0,0.0,0.0,0.0,0.0,0.0,0.0,0.0,0.0,0.0,0.0,0.0,0.0,0.0,0.0,0.0,0.0,0.0,0.0,0.0,0.0,0.0,0.0,0.0,0.0,0.0,0.0,0.0,0.0,0.0,0.0,0.0,0.0,0.0,0.0,0.0,0.0,0.0,0.0,0.0,0.0,0.0,0.0,0.0,0.0,0.0,0.0,0.0,0.0,0.0,0.0,0.0,0.0,0.0,0.0,0.0,0.0,0.0,0.0,0.0,0.0,0.0,0.0,0.0,0.0,0.0,0.0,0.0,0.0,0.0,0.0,0.0,0.0,0.0,0.0,0.0,0.0,0.0,0.0,0.0,0.0,0.0,0.0,0.0,0.0,0.0,0.0,0.0,0.0,0.0,0.0,0.0,0.0,0.0,0.0,0.0,0.0,0.0,0.0,0.0,0.0,0.0,0.0,0.0,0.0,0.0,0.0,0.0,0.0,0.0,0.0,0.0,0.0,0.0,0.0,0.0,0.0,0.0,0.0,0.0,0.0,0.0,0.0,0.0,0.0,0.0,0.0,0.0,0.0,0.0,0.0,0.0,0.0,0.0,0.0,0.0,0.0,0.0,0.0,0.0,0.0,0.0,0.0,0.0,0.0,0.0,0.0,0.0,0.0,0.0,0.0,0.0,0.0,0.0,0.0,0.0,0.0,0.0,0.0,0.0,0.0,0.0,0.0,0.0,0.0,0.0,0.0,0.0,0.0,0.0,0.0,0.0,0.0,0.0,0.0,0.0,0.0,0.0,0.0,0.0,0.0,0.0,0.0,0.0,0.0,0.0,0.0,0.0,0.0,0.0,0.0,0.0,0.0,0.0,0.0,0.0,0.0,0.0,0.0,0.0,0.0,0.0,0.0,0.0,0.0,0.0,0.0,0.0,0.0,0.0,0.0,0.0,0.0,0.0,0.0,0.0,0.0,0.0,0.0,0.0,0.0,0.0,0.0,0.0,0.0,0.0,0.0,0.0,0.0,0.0,0.0,0.0,0.0,0.0,0.0,0.0,0.0,0.0,0.0,0.0,0.0,0.0,0.0,0.0,0.0,0.0,0.0,0.0,0.0,0.0,0.0,0.0,0.0,0.0,0.0,0.0,0.0,0.0,0.0,0.0,0.0,0.0,0.0,0.0,0.0,0.0,0.0,0.0,0.0,0.0,0.0,0.0,0.0,0.0,0.0,0.0,0.0,0.0,0.0,0.0,0.0,0.0,0.0,0.0,0.0,0.0,0.0,0.0,0.0,0.0,0.0,0.0,0.0,0.0,0.0,0.0,0.0,0.0,0.0,0.0,0.0,0.0,0.0,0.0,0.0,0.0,0.0,0.0,0.0,0.0,0.0,0.0,0.0,0.0,0.0,0.0,0.0,0.0,0.0,0.0,0.0,0.0,0.0,0.0,0.0,0.0,0.0,0.0,0.0,0.0,0.0,0.0,0.0,0.0,0.0,0.0,0.0,0.0,0.0,0.0,0.0,0.0,0.0,0.0,0.0,0.0,0.0,0.0,0.0,0.0,0.0,0.0,0.0,0.0,0.0,0.0,0.0,0.0,0.0,0.0,0.0,0.0,0.0,0.0,0.0,0.0,0.0,0.0,0.0,0.0,0.0,0.0,0.0,0.0,0.0,0.0,0.0,0.0,0.0,0.0,0.0,0.0,0.0,0.0,0.0,0.0,0.0,0.0,0.0,0.0,0.0,0.0,0.0,0.0,0.0,0.0,0.0,0.0,0.0,0.0,0.0,0.0,0.0,0.0,0.0,0.0,0.0,0.0,0.0,0.0,0.0,0.0,0.0,0.0,0.0,0.0,0.0,0.0,0.0,0.0,0.0,0.0,0.0,0.0,0.0,0.0,0.0,0.0,0.0,0.0,0.0,0.0,0.0,0.0,0.0,0.0,0.0,0.0,0.0,0.0,0.0,0.0,0.0,0.0,0.0,0.0,0.0,0.0,0.0,0.0,0.0,0.0,0.0,0.0,0.0,0.0,0.0,0.0,0.0,0.0,0.0,0.0,0.0,0.0,0.0,0.0,0.0,0.0,0.0,0.0,0.0,0.0,0.0,0.0,0.0,0.0,0.0,0.0,0.0,0.0,0.0,0.0,0.0,0.0,0.0,0.0,0.0,0.0,0.0,0.0,0.0,0.0,0.0,0.0,0.0,0.0,0.0,0.0,0.0,0.0,0.0,0.0,0.0,0.0,0.0,0.0,0.0,0.0,0.0,0.0,0.0,0.0,0.0,0.0,0.0,0.0,0.0,0.0,0.0,0.0,0.0,0.0,0.0,0.0,0.0,0.0,0.0,0.0,0.0,0.0,0.0,0.0,0.0,0.0,0.0,0.0,0.0,0.0,0.0,0.0,0.0,0.0,0.0,0.0,0.0,0.0,0.0,0.0,0.0,0.0,0.0,0.0,0.0,0.0,0.0,0.0,0.0,0.0,0.0,0.0,0.0,0.0,0.0,0.0,0.0,0.0,0.0,0.0,0.0,0.0,0.0,0.0,0.0,0.0,0.0,0.0,0.0,0.0,0.0,0.0,0.0,0.0,0.0,0.0,0.0,0.0,0.0,0.0,0.0,0.0,3.1259,0.0,0.0,0.0,0.0,0.0,0.0,0.0,0.0,0.0,0.0,0.0,0.0,0.0,0.0,0.0,0.0,0.0,0.0,0.0,0.0,0.0,0.0,0.0,0.0,0.0,0.0,0.0,0.0,0.0,0.0,0.0,0.0,0.0,0.0,0.0,0.0,0.0,0.0,0.0,0.0,0.0,0.0,0.0,0.0,0.0,0.0,0.0,0.0,0.0,0.0,0.0,0.0,0.0,0.0,0.0,0.0,0.0,0.0,0.0,0.0,0.0,0.0,0.0,0.0,0.0,0.0,0.0,0.0,0.0,0.0,0.0,0.0,0.0,0.0,0.0,0.0,0.0,0.0,0.0,0.0,0.0,0.0,0.0,0.0,0.0,0.0,0.0,0.0,0.0,0.0,0.0,0.0,0.0,0.0,0.0,0.0,0.0,0.0,0.0,0.0,0.0,0.0,0.0,0.0,0.0,0.0,0.0,0.0,0.0,0.0,3.1868,3.2231,3.1983,3.1702,3.1402,0.0,0.0,0.0,0.0,0.0,0.0,0.0,0.0,0.0,0.0,0.0,0.0,0.0,0.0,0.0,0.0,0.0,0.0,0.0,0.0,0.0,0.0,0.0,0.0,0.0,0.0,0.0,0.0,0.0,0.0,0.0,0.0,0.0,0.0,0.0,0.0,0.0,0.0,0.0,0.0,0.0,0.0,0.0,0.0,0.0,0.0,0.0,0.0,0.0,0.0,0.0,0.0,0.0,0.0,0.0,0.0,0.0,0.0,0.0,0.0,0.0,0.0,0.0,0.0,0.0,0.0,0.0,0.0,0.0,0.0,0.0,0.0,0.0,0.0,0.0,0.0,0.0,0.0,0.0,0.0,0.0,0.0,0.0,0.0,0.0,0.0,0.0,0.0,0.0,0.0,0.0,0.0,0.0,0.0,0.0,0.0,0.0,0.0,0.0,0.0,0.0,0.0,0.0,0.0,0.0,0.0,0.0,0.0,0.0,0.0,0.0,0.0,3.2485,3.2096,3.1424,0.0,0.0,0.0,0.0,0.0,0.0,0.0,0.0,0.0,0.0,0.0,0.0,0.0,0.0,0.0,0.0,0.0,0.0,0.0,0.0,0.0,0.0,0.0,0.0,0.0,0.0,0.0,0.0,0.0,0.0,0.0,0.0,0.0,0.0,0.0,0.0,0.0,0.0,0.0,0.0,0.0,0.0,0.0,0.0,0.0,0.0,0.0,0.0,0.0,0.0,0.0,0.0,0.0,0.0,0.0,0.0,0.0,0.0,0.0,0.0,0.0,0.0,0.0,0.0,0.0,0.0,0.0,0.0,0.0,0.0,0.0,0.0,0.0,0.0,0.0,0.0,0.0,0.0,0.0,0.0,0.0,0.0,0.0,0.0,0.0,0.0,0.0,0.0,0.0,0.0,0.0,0.0,0.0,0.0,0.0,0.0,0.0,0.0,0.0,0.0,0.0,0.0,0.0,0.0,0.0,0.0,0.0,0.0,0.0,0.0,3.3303,3.3899,3.3397,0.0,3.1446,0.0,0.0,0.0,0.0,0.0,0.0,0.0,0.0,0.0,0.0,0.0,0.0,0.0,0.0,0.0,0.0,0.0,0.0,0.0,0.0,0.0,0.0,0.0,0.0,0.0,0.0,0.0,0.0,0.0,0.0,0.0,0.0,0.0,0.0,0.0,0.0,0.0,0.0,0.0,0.0,0.0,0.0,0.0,0.0,0.0,0.0,0.0,0.0,0.0,0.0,0.0,0.0,0.0,0.0,0.0,0.0,0.0,0.0,0.0,0.0,0.0,0.0,0.0,0.0,0.0,0.0,0.0,0.0,0.0,0.0,0.0,0.0,0.0,0.0,0.0,0.0,0.0,0.0,0.0,0.0,0.0,0.0,0.0,0.0,0.0,0.0,0.0,0.0,0.0,0.0,0.0,0.0,0.0,0.0,0.0,0.0,0.0,0.0,0.0,0.0,0.0,0.0,0.0,0.0,0.0,0.0,0.0,0.0,0.0,0.0,3.3825,3.4088,3.351,3.2812,0.0,0.0,0.0,0.0,0.0,0.0,0.0,0.0,0.0,0.0,0.0,0.0,0.0,0.0,0.0,0.0,0.0,0.0,0.0,0.0,0.0,0.0,0.0,0.0,0.0,0.0,0.0,0.0,0.0,0.0,0.0,0.0,0.0,0.0,0.0,0.0,0.0,0.0,0.0,0.0,0.0,0.0,0.0,0.0,0.0,0.0,0.0,0.0,0.0,0.0,0.0,0.0,0.0,0.0,0.0,0.0,0.0,0.0,0.0,0.0,0.0,0.0,0.0,0.0,0.0,0.0,0.0,0.0,0.0,0.0,0.0,0.0,0.0,0.0,0.0,0.0,0.0,0.0,0.0,0.0,0.0,0.0,0.0,0.0,0.0,0.0,0.0,0.0,0.0,0.0,0.0,0.0,0.0,0.0,0.0,0.0,0.0,0.0,0.0,0.0,0.0,0.0,0.0,0.0,0.0,0.0,0.0,0.0,0.0,0.0,3.3841,3.4088,3.4068,3.3506,3.2895,3.2312,0.0,0.0,0.0,0.0,0.0,0.0,0.0,0.0,0.0,0.0,0.0,0.0,0.0,0.0,0.0,0.0,0.0,0.0,0.0,0.0,0.0,0.0,0.0,0.0,0.0,0.0,0.0,0.0,0.0,0.0,0.0,0.0,0.0,0.0,0.0,0.0,0.0,0.0,0.0,0.0,0.0,0.0,0.0,0.0,0.0,0.0,0.0,0.0,0.0,0.0,0.0,0.0,0.0,0.0,0.0,0.0,0.0,0.0,0.0,0.0,0.0,0.0,0.0,0.0,0.0,0.0,0.0,0.0,0.0,0.0,0.0,0.0,0.0,0.0,0.0,0.0,0.0,0.0,0.0,0.0,0.0,0.0,0.0,0.0,0.0,0.0,0.0,0.0,0.0,0.0,0.0,0.0,0.0,0.0,0.0,0.0,0.0,0.0,0.0,0.0,0.0,0.0,0.0,0.0,0.0,0.0,0.0,0.0,3.3987,3.4084,3.4088,3.4084,3.3449,3.2844,0.0,0.0,0.0,0.0,0.0,0.0,0.0,0.0,0.0,0.0,0.0,0.0,0.0,0.0,0.0,0.0,0.0,0.0,0.0,0.0,0.0,0.0,0.0,0.0,0.0,0.0,0.0,0.0,0.0,0.0,0.0,0.0,0.0,0.0,0.0,0.0,0.0,0.0,0.0,0.0,0.0,0.0,0.0,0.0,0.0,0.0,0.0,0.0,0.0,0.0,0.0,0.0,0.0,0.0,0.0,0.0,0.0,0.0,0.0,0.0,0.0,0.0,0.0,0.0,0.0,0.0,0.0,0.0,0.0,0.0,0.0,0.0,0.0,0.0,0.0,0.0,0.0,0.0,0.0,0.0,0.0,0.0,0.0,0.0,0.0,0.0,0.0,0.0,0.0,0.0,0.0,0.0,0.0,0.0,0.0,0.0,0.0,0.0,0.0,0.0,0.0,0.0,0.0,0.0,0.0,0.0,0.0,0.0,0.0,3.4016,3.4088,3.4088,3.4084,3.3858,3.3271,0.0,0.0,0.0,0.0,0.0,0.0,0.0,0.0,0.0,0.0,0.0,0.0,0.0,0.0,0.0,0.0,0.0,0.0,0.0,0.0,0.0,0.0,0.0,0.0,0.0,0.0,0.0,0.0,0.0,0.0,0.0,0.0,0.0,0.0,0.0,0.0,0.0,0.0,0.0,0.0,0.0,0.0,0.0,0.0,0.0,0.0,0.0,0.0,0.0,0.0,0.0,0.0,0.0,0.0,0.0,0.0,0.0,0.0,0.0,0.0,0.0,0.0,0.0,0.0,0.0,0.0,0.0,0.0,0.0,0.0,0.0,0.0,0.0,0.0,0.0,0.0,0.0,0.0,0.0,0.0,0.0,0.0,0.0,0.0,0.0,0.0,0.0,0.0,0.0,0.0,0.0,0.0,0.0,0.0,0.0,0.0,0.0,0.0,0.0,0.0,0.0,0.0,0.0,0.0,0.0,0.0,0.0,0.0,0.0,3.4065,0.0,3.4327,0.0,3.4343,3.3884,0.0,0.0,0.0,0.0,0.0,0.0,0.0,0.0,0.0,0.0,0.0,0.0,0.0,0.0,0.0,0.0,0.0,0.0,0.0,0.0,0.0,0.0,0.0,0.0,0.0,0.0,0.0,0.0,0.0,0.0,0.0,0.0,0.0,0.0,0.0,0.0,0.0,0.0,0.0,0.0,0.0,0.0,0.0,0.0,0.0,0.0,0.0,0.0,0.0,0.0,0.0,0.0,0.0,0.0,0.0,0.0,0.0,0.0,0.0,0.0,0.0,0.0,0.0,0.0,0.0,0.0,0.0,0.0,0.0,0.0,0.0,0.0,0.0,0.0,0.0,0.0,0.0,0.0,0.0,0.0,0.0,0.0,0.0,0.0,0.0,0.0,0.0,0.0,0.0,0.0,0.0,0.0,0.0,0.0,0.0,0.0,0.0,0.0,0.0,0.0,0.0,0.0,0.0,0.0,0.0,0.0,0.0,0.0,3.2926,3.4097,3.481,3.4839,3.4149,3.481,3.4599,0.0,0.0,0.0,0.0,0.0,0.0,0.0,0.0,0.0,0.0,0.0,0.0,0.0,0.0,0.0,0.0,0.0,0.0,0.0,0.0,0.0,0.0,0.0,0.0,0.0,0.0,0.0,0.0,0.0,0.0,0.0,0.0,0.0,0.0,0.0,0.0,0.0,0.0,0.0,0.0,0.0,0.0,0.0,0.0,0.0,0.0,0.0,0.0,0.0,0.0,0.0,0.0,0.0,0.0,0.0,0.0,0.0,0.0,0.0,0.0,0.0,0.0,0.0,0.0,0.0,0.0,0.0,0.0,0.0,0.0,0.0,0.0,0.0,0.0,0.0,0.0,0.0,0.0,0.0,0.0,0.0,0.0,0.0,0.0,0.0,0.0,0.0,0.0,0.0,0.0,0.0,0.0,0.0,0.0,0.0,0.0,0.0,0.0,0.0,0.0,0.0,0.0,0.0,0.0,0.0,0.0,0.0,0.0,0.0,3.4826,3.5085,3.5085,3.4874,3.5085,3.4632,0.0,0.0,0.0,0.0,0.0,0.0,0.0,0.0,0.0,0.0,0.0,0.0,0.0,0.0,0.0,0.0,0.0,0.0,0.0,0.0,0.0,0.0,0.0,0.0,0.0,0.0,0.0,0.0,0.0,0.0,0.0,0.0,0.0,0.0,0.0,0.0,0.0,0.0,0.0,0.0,0.0,0.0,0.0,0.0,0.0,0.0,0.0,0.0,0.0,0.0,0.0,0.0,0.0,0.0,0.0,0.0,0.0,0.0,0.0,0.0,0.0,0.0,0.0,0.0,0.0,0.0,0.0,0.0,0.0,0.0,0.0,0.0,0.0,0.0,0.0,0.0,0.0,0.0,0.0,0.0,0.0,0.0,0.0,0.0,0.0,0.0,0.0,0.0,0.0,0.0,0.0,0.0,0.0,0.0,0.0,0.0,0.0,0.0,0.0,0.0,0.0,0.0,0.0,0.0,0.0,0.0,0.0,0.0,0.0,3.5724,3.5656,3.5474,3.5198,3.548,3.506,3.3834,0.0,0.0,0.0,0.0,0.0,0.0,0.0,0.0,0.0,0.0,0.0,0.0,0.0,0.0,0.0,0.0,0.0,0.0,0.0,0.0,0.0,0.0,0.0,0.0,0.0,0.0,0.0,0.0,0.0,0.0,0.0,0.0,0.0,0.0,0.0,0.0,0.0,0.0,0.0,0.0,0.0,0.0,0.0,0.0,0.0,0.0,0.0,0.0,0.0,0.0,0.0,0.0,0.0,0.0,0.0,0.0,0.0,0.0,0.0,0.0,0.0,0.0,0.0,0.0,0.0,0.0,0.0,0.0,0.0,0.0,0.0,0.0,0.0,0.0,0.0,0.0,0.0,0.0,0.0,0.0,0.0,0.0,0.0,0.0,0.0,0.0,0.0,0.0,0.0,0.0,0.0,0.0,0.0,0.0,0.0,0.0,0.0,0.0,0.0,0.0,0.0,0.0,0.0,0.0,0.0,0.0,0.0,0.0,3.6688,3.6478,3.6054,3.5416,3.6046,3.585,0.0,0.0,0.0,0.0,0.0,0.0,0.0,0.0,0.0,0.0,0.0,0.0,0.0,0.0,0.0,0.0,0.0,0.0,0.0,0.0,0.0,0.0,0.0,0.0,0.0,0.0,0.0,0.0,0.0,0.0,0.0,0.0,0.0,0.0,0.0,0.0,0.0,0.0,0.0,0.0,0.0,0.0,0.0,0.0,0.0,0.0,0.0,0.0,0.0,0.0,0.0,0.0,0.0,0.0,0.0,0.0,0.0,0.0,0.0,0.0,0.0,0.0,0.0,0.0,0.0,0.0,0.0,0.0,0.0,0.0,0.0,0.0,0.0,0.0,0.0,0.0,0.0,0.0,0.0,0.0,0.0,0.0,0.0,0.0,0.0,0.0,0.0,0.0,0.0,0.0,0.0,0.0,0.0,0.0,0.0,0.0,0.0,0.0,0.0,0.0,0.0,0.0,0.0,0.0,0.0,0.0,0.0,0.0,0.0,3.6701,3.7179,3.7319,3.712,3.679,3.6246,0.0,0.0,0.0,0.0,0.0,0.0,0.0,0.0,0.0,0.0,0.0,0.0,0.0,0.0,0.0,0.0,0.0,0.0,0.0,0.0,0.0,0.0,0.0,0.0,0.0,0.0,0.0,0.0,0.0,0.0,0.0,0.0,0.0,0.0,0.0,0.0,0.0,0.0,0.0,0.0,0.0,0.0,0.0,0.0,0.0,0.0,0.0,0.0,0.0,0.0,0.0,0.0,0.0,0.0,0.0,0.0,0.0,0.0,0.0,0.0,0.0,0.0,0.0,0.0,0.0,0.0,0.0,0.0,0.0,0.0,0.0,0.0,0.0,0.0,0.0,0.0,0.0,0.0,0.0,0.0,0.0,0.0,0.0,0.0,0.0,0.0,0.0,0.0,0.0,0.0,0.0,0.0,0.0,0.0,0.0,0.0,0.0,0.0,0.0,0.0,0.0,0.0,0.0,0.0,0.0,0.0,0.0,0.0,3.6686,3.7317,3.8055,3.8417,3.8417,3.7347,3.646,0.0,0.0,0.0,0.0,0.0,0.0,0.0,0.0,0.0,0.0,0.0,0.0,0.0,0.0,0.0,0.0,0.0,0.0,0.0,0.0,0.0,0.0,0.0,0.0,0.0,0.0,0.0,0.0,0.0,0.0,0.0,0.0,0.0,0.0,0.0,0.0,0.0,0.0,0.0,0.0,0.0,0.0,0.0,0.0,0.0,0.0,0.0,0.0,0.0,0.0,0.0,0.0,0.0,0.0,0.0,0.0,0.0,0.0,0.0,0.0,0.0,0.0,0.0,0.0,0.0,0.0,0.0,0.0,0.0,0.0,0.0,0.0,0.0,0.0,0.0,0.0,0.0,0.0,0.0,0.0,0.0,0.0,0.0,0.0,0.0,0.0,0.0,0.0,0.0,0.0,0.0,0.0,0.0,0.0,0.0,0.0,0.0,0.0,0.0,0.0,0.0,0.0,0.0,0.0,0.0,0.0,0.0,0.0,3.7487,3.8311,3.9037,3.9415,3.9368,3.7846,3.6693,0.0,0.0,0.0,0.0,0.0,0.0,0.0,0.0,0.0,0.0,0.0,0.0,0.0,0.0,0.0,0.0,0.0,0.0,0.0,0.0,0.0,0.0,0.0,0.0,0.0,0.0,0.0,0.0,0.0,0.0,0.0,0.0,0.0,0.0,0.0,0.0,0.0,0.0,0.0,0.0,0.0,0.0,0.0,0.0,0.0,0.0,0.0,0.0,0.0,0.0,0.0,0.0,0.0,0.0,0.0,0.0,0.0,0.0,0.0,0.0,0.0,0.0,0.0,0.0,0.0,0.0,0.0,0.0,0.0,0.0,0.0,0.0,0.0,0.0,0.0,0.0,0.0,0.0,0.0,0.0,0.0,0.0,0.0,0.0,0.0,0.0,0.0,0.0,0.0,0.0,0.0,0.0,0.0,0.0,0.0,0.0,0.0,0.0,0.0,0.0,0.0,0.0,0.0,0.0,0.0,0.0,0.0,0.0,3.7748,3.9037,3.9766,4.0163,4.016,3.8715,3.7581,0.0,0.0,0.0,0.0,0.0,0.0,0.0,0.0,0.0,0.0,0.0,0.0,0.0,0.0,0.0,0.0,0.0,0.0,0.0,0.0,0.0,0.0,0.0,0.0,0.0,0.0,0.0,0.0,0.0,0.0,0.0,0.0,0.0,0.0,0.0,0.0,0.0,0.0,0.0,0.0,0.0,0.0,0.0,0.0,0.0,0.0,0.0,0.0,3.6187,0.0,0.0,0.0,0.0,0.0,0.0,0.0,0.0,0.0,0.0,0.0,0.0,0.0,0.0,0.0,0.0,0.0,0.0,0.0,0.0,0.0,0.0,0.0,0.0,0.0,0.0,0.0,0.0,0.0,0.0,0.0,0.0,0.0,0.0,0.0,0.0,0.0,0.0,0.0,0.0,0.0,0.0,0.0,0.0,0.0,0.0,0.0,0.0,0.0,0.0,0.0,0.0,0.0,0.0,0.0,0.0,0.0,0.0,0.0,3.798,3.9749,4.021,4.0395,4.0362,3.9633,3.856,0.0,0.0,0.0,0.0,0.0,0.0,0.0,0.0,0.0,0.0,0.0,0.0,0.0,0.0,0.0,0.0,0.0,0.0,0.0,0.0,0.0,0.0,0.0,0.0,0.0,0.0,0.0,0.0,0.0,0.0,0.0,0.0,0.0,0.0,0.0,0.0,0.0,0.0,0.0,0.0,0.0,0.0,0.0,0.0,0.0,0.0,0.0,0.0,0.0,0.0,0.0,0.0,0.0,0.0,0.0,0.0,0.0,0.0,0.0,0.0,0.0,0.0,0.0,0.0,0.0,0.0,0.0,0.0,0.0,0.0,0.0,0.0,0.0,0.0,0.0,0.0,0.0,0.0,0.0,0.0,0.0,0.0,0.0,0.0,0.0,0.0,0.0,0.0,0.0,0.0,0.0,0.0,0.0,0.0,0.0,0.0,0.0,0.0,0.0,0.0,0.0,0.0,0.0,0.0,0.0,0.0,0.0,3.7317,3.8444,4.0445,4.066,4.071,4.0727,4.0611,3.9504,3.7338,0.0,0.0,0.0,0.0,0.0,0.0,0.0,0.0,0.0,0.0,0.0,0.0,0.0,0.0,0.0,0.0,0.0,0.0,0.0,0.0,0.0,0.0,0.0,0.0,0.0,0.0,0.0,0.0,0.0,0.0,0.0,0.0,0.0,0.0,0.0,0.0,0.0,0.0,3.1688,3.3789,0.0,0.0,0.0,0.0,0.0,0.0,0.0,0.0,3.773,0.0,0.0,0.0,0.0,0.0,0.0,0.0,0.0,0.0,0.0,0.0,0.0,0.0,0.0,0.0,0.0,0.0,0.0,0.0,0.0,0.0,0.0,0.0,0.0,0.0,0.0,0.0,0.0,0.0,0.0,0.0,0.0,0.0,0.0,0.0,0.0,0.0,0.0,0.0,0.0,0.0,0.0,0.0,0.0,0.0,0.0,0.0,0.0,0.0,0.0,0.0,0.0,0.0,0.0,0.0,0.0,3.7085,3.8308,3.9683,4.121,4.1841,4.2173,4.2139,4.1543,4.0219,3.8133,0.0,0.0,0.0,0.0,0.0,0.0,0.0,0.0,0.0,0.0,0.0,0.0,0.0,0.0,0.0,0.0,0.0,0.0,0.0,0.0,0.0,0.0,0.0,0.0,0.0,0.0,0.0,0.0,0.0,0.0,0.0,0.0,0.0,0.0,0.0,0.0,0.0,0.0,0.0,3.4895,3.5948,0.0,0.0,0.0,0.0,0.0,0.0,0.0,0.0,3.7857,0.0,0.0,0.0,0.0,0.0,0.0,0.0,0.0,0.0,0.0,0.0,0.0,0.0,0.0,0.0,0.0,0.0,0.0,0.0,0.0,0.0,0.0,0.0,0.0,0.0,0.0,0.0,0.0,0.0,0.0,0.0,0.0,0.0,0.0,0.0,0.0,0.0,0.0,0.0,0.0,0.0,0.0,0.0,0.0,0.0,0.0,0.0,0.0,0.0,0.0,0.0,0.0,0.0,0.0,0.0,3.7073,3.8556,3.9981,4.1361,4.2123,4.252,4.2504,4.1775,4.058,0.0,0.0,0.0,0.0,0.0,0.0,0.0,0.0,0.0,0.0,0.0,0.0,0.0,0.0,0.0,0.0,0.0,0.0,0.0,0.0,0.0,0.0,0.0,0.0,0.0,0.0,0.0,0.0,0.0,0.0,0.0,0.0,0.0,0.0,0.0,0.0,0.0,0.0,0.0,0.0,3.5442,3.6682,3.7109,0.0,0.0,0.0,0.0,0.0,0.0,3.7774,3.7934,0.0,0.0,0.0,0.0,0.0,0.0,0.0,0.0,0.0,0.0,0.0,0.0,0.0,0.0,0.0,0.0,0.0,0.0,0.0,0.0,0.0,0.0,0.0,0.0,0.0,0.0,0.0,0.0,0.0,0.0,0.0,0.0,0.0,0.0,0.0,0.0,0.0,0.0,0.0,0.0,0.0,0.0,0.0,0.0,0.0,0.0,0.0,0.0,0.0,0.0,0.0,0.0,0.0,0.0,0.0,3.7321,3.8904,4.0332,4.1577,4.2324,4.2736,4.2719,4.1875,4.0812,0.0,0.0,0.0,0.0,0.0,0.0,0.0,0.0,0.0,0.0,0.0,0.0,0.0,0.0,0.0,0.0,0.0,0.0,0.0,0.0,0.0,0.0,0.0,0.0,0.0,0.0,0.0,0.0,0.0,0.0,0.0,0.0,0.0,0.0,0.0,0.0,0.0,0.0,0.0,0.0,0.0,3.7405,3.7761,3.8042,0.0,0.0,0.0,0.0,3.8129,3.8292,0.0,0.0,0.0,0.0,0.0,0.0,0.0,0.0,0.0,0.0,0.0,0.0,0.0,0.0,0.0,0.0,0.0,0.0,0.0,0.0,0.0,0.0,0.0,0.0,0.0,0.0,0.0,0.0,0.0,0.0,0.0,0.0,0.0,0.0,0.0,0.0,0.0,0.0,0.0,0.0,0.0,0.0,0.0,0.0,0.0,0.0,0.0,0.0,0.0,0.0,0.0,0.0,0.0,0.0,0.0,0.0,3.8083,4.0103,4.1543,4.2355,4.31,4.3466,4.3464,4.2139,4.1044,0.0,0.0,0.0,0.0,0.0,0.0,0.0,0.0,0.0,0.0,0.0,0.0,0.0,0.0,0.0,0.0,0.0,0.0,0.0,0.0,0.0,0.0,0.0,0.0,0.0,0.0,0.0,0.0,0.0,0.0,0.0,0.0,0.0,0.0,0.0,0.0,0.0,0.0,0.0,0.0,0.0,3.8187,3.7855,3.9059,3.9879,0.0,0.0,0.0,3.9791,3.9943,0.0,0.0,0.0,0.0,0.0,0.0,0.0,0.0,0.0,0.0,0.0,0.0,0.0,0.0,0.0,0.0,0.0,0.0,0.0,0.0,0.0,0.0,0.0,0.0,0.0,0.0,0.0,0.0,0.0,0.0,0.0,0.0,0.0,0.0,0.0,0.0,0.0,0.0,0.0,0.0,0.0,0.0,0.0,0.0,0.0,0.0,0.0,0.0,0.0,0.0,0.0,0.0,0.0,0.0,0.0,3.7152,3.8232,4.0318,4.1759,4.2473,4.3218,4.3615,4.3598,4.2587,4.1692,0.0,0.0,0.0,0.0,0.0,0.0,0.0,0.0,0.0,0.0,0.0,0.0,0.0,0.0,0.0,0.0,0.0,0.0,0.0,0.0,0.0,0.0,0.0,0.0,0.0,0.0,0.0,0.0,0.0,0.0,0.0,0.0,0.0,0.0,0.0,0.0,0.0,0.0,0.0,0.0,0.0,0.0,3.9281,4.0022,0.0,0.0,0.0,4.0047,4.0199,0.0,0.0,0.0,0.0,0.0,0.0,0.0,0.0,0.0,0.0,0.0,0.0,0.0,0.0,0.0,0.0,0.0,0.0,0.0,0.0,0.0,0.0,0.0,0.0,0.0,0.0,0.0,0.0,0.0,0.0,0.0,0.0,0.0,0.0,0.0,0.0,0.0,0.0,0.0,0.0,0.0,0.0,0.0,0.0,0.0,0.0,0.0,0.0,0.0,0.0,0.0,0.0,0.0,0.0,0.0,0.0,0.0,3.8758,4.05,4.1941,4.3017,4.3597,4.3895,4.3878,4.3166,0.0,0.0,0.0,0.0,0.0,0.0,0.0,0.0,0.0,0.0,0.0,0.0,0.0,0.0,0.0,0.0,0.0,0.0,0.0,0.0,0.0,0.0,0.0,0.0,0.0,0.0,0.0,3.12,0.0,0.0,0.0,0.0,0.0,0.0,0.0,0.0,0.0,0.0,0.0,0.0,0.0,0.0,3.9292,4.072,4.1102,4.1421,0.0,0.0,4.1272,4.1217,4.1262,4.1031,0.0,0.0,0.0,0.0,0.0,0.0,0.0,0.0,0.0,0.0,0.0,0.0,0.0,0.0,0.0,0.0,0.0,0.0,0.0,0.0,0.0,0.0,0.0,0.0,0.0,0.0,0.0,0.0,0.0,0.0,0.0,0.0,0.0,0.0,0.0,0.0,0.0,0.0,0.0,0.0,0.0,0.0,0.0,0.0,0.0,0.0,0.0,0.0,0.0,0.0,0.0,0.0,0.0,0.0,0.0,4.0196,4.1011,4.2419,4.4471,4.4604,4.462,4.462,4.3911,4.2853,0.0,0.0,0.0,0.0,0.0,0.0,0.0,0.0,0.0,0.0,0.0,0.0,0.0,0.0,0.0,0.0,0.0,0.0,0.0,0.0,0.0,0.0,0.0,0.0,0.0,0.0,0.0,0.0,0.0,0.0,0.0,0.0,0.0,0.0,0.0,0.0,0.0,0.0,0.0,0.0,0.0,4.0087,4.1596,4.2524,4.3311,0.0,0.0,4.4318,4.3813,4.384,4.3476,4.2148,0.0,0.0,0.0,0.0,0.0,0.0,0.0,0.0,0.0,0.0,0.0,0.0,0.0,0.0,0.0,0.0,0.0,0.0,0.0,0.0,0.0,0.0,0.0,0.0,0.0,0.0,0.0,0.0,0.0,0.0,0.0,0.0,0.0,0.0,0.0,0.0,0.0,0.0,0.0,0.0,0.0,0.0,0.0,0.0,0.0,0.0,0.0,0.0,0.0,0.0,0.0,0.0,0.0,3.8179,4.0393,4.1508,4.2934,4.4637,4.5151,4.5151,4.472,4.4423,4.3595,0.0,0.0,0.0,0.0,0.0,0.0,0.0,0.0,0.0,0.0,0.0,0.0,0.0,0.0,0.0,0.0,0.0,0.0,0.0,0.0,0.0,0.0,0.0,0.0,0.0,0.0,0.0,0.0,3.4512,3.4877,3.4766,0.0,0.0,0.0,0.0,0.0,0.0,0.0,0.0,0.0,0.0,4.1661,4.3443,4.3975,0.0,0.0,4.5049,4.4885,4.4247,4.4147,4.3719,4.2325,4.1866,0.0,0.0,0.0,0.0,0.0,0.0,0.0,0.0,0.0,0.0,0.0,0.0,0.0,0.0,0.0,0.0,0.0,0.0,0.0,0.0,0.0,0.0,0.0,0.0,0.0,0.0,0.0,0.0,0.0,0.0,0.0,0.0,0.0,0.0,0.0,0.0,0.0,0.0,0.0,0.0,0.0,0.0,0.0,0.0,0.0,0.0,0.0,0.0,0.0,0.0,0.0,0.0,3.851,4.0694,4.209,4.3547,4.5018,4.5732,4.5881,4.5383,4.5151,4.434,0.0,0.0,0.0,0.0,0.0,0.0,0.0,0.0,0.0,0.0,0.0,0.0,0.0,0.0,0.0,0.0,0.0,0.0,0.0,0.0,0.0,0.0,0.0,0.0,0.0,0.0,0.0,0.0,3.5437,3.5707,3.5568,0.0,0.0,0.0,0.0,0.0,0.0,0.0,0.0,0.0,0.0,4.3137,4.5016,4.526,4.5342,4.5587,4.5667,4.5355,4.4404,4.4303,4.3955,4.2754,0.0,0.0,0.0,0.0,0.0,0.0,0.0,0.0,0.0,0.0,0.0,0.0,0.0,0.0,0.0,0.0,0.0,0.0,0.0,0.0,0.0,0.0,0.0,0.0,0.0,0.0,0.0,0.0,0.0,0.0,0.0,0.0,0.0,0.0,0.0,0.0,0.0,0.0,0.0,0.0,0.0,0.0,0.0,0.0,0.0,0.0,0.0,0.0,0.0,0.0,0.0,0.0,0.0,0.0,4.1345,4.2818,4.4292,4.5731,4.6493,4.6858,4.6792,4.6161,4.5086,4.3613,0.0,0.0,0.0,0.0,0.0,0.0,0.0,0.0,0.0,0.0,0.0,0.0,0.0,0.0,0.0,0.0,0.0,0.0,0.0,0.0,0.0,0.0,0.0,0.0,0.0,0.0,3.5969,3.6218,3.6435,0.0,0.0,0.0,0.0,0.0,0.0,0.0,0.0,0.0,0.0,4.3297,4.4415,4.6127,4.6389,4.6356,4.6373,4.6503,4.609,4.466,4.4583,4.4456,0.0,0.0,0.0,0.0,0.0,0.0,0.0,0.0,0.0,0.0,0.0,0.0,0.0,0.0,0.0,0.0,0.0,0.0,0.0,0.0,0.0,0.0,0.0,0.0,0.0,0.0,0.0,3.1951,3.1978,0.0,0.0,0.0,0.0,0.0,0.0,0.0,0.0,0.0,0.0,0.0,3.9683,4.0103,0.0,0.0,0.0,0.0,0.0,0.0,0.0,0.0,0.0,0.0,0.0,0.0,3.9736,4.1394,4.3346,4.4804,4.5813,4.7007,4.7388,4.6924,4.6659,4.5616,4.3663,0.0,0.0,0.0,0.0,0.0,0.0,0.0,0.0,0.0,0.0,0.0,0.0,0.0,0.0,0.0,0.0,0.0,0.0,0.0,0.0,0.0,0.0,0.0,0.0,0.0,3.6494,0.0,0.0,0.0,0.0,0.0,0.0,0.0,0.0,0.0,0.0,0.0,4.2737,4.4233,4.5081,4.593,4.7095,4.7276,4.7309,0.0,0.0,0.0,0.0,0.0,0.0,0.0,0.0,0.0,0.0,0.0,0.0,0.0,0.0,4.4903,4.4406,4.3926,4.3578,4.3595,0.0,0.0,0.0,0.0,0.0,0.0,0.0,0.0,0.0,0.0,0.0,0.0,0.0,0.0,0.0,0.0,3.3453,0.0,0.0,0.0,0.0,0.0,0.0,0.0,0.0,3.9835,4.0796,4.1555,4.222,4.2551,0.0,4.1839,4.0647,0.0,0.0,0.0,0.0,0.0,0.0,0.0,0.0,4.0498,4.2173,4.4092,4.5417,4.6211,4.7371,4.7769,4.7289,4.704,4.6113,4.4408,4.3863,4.2736,0.0,0.0,0.0,0.0,0.0,0.0,0.0,0.0,0.0,0.0,0.0,0.0,0.0,0.0,0.0,0.0,0.0,0.0,0.0,0.0,0.0,0.0,0.0,3.719,0.0,0.0,0.0,0.0,0.0,0.0,0.0,0.0,0.0,4.1652,4.28,4.411,4.5584,4.6405,4.7078,4.7721,0.0,0.0,0.0,0.0,0.0,0.0,0.0,4.6344,4.5881,4.5813,4.5979,4.6477,4.6775,4.7189,4.7934,0.0,0.0,4.6742,4.5963,4.545,4.545,4.5132,4.5025,4.5628,4.6221,4.6766,0.0,0.0,0.0,0.0,0.0,0.0,0.0,0.0,3.5098,3.5126,0.0,3.5081,0.0,0.0,0.0,0.0,0.0,0.0,0.0,0.0,4.156,4.2934,4.3679,4.4373,4.472,4.4687,4.3992,4.3251,4.2404,3.9772,0.0,0.0,0.0,0.0,0.0,0.0,4.1539,4.3532,4.5052,4.6179,4.6874,4.762,4.8001,4.7984,4.7305,4.6576,4.5814,4.4491,4.3698,4.358,4.0978,0.0,0.0,0.0,0.0,0.0,0.0,0.0,0.0,0.0,0.0,0.0,0.0,0.0,0.0,0.0,0.0,0.0,0.0,0.0,0.0,3.761,0.0,0.0,0.0,0.0,0.0,0.0,0.0,0.0,0.0,0.0,4.3353,4.3897,4.4895,4.6534,0.0,0.0,0.0,0.0,4.7752,4.7057,4.6941,4.6709,4.6062,4.5947,4.5979,4.5996,0.0,0.0,4.7835,4.8647,4.9309,5.0071,5.0153,4.9773,4.8415,4.7587,4.7056,4.704,4.7166,4.7292,4.7407,4.8502,4.9551,4.134,0.0,0.0,0.0,0.0,3.8589,3.8523,3.8059,3.8619,3.8523,3.8055,3.8043,0.0,0.0,0.0,0.0,0.0,0.0,4.0909,4.2355,4.3017,4.3944,4.5168,4.5384,4.5483,4.5467,4.5283,4.4787,4.4042,4.3245,4.169,3.9501,0.0,0.0,0.0,0.0,4.2984,4.3664,4.5582,4.6692,4.6891,4.762,4.8001,4.8001,4.7802,4.7338,4.6593,4.6179,4.5467,4.4406,4.3098,0.0,0.0,0.0,0.0,0.0,0.0,0.0,0.0,0.0,0.0,0.0,0.0,0.0,0.0,0.0,0.0,0.0,0.0,0.0,3.974,4.0002,4.0145,0.0,0.0,0.0,0.0,0.0,0.0,0.0,0.0,0.0,4.5721,4.6019,4.6514,0.0,0.0,4.7935,4.8001,4.8001,4.7934,4.7719,0.0,0.0,0.0,4.8166,4.8349,4.8845,4.8928,4.9094,4.9491,4.9756,5.0137,5.085,5.0983,5.0982,5.1082,5.0104,4.9326,4.9377,4.946,4.9592,4.9904,5.0321,5.0654,4.4554,4.2864,4.1541,4.0994,4.1028,4.1489,4.1425,4.1042,4.1489,4.1409,4.0978,4.0694,4.0564,4.0578,4.0578,0.0,0.0,0.0,4.2814,4.406,4.464,4.5384,4.6228,4.6527,4.6676,4.6675,4.6377,4.6012,4.5549,4.5283,4.4272,4.2566,0.0,0.0,4.2149,4.3396,4.4325,4.4938,4.6228,4.704,4.7338,4.7769,4.8001,4.8001,4.8001,4.7802,4.7355,4.704,4.6493,4.5599,4.4589,4.3497,0.0,0.0,0.0,0.0,0.0,0.0,0.0,0.0,0.0,0.0,0.0,3.6446,0.0,0.0,0.0,0.0,3.9703,4.049,4.1358,4.1701,0.0,0.0,0.0,0.0,0.0,0.0,0.0,4.5171,4.5748,4.656,4.8001,4.8199,4.8166,4.8017,4.8233,4.8431,4.8431,0.0,4.8862,4.8879,4.8879,4.9044,4.9458,4.9524,4.9707,5.012,5.0452,5.0634,5.0634,5.0866,5.1231,5.1596,5.1781,5.1967,5.2381,5.1802,5.1157,5.0908,5.096,5.1162,5.1395,5.173,5.2032,4.704,4.6808,4.4789,4.3863,4.3779,4.3845,4.383,4.378,4.383,4.3845,4.3714,4.3052,4.2769,4.2769,4.2769,0.0,0.0,4.4175,4.4819,4.4935,4.6294,4.699,4.7106,4.7769,4.8117,4.8166,4.7471,4.7156,4.7139,4.6509,4.6177,4.6144,4.4819,4.4404,4.4785,4.4866,4.5596,4.7005,4.7072,4.7421,4.8084,4.8034,4.8001,4.8001,4.8001,4.8001,4.7984,4.7338,4.699,4.6941,4.5631,4.4556,4.3895,0.0,0.0,0.0,0.0,0.0,0.0,0.0,0.0,0.0,0.0,0.0,0.0,0.0,0.0,0.0,4.183,0.0,4.2403,4.3007,0.0,0.0,0.0,4.3924,4.4787,4.4919,4.578,4.7852,0.0,0.0,0.0,0.0,4.9706,4.8349,4.8779,4.9193,4.9177,4.9723,5.0203,5.0104,5.017,5.022,5.0253,5.0369,5.0451,5.0518,5.0932,5.1365,5.1449,5.1896,5.2377,5.2429,5.2518,5.2624,5.2624,5.2715,5.2668,5.1811,5.1916,5.2169,5.2236,5.2825,5.3332,4.8249,4.7703,4.7173,4.6295,4.5317,4.5881,4.5798,4.5351,4.5881,4.5798,4.5268,4.5086,4.5019,4.5003,4.5019,4.5019,4.5036,4.5383,4.5863,4.6393,4.6725,4.7487,4.858,4.8746,4.9127,4.964,4.9491,4.9408,4.9409,4.9344,4.9294,4.9294,4.9108,4.7923,4.5882,4.6423,4.7203,4.812,4.8527,4.8746,4.8812,4.8299,4.8001,4.8001,4.8001,4.8001,4.8001,4.7835,4.7736,4.7719,4.6858,4.631,4.6096,4.4342,0.0,0.0,0.0,0.0,0.0,0.0,0.0,0.0,0.0,3.9274,4.0684,0.0,4.1149,0.0,4.3325,4.43,4.4877,4.5092,0.0,0.0,4.5221,4.5535,4.6295,4.6874,4.7636,4.8713,4.9359,4.9806,5.0153,5.0203,5.0071,4.974,4.9822,4.9939,4.9938,5.0071,5.0203,5.0236,5.0253,5.0419,5.0949,5.153,5.1827,5.1878,5.2027,5.2162,5.2269,5.2403,5.2605,5.2729,5.2799,5.2833,5.2866,5.299,5.3059,5.2857,5.2892,5.2977,5.3146,5.3349,5.3501,4.9177,4.8481,4.8498,4.7835,4.6808,4.7222,4.7156,4.6808,4.7206,4.7156,4.6774,4.6444,4.6096,4.5831,4.6145,4.6295,4.6311,4.6626,4.7173,4.7868,4.7885,4.8481,4.9574,4.959,4.984,5.029,5.029,5.0324,5.0425,5.051,5.0543,5.056,5.0743,4.9988,4.8382,4.8668,4.9085,4.9471,4.9375,4.931,4.9211,4.8448,4.8001,4.8001,4.8001,4.8001,4.8001,4.8001,4.8001,4.8001,4.762,4.7239,4.6908,4.5733,4.4772,0.0,0.0,0.0,0.0,0.0,0.0,0.0,0.0,0.0,0.0,0.0,4.3164,0.0,4.5301,0.0,4.6742,4.7371,4.7769,4.7736,4.7769,4.7918,4.8332,4.873,4.9259,4.9988,5.0436,5.08,5.1131,5.1181,5.1164,5.1181,5.1181,5.1065,5.0783,5.0949,5.1181,5.1164,5.1181,5.128,5.1745,5.2126,5.2409,5.2464,5.2481,5.2535,5.2711,5.3013,5.3266,5.3388,5.3727,5.4015,5.4015,5.4171,5.431,5.431,5.431,5.4226,5.4042,5.3991,5.4059,4.9922,4.9226,4.9243,4.8829,4.815,4.815,4.81,4.8001,4.8001,4.8001,4.7951,4.7322,4.6676,4.6113,4.6742,4.7056,4.7073,4.7802,4.8481,4.9094,4.9193,4.9624,5.0336,5.037,5.0472,5.0675,5.0709,5.081,5.0961,5.1011,5.1028,5.1028,5.1227,5.1326,5.1326,5.1144,5.0994,5.086,5.0025,4.9559,4.9526,4.853,4.805,4.8117,4.8133,4.8199,4.8282,4.8199,4.8133,4.815,4.805,4.7719,4.709,4.6957,4.6344,0.0,4.4902,0.0,0.0,0.0,0.0,0.0,0.0,0.0,0.0,4.4638,4.5399,4.6013,4.7421,4.8282,4.8282,4.9458,5.0203,5.0203,5.0203,5.022,5.0319,5.0336,5.0618,5.1347,5.143,5.1679,5.2242,5.2391,5.2375,5.2308,5.2275,5.2043,5.163,5.1927,5.2275,5.2409,5.2409,5.2329,5.2545,5.2612,5.2733,5.2889,5.3024,5.3012,5.3271,5.3775,5.4196,5.4282,5.4842,5.5351,5.5436,5.5543,5.5631,5.5563,5.5563,5.5395,5.4888,5.4752,5.4955,5.0667,5.0004,4.9988,4.9574,4.8878,4.8878,4.8564,4.8001,4.8001,4.8001,4.8001,4.7852,4.7719,4.7587,4.7719,4.7802,4.7819,4.8547,4.8961,4.9127,4.9723,5.0386,5.1083,5.1221,5.1573,5.2157,5.2347,5.245,5.2485,5.2656,5.2724,5.2724,5.2927,5.3028,5.3028,0.0,0.0,0.0,5.0927,5.0376,5.0176,4.8763,4.8299,4.8862,4.8878,0.0,4.9723,4.921,4.8878,4.8879,4.8316,0.0,0.0,0.0,0.0,0.0,0.0,0.0,0.0,0.0,0.0,0.0,4.6775,4.651,4.5533,4.6609,4.7438,4.7603,4.8928,4.9773,4.9806,5.0021,5.0203,5.0203,5.0203,5.0419,5.1,5.1082,5.1381,5.2093,5.2176,5.2226,5.2358,5.2391,5.2391,5.2409,5.2409,5.2342,5.2227,5.2308,5.2391,5.2409,5.2564,5.2836,5.3369,5.3596,5.3868,5.4423,5.4641,5.4662,5.4807,5.496,5.5199,5.5339,5.5527,5.5663,5.568,5.5664,5.5783,5.5716,5.5733,5.5665,5.5513,5.5496,5.553,5.1414,0.0,5.0734,5.032,0.0,4.9624,4.9425,4.9028,4.8299,4.8199,4.8564,4.8928,4.9094,4.9077,4.9094,4.9077,4.911,4.9491,4.9839,5.0204,5.0568,5.1167,5.1951,5.2022,5.2345,5.2869,5.299,5.3093,5.3195,5.3281,5.3348,5.3348,5.3433,5.3501,5.3501,5.3501,5.3264,5.2775,5.1866,5.1296,5.1061,4.9843,4.9327,4.9607,0.0,0.0,0.0,0.0,0.0,0.0,0.0,0.0,0.0,0.0,0.0,4.8531,4.8199,4.7968,4.7968,4.7968,4.8133,4.8514,4.8879,4.8763,4.8017,4.8663,4.9094,4.9127,5.0088,5.0734,5.075,5.1065,5.128,5.128,5.128,5.1463,5.1778,5.1845,5.1994,5.2308,5.2391,5.2391,5.2391,5.2391,5.2445,5.2515,5.2815,5.3084,5.3106,5.2748,5.2526,5.2981,5.3541,5.3983,5.43,5.4473,5.4664,5.512,5.524,5.5346,5.5523,5.5845,5.6117,5.6257,5.6528,5.6782,5.6782,5.6799,5.6782,5.6782,5.6782,5.6835,5.6872,5.6565,5.6376,5.2043,5.1497,5.1497,5.1048,5.0385,5.0402,5.0302,5.0137,0.0,0.0,0.0,4.9938,5.0203,5.0203,5.0203,5.0203,5.0203,5.0336,5.0734,5.135,5.1483,5.1935,5.2641,5.2694,5.2886,5.3179,5.3247,5.3332,5.3501,5.3501,5.3501,5.3501,5.3501,5.3501,5.3501,5.3501,5.3501,5.345,5.2573,5.2018,5.1832,5.091,5.0408,5.042,5.0402,5.0451,5.0584,5.0451,5.0402,5.0402,5.0269,5.0203,5.0203,5.0203,5.0203,5.0203,5.0203,5.0203,5.0203,5.0203,5.0253,5.0386,5.0518,5.0485,5.0236,5.032,5.0402,5.0385,5.1065,5.148,5.1497,5.2027,5.2391,5.2391,5.2391,5.2375,5.2391,5.2391,5.2375,5.2391,5.2391,5.2459,5.2644,5.266,5.2747,5.3056,5.3627,5.3997,5.4055,5.3509,5.3251,5.3893,5.454,5.5135,5.5336,5.5406,5.5493,5.589,5.5908,5.5894,5.6137,5.6596,5.6951,5.7002,5.7509,5.7781,5.7902,5.7853,5.7954,5.7991,5.7991,5.8062,5.8137,5.7658,5.7314,5.2325,5.2242,5.2242,5.1828,5.1149,5.1132,5.0767,5.0187,4.9971,4.9938,5.0054,5.0153,5.0203,5.0203,5.0203,5.0203,5.0236,5.085,5.1268,0.0,5.2122,5.2576,5.2851,5.3024,5.3144,5.3196,5.3365,5.3467,5.3501,5.3501,5.3501,5.3501,5.3501,5.3501,5.3501,5.3501,5.3501,5.3467,5.2573,5.2101,5.2051,5.0978,5.0692,5.1273,5.1202,5.1447,5.206,5.148,5.1149,5.1132,5.0535,5.0203,5.0203,5.0236,5.0203,5.0203,5.0203,5.0203,5.0203,5.0203,5.0485,5.1099,5.1729,5.1579,5.0353,5.0783,5.1149,5.1165,5.1778,5.2242,5.2259,5.2325,5.2391,5.2391,5.2391,5.2391,5.2391,5.2424,5.2459,5.2459,5.2391,5.2761,5.3403,5.3521,5.3809,5.4504,5.4777,5.4928,5.4997,5.4826,5.4774,5.4894,5.5138,5.5633,5.6173,5.6468,5.6742,5.7456,5.7439,5.7372,5.7391,5.7526,5.7663,5.773,5.7833,5.7955,5.8116,5.817,5.8224,5.8348,5.8418,5.8488,5.8558,5.8403,5.8369,5.2391,5.2391,5.2391,5.2209,5.1894,5.1894,5.1712,5.1396,5.138,5.1148,5.085,5.1214,5.1397,5.1397,5.1467,5.1519,5.1536,5.1974,5.221,5.228,5.2597,5.2868,5.3075,5.3161,5.3264,5.3365,5.345,5.3501,5.3501,5.3501,5.3501,5.3501,5.3501,5.3501,5.3501,5.3501,5.3501,5.3501,5.3095,5.2809,5.2708,5.2202,5.1981,5.209,5.2019,5.2115,5.2393,5.2077,5.1894,5.1911,5.1579,5.138,5.138,5.138,5.138,5.138,5.1396,5.138,5.1397,5.138,5.1529,5.1861,5.2192,5.2126,5.1462,5.1695,5.1878,5.1911,5.2226,5.2391,5.2391,5.2391,5.2391,5.2391,5.2391,5.2391,5.2441,5.2754,5.2991,5.313,5.3464,5.3885,5.4417,5.4452,5.4624,5.5206,5.5632,5.6125,5.6495,5.6597,5.6392,5.6033,5.6362,5.6841,5.7197,5.7319,5.7543,5.7866,5.79,5.79,5.79,5.79,5.7936,5.8044,5.8062,5.8152,5.8347,5.8349,5.8419,5.8524,5.8989,5.9214,5.9423,5.9857,5.9891,5.2464,5.2445,5.2445,5.2445,5.2445,5.2445,5.2463,5.2516,5.2499,5.2184,5.1785,5.2214,5.2463,5.2533,5.2623,5.2676,5.2711,5.285,5.2904,5.2972,5.2972,5.3093,5.3264,5.3264,5.3348,5.3484,5.3501,5.3501,5.3501,5.3501,5.3501,5.3501,5.3501,5.3501,5.3501,5.3501,5.3501,5.3501,5.3501,5.3433,5.3281,5.323,5.3041,5.2764,5.2694,5.2605,5.2463,5.2445,5.2427,5.2391,5.2391,5.2391,5.2391,5.2391,5.2391,5.2391,5.2391,5.2391,5.2391,5.2391,5.2409,5.2428,5.2445,5.2463,5.2516,5.2516,5.248,5.2409,5.2375,5.2391,5.2391,5.2391,5.2458,5.259,5.2659,5.2844,5.2977,5.3443,5.3848,5.4042,5.4528,5.495,5.5315,5.542,5.5593,5.6043,5.6591,5.7273,5.7781,5.79,5.7556,5.7212,5.7452,5.778,5.79,5.7866,5.7866,5.79,5.7936,5.7972,5.7991,5.8007,5.8098,5.8259,5.8447,5.8674,5.8851,5.911,5.9284,5.951,6.0011,6.0409,6.067,6.1224,6.1397,5.2746,5.2605,5.2605,5.2571,5.2605,5.2588,5.2693,5.2816,5.2851,5.2834,5.2699,5.2642,5.2676,5.285,5.2868,5.2852,5.2868,5.2886,5.299,5.3161,5.3161,5.3297,5.345,5.3467,5.3501,5.3501,5.3518,5.3568,5.3568,5.3568,5.3534,5.3501,5.3501,5.3551,5.3534,5.3534,5.3518,5.3501,5.3501,5.3501,5.345,5.3298,5.3179,5.3144,5.2955,5.2798,5.2605,5.2588,5.2517,5.2409,5.2391,5.2409,5.2409,5.2391,5.2391,5.2391,5.2391,5.2391,5.2409,5.2391,5.2463,5.2553,5.2588,5.2675,5.285,5.2885,5.2745,5.2564,5.2459,5.2477,5.2409,5.2475,5.2792,5.3322,5.3499,5.382,5.4371,5.4783,5.496,5.496,5.5145,5.5402,5.6203,5.6373,5.6683,5.7302,5.7508,5.7697,5.7849,5.7918,5.7901,5.778,5.79,5.79,5.79,5.79,5.7918,5.7936,5.808,5.8152,5.8188,5.8347,5.8489,5.8764,5.9141,5.9643,6.0062,6.0547,6.1067,6.1103,6.1415,6.1779,6.1984,6.2243,6.2088,5.2868,5.2781,5.2781,5.2764,5.2781,5.2781,5.2816,5.2886,5.2886,5.2955,5.3059,5.299,5.2955,5.292,5.3024,5.3076,5.3093,5.3195,5.3297,5.3349,5.3365,5.3433,5.3484,5.3501,5.3501,5.3568,5.3923,5.4143,5.4228,5.4583,5.4803,5.4803,5.4803,5.4803,5.4803,5.4786,5.4803,5.4786,5.4803,5.4803,5.4701,5.3872,5.3315,5.3196,5.311,5.299,5.2799,5.2798,5.2763,5.2693,5.2571,5.2517,5.2517,5.2445,5.2391,5.2409,5.2464,5.257,5.2693,5.2693,5.2711,5.2781,5.2781,5.2967,5.3506,5.3662,5.3777,5.3932,5.3611,5.3328,5.3378,5.3728,5.4093,5.436,5.4482,5.467,5.4919,5.5443,5.5767,5.5928,5.6317,5.6727,5.7194,5.7333,5.7487,5.7848,5.79,5.79,5.79,5.7991,5.808,5.8098,5.817,5.8134,5.8007,5.8026,5.8062,5.8116,5.8242,5.8367,5.847,5.897,5.937,5.9475,6.0235,6.0824,6.1155,6.1484,6.1917,6.2227,6.2815,6.3213,6.389,6.4029,6.3978,5.3024,5.2989,5.2921,5.2921,5.2972,5.2972,5.3024,5.3058,5.3058,5.3144,5.3264,5.3281,5.3313,5.3362,5.3331,5.3297,5.3298,5.3433,5.3636,5.3788,5.3805,5.3907,5.4076,5.411,5.411,5.4177,5.4668,5.4905,5.4955,5.5395,5.5699,5.5699,5.5699,5.5699,5.5699,5.5699,5.5699,5.5682,5.5699,5.5699,5.5547,5.4651,5.4024,5.3905,5.3887,5.3801,5.3593,5.3409,5.3274,5.3205,5.2881,5.2676,5.2676,5.2588,5.2551,5.2535,5.2623,5.2847,5.3171,5.3257,5.3393,5.3629,5.3698,5.4003,5.4511,5.4767,5.5004,5.5303,5.5133,5.4862,5.4395,5.4796,5.513,5.5347,5.5434,5.5539,5.584,5.6328,5.6724,5.6902,5.7275,5.7717,5.7863,5.7848,5.7883,5.7883,5.7954,5.7972,5.8026,5.8152,5.8294,5.8277,5.8402,5.8367,5.8134,5.8188,5.8294,5.8434,5.861,5.9043,5.9043,5.982,6.0461,6.0739,6.1537,6.211,6.2386,6.2592,6.2988,6.3195,6.3678,6.4405,6.4964,6.5294,6.5376,5.3365,5.3161,5.2972,5.3041,5.3195,5.3212,5.3331,5.3518,5.3518,5.3518,5.3585,5.3551,5.389,5.4447,5.3889,5.3534,5.3534,5.3602,5.3974,5.4515,5.4549,5.4921,5.5597,5.5597,5.5564,5.5411,5.5564,5.5682,5.5699,5.5733,5.5699,5.575,5.5817,5.5767,5.5817,5.5851,5.5733,5.5851,5.5851,5.5783,5.5767,5.5665,5.5597,5.558,5.5546,5.5374,5.5165,5.4575,5.4151,5.396,5.3355,5.2953,5.2936,5.2935,5.2951,5.2952,5.2935,5.3255,5.3894,5.4187,5.4596,5.5361,5.5569,5.5911,5.6082,5.6167,5.6252,5.6286,5.685,5.6606,5.5481,5.5443,5.5657,5.6176,5.6369,5.6746,5.7354,5.752,5.7796,5.7798,5.7849,5.7936,5.7918,5.79,5.7936,5.7972,5.808,5.8188,5.8207,5.8349,5.8473,5.8525,5.8543,5.8525,5.8473,5.8491,5.8491,5.8819,5.9476,6.0099,6.0514,6.0913,6.145,6.2004,6.2752,6.329,6.3619,6.4068,6.457,6.4828,6.4873,6.5409,6.5589,6.569,6.577,5.3467,5.3382,5.3314,5.3315,5.3433,5.3889,5.4126,5.4245,5.4701,5.4904,5.4904,5.4904,5.5074,5.5276,5.5023,5.4904,5.4887,5.4921,5.5056,5.5276,5.5293,5.5428,5.5665,5.5699,5.5699,5.575,5.619,5.6664,5.7087,5.7103,5.7103,5.7103,5.7087,5.7087,5.7103,5.7103,5.7103,5.7103,5.7103,5.7103,5.7053,5.7103,5.712,5.7053,5.6172,5.5681,5.5611,5.5341,5.5171,5.5083,5.4692,5.4504,5.4487,5.4381,5.4381,5.4504,5.461,5.4867,5.5226,5.545,5.5758,5.6133,5.6269,5.6661,5.7207,5.7462,5.7651,5.7997,5.8341,5.817,5.7651,5.732,5.7367,5.7605,5.7725,5.7829,5.8103,5.8242,5.8277,5.8277,5.8277,5.8277,5.826,5.8277,5.8294,5.8312,5.8349,5.8384,5.8438,5.8614,5.8823,5.8875,5.9047,5.92,5.92,5.8944,5.8978,5.9633,6.0272,6.0894,6.1378,6.2281,6.2906,6.3146,6.3859,6.438,6.467,6.4904,6.5511,6.5656,6.5752,6.5802,6.599,6.6023,6.6086,5.3501,5.3518,5.3754,5.3873,5.394,5.4634,5.4955,5.5006,5.5479,5.5699,5.5699,5.5699,5.5817,5.602,5.6054,5.6206,5.6325,5.597,5.5817,5.6055,5.6054,5.619,5.6375,5.641,5.6427,5.6494,5.69,5.7425,5.7832,5.79,5.79,5.7883,5.79,5.79,5.79,5.79,5.79,5.79,5.79,5.7883,5.79,5.79,5.79,5.7764,5.6934,5.641,5.6392,5.6172,5.6037,5.6002,5.5711,5.5489,5.5489,5.5419,5.5436,5.5612,5.5771,5.6063,5.6422,5.6696,5.6969,5.731,5.7494,5.7868,5.8452,5.8686,5.8998,5.9297,5.9385,5.9334,5.9115,5.8909,5.8771,5.8578,5.849,5.849,5.849,5.849,5.849,5.8472,5.8472,5.849,5.8508,5.849,5.8525,5.8561,5.8614,5.8666,5.8771,5.8995,5.9234,5.9267,5.9469,5.9651,5.9838,5.9878,5.987,6.0475,6.1481,6.1999,6.2534,6.3492,6.4099,6.4373,6.4768,6.5303,6.5659,6.5802,6.596,6.6066,6.6099,6.6099,6.6223,6.63,6.6348,5.3501,5.3653,5.4279,5.4583,5.4702,5.5395,5.5716,5.5716,5.58,5.5936,5.6003,5.5834,5.6274,5.6697,5.6816,5.7171,5.7409,5.6478,5.6257,5.6782,5.6816,5.7154,5.7679,5.7663,5.7645,5.768,5.7832,5.7866,5.7883,5.79,5.79,5.79,5.79,5.79,5.79,5.79,5.79,5.79,5.79,5.79,5.79,5.79,5.79,5.79,5.7764,5.773,5.7763,5.7137,5.6799,5.6748,5.6172,5.5767,5.592,5.606,5.608,5.62,5.6286,5.6731,5.7346,5.7723,5.8236,5.8768,5.9379,5.9538,5.9638,5.9837,5.9987,5.999,5.9911,5.9796,5.9747,5.9635,5.9319,5.8666,5.8631,5.8631,5.8596,5.8543,5.8525,5.8578,5.8631,5.8543,5.8525,5.8631,5.8701,5.8806,5.8909,5.9064,5.9234,5.9453,5.9636,5.9748,5.9879,6.0009,6.0448,6.0893,6.1034,6.1378,6.2531,6.3386,6.3764,6.4494,6.4873,6.5144,6.5337,6.5834,6.596,6.6117,6.6195,6.6284,6.6315,6.6363,6.6424,6.6485,6.65,5.3788,5.4245,5.4499,5.4905,5.5429,5.6156,5.6461,5.6528,5.6968,5.7222,5.7205,5.7205,5.734,5.7494,5.7543,5.768,5.7849,5.7391,5.734,5.7509,5.7526,5.7645,5.7849,5.79,5.79,5.79,5.79,5.79,5.79,5.79,5.79,5.79,5.79,5.79,5.79,5.79,5.79,5.79,5.79,5.79,5.79,5.79,5.79,5.79,5.79,5.79,5.7883,5.7679,5.7561,5.7544,5.734,5.7294,5.7402,5.7614,5.7703,5.7755,5.7998,5.8204,5.8462,5.8854,5.9241,5.9681,5.9928,6.0121,6.0311,6.039,6.0454,6.0439,6.0392,6.0311,6.0183,6.0119,5.9831,5.9302,5.9269,5.9235,5.9235,5.9252,5.9269,5.9252,5.9251,5.9269,5.9252,5.9234,5.9234,5.9302,5.9386,5.9486,5.9634,5.9815,5.9993,6.0102,6.0231,6.0376,6.0744,6.1415,6.2008,6.2375,6.3381,6.4297,6.4798,6.5156,6.5534,6.5786,6.5992,6.6148,6.6287,6.6379,6.6439,6.6485,6.653,6.6575,6.6638,6.6653,6.6653,5.3923,5.4583,5.4888,5.5446,5.6173,5.69,5.7222,5.7273,5.7695,5.79,5.7883,5.7883,5.79,5.79,5.79,5.79,5.79,5.79,5.79,5.79,5.79,5.79,5.79,5.79,5.79,5.79,5.79,5.79,5.79,5.79,5.79,5.79,5.79,5.79,5.79,5.79,5.79,5.79,5.79,5.79,5.79,5.79,5.79,5.79,5.79,5.79,5.79,5.7954,5.8009,5.8026,5.808,5.8188,5.8313,5.8526,5.8684,5.8754,5.9013,5.9233,5.93,5.9567,5.9897,6.0137,6.0278,6.0434,6.0638,6.0714,6.0778,6.0811,6.0699,6.062,6.0494,6.0434,6.0264,6.001,5.9832,5.9783,5.9784,5.9718,5.9668,5.9636,5.9586,5.9636,5.9652,5.9685,5.9734,5.9816,5.9865,5.993,6.0056,6.0201,6.0325,6.0481,6.0638,6.0798,6.096,6.1781,6.2852,6.3485,6.4185,6.4879,6.5458,6.5705,6.6008,6.6115,6.6302,6.6379,6.6515,6.6578,6.6638,6.6683,6.6697,6.6712,6.6745,6.676,6.676,5.394,5.4718,5.5395,5.6122,5.6884,5.756,5.7815,5.7866,5.79,5.79,5.79,5.79,5.79,5.79,5.79,5.79,5.79,5.79,5.79,5.79,5.79,5.79,5.79,5.79,5.79,5.79,5.79,5.79,5.79,5.79,5.79,5.79,5.79,5.79,5.79,5.79,5.79,5.79,5.79,5.79,5.79,5.79,5.79,5.79,5.79,5.7918,5.7954,5.8152,5.8242,5.8259,5.8384,5.8508,5.8596,5.884,5.9013,5.903,5.9403,5.9635,5.9814,5.9993,6.0185,6.0356,6.0587,6.08,6.0833,6.0941,6.1034,6.1052,6.0926,6.0815,6.0788,6.0714,6.0625,6.0594,6.0313,6.0155,6.0105,5.9975,5.9927,5.9879,5.9733,5.9701,5.9895,5.9911,6.004,6.0199,6.0278,6.0358,6.0483,6.0576,6.0684,6.0836,6.1001,6.1126,6.1253,6.1926,6.2934,6.3721,6.4478,6.5242,6.5849,6.6112,6.6336,6.6439,6.6515,6.6605,6.6683,6.6712,6.6745,6.676,6.6775,6.6789,6.6804,6.6804,6.6804,5.4245,5.5395,5.5631,5.6461,5.7544,5.7849,5.79,5.79,5.79,5.79,5.79,5.79,5.79,5.79,5.79,5.79,5.79,5.79,5.79,5.79,5.79,5.79,5.79,5.79,5.79,5.79,5.79,5.79,5.79,5.79,5.79,5.79,5.79,5.79,5.79,5.79,5.79,5.79,5.79,5.79,5.79,5.79,5.79,5.79,5.79,5.7989,5.8134,5.8455,5.8561,5.8455,5.8613,5.8771,5.8875,5.9098,5.9285,5.9453,5.9751,5.9977,6.0057,6.028,6.0514,6.0648,6.0755,6.0845,6.1001,6.1064,6.1093,6.1093,6.1049,6.1016,6.1001,6.0989,6.0977,6.0929,6.0653,6.0485,6.0454,6.0423,6.039,6.039,6.0345,6.0313,6.0327,6.0374,6.0405,6.0499,6.0561,6.0607,6.079,6.0929,6.1019,6.1164,6.1296,6.1415,6.1685,6.2241,6.2974,6.378,6.4603,6.5457,6.5979,6.633,6.6533,6.6668,6.6653,6.6712,6.676,6.6775,6.6789,6.6804,6.6804,6.6804,6.6804,6.6804,6.6804,5.4346,5.5699,5.5699,5.6562,5.7815,5.79,5.79,5.79,5.79,5.79,5.79,5.79,5.79,5.79,5.79,5.79,5.79,5.79,5.79,5.79,5.79,5.79,5.79,5.79,5.79,5.79,5.79,5.79,5.79,5.79,5.79,5.79,5.79,5.79,5.79,5.79,5.79,5.79,5.79,5.79,5.79,5.79,5.79,5.79,5.79,5.8026,5.8313,5.8648,5.8753,5.8701,5.8858,5.9047,5.9115,5.9368,5.9569,5.9718,6.0027,6.0234,6.0327,6.0545,6.076,6.0878,6.0941,6.1004,6.1064,6.1093,6.1093,6.1093,6.1093,6.1093,6.1093,6.1093,6.1123,6.1138,6.1001,6.0869,6.0841,6.0729,6.0699,6.0668,6.0622,6.0625,6.0684,6.0699,6.076,6.0851,6.0911,6.1016,6.1152,6.1259,6.1332,6.143,6.153,6.1615,6.1672,6.2133,6.2706,6.3531,6.4591,6.5465,6.6061,6.6458,6.6638,6.676,6.6789,6.6804,6.6804,6.6804,6.6804,6.6804,6.6804,6.6804,6.6804,6.6804,6.6804,5.4312,5.5581,5.5665,5.6511,5.768,5.7883,5.79,5.79,5.79,5.79,5.79,5.79,5.79,5.79,5.79,5.79,5.79,5.79,5.79,5.79,5.79,5.79,5.79,5.79,5.79,5.79,5.79,5.79,5.79,5.79,5.79,5.79,5.79,5.79,5.79,5.79,5.79,5.79,5.79,5.79,5.79,5.79,5.79,5.79,5.7954,5.8134,5.842,5.8666,5.8788,5.884,5.9115,5.9234,5.9318,5.9634,5.9797,5.9879,6.0155,6.0427,6.0565,6.0684,6.0863,6.1004,6.1064,6.1093,6.1093,6.1093,6.1093,6.1093,6.1093,6.1093,6.1093,6.1093,6.1138,6.1211,6.1223,6.1211,6.1123,6.0986,6.0893,6.0893,6.079,6.079,6.0815,6.0906,6.0998,6.1197,6.1241,6.1299,6.1386,6.1473,6.1548,6.1591,6.1704,6.1802,6.184,6.195,6.252,6.3203,6.4401,6.5356,6.6046,6.6459,6.6688,6.6804,6.6804,6.6804,6.6804,6.6804,6.6804,6.6804,6.6804,6.6804,6.6804,6.6804,6.6804,5.4025,5.4871,5.5462,5.6206,5.7053,5.7646,5.7883,5.79,5.79,5.79,5.79,5.79,5.79,5.79,5.79,5.79,5.79,5.79,5.79,5.79,5.79,5.79,5.79,5.79,5.79,5.79,5.79,5.79,5.79,5.79,5.79,5.79,5.79,5.79,5.79,5.79,5.79,5.79,5.79,5.79,5.79,5.79,5.79,5.79,5.8044,5.8242,5.849,5.8684,5.884,5.8961,5.903,5.9183,5.9436,5.9603,5.9751,5.9977,6.0202,6.0411,6.0472,6.0653,6.0815,6.0863,6.0971,6.1093,6.1093,6.1078,6.1078,6.1093,6.1093,6.1064,6.1078,6.1093,6.1123,6.1167,6.1167,6.1152,6.1152,6.1285,6.1343,6.1372,6.1343,6.1372,6.1383,6.1354,6.143,6.1534,6.1548,6.1562,6.1633,6.1704,6.1732,6.176,6.1816,6.1882,6.1927,6.2023,6.243,6.2947,6.3993,6.4935,6.5627,6.6188,6.6315,6.6569,6.6804,6.6804,6.6804,6.6804,6.6804,6.6804,6.6804,6.6804,6.6804,6.6804,6.6804,5.3923,5.4634,5.5023,5.5818,5.6782,5.7222,5.756,5.7849,5.79,5.79,5.79,5.79,5.79,5.79,5.79,5.79,5.79,5.79,5.79,5.79,5.79,5.79,5.79,5.79,5.79,5.79,5.79,5.79,5.79,5.79,5.79,5.79,5.79,5.79,5.79,5.79,5.79,5.79,5.79,5.79,5.79,5.79,5.79,5.7936,5.8098,5.826,5.8349,5.8543,5.8736,5.8858,5.8909,5.9047,5.942,5.9571,5.972,5.9866,6.0123,6.0252,6.0329,6.0532,6.0714,6.0696,6.079,6.0838,6.0854,6.0869,6.0869,6.0854,6.0869,6.0884,6.0956,6.1064,6.1093,6.1182,6.1197,6.1226,6.1332,6.1419,6.1444,6.1473,6.1505,6.1548,6.1591,6.1619,6.1662,6.1662,6.169,6.1704,6.1816,6.1886,6.1886,6.1913,6.1937,6.1964,6.1996,6.2136,6.239,6.2856,6.3468,6.4229,6.4867,6.5392,6.5826,6.6225,6.6641,6.6804,6.6804,6.6804,6.6804,6.6804,6.6804,6.6804,6.6804,6.6804,6.6804,5.3873,5.4448,5.4549,5.5345,5.6376,5.6579,5.7036,5.7645,5.773,5.7729,5.79,5.79,5.79,5.79,5.79,5.79,5.79,5.79,5.79,5.79,5.79,5.79,5.79,5.79,5.79,5.79,5.79,5.79,5.79,5.79,5.79,5.79,5.79,5.79,5.79,5.79,5.79,5.79,5.79,5.79,5.79,5.79,5.79,5.7936,5.8044,5.8152,5.8242,5.8367,5.8543,5.8736,5.8753,5.8909,5.9167,5.9437,5.9587,5.9603,5.9899,5.9978,6.0043,6.0248,6.0436,6.0485,6.0516,6.0516,6.0516,6.0563,6.0561,6.0594,6.0625,6.0686,6.0773,6.0881,6.1031,6.1149,6.1208,6.1328,6.1448,6.1372,6.1357,6.1415,6.1544,6.1662,6.1658,6.1686,6.1746,6.182,6.1816,6.1858,6.1955,6.201,6.1982,6.1982,6.1996,6.201,6.201,6.2028,6.2299,6.253,6.3019,6.349,6.4052,6.4392,6.4921,6.6007,6.646,6.6551,6.6714,6.6804,6.6804,6.6804,6.6804,6.6804,6.6804,6.6804,6.6804,5.3585,5.3737,5.4347,5.4753,5.504,5.5615,5.6308,5.6917,5.6985,5.734,5.7832,5.7883,5.7849,5.79,5.79,5.79,5.79,5.79,5.79,5.79,5.79,5.79,5.79,5.79,5.79,5.79,5.79,5.79,5.79,5.79,5.79,5.79,5.79,5.79,5.79,5.79,5.79,5.79,5.79,5.79,5.79,5.79,5.79,5.79,5.7954,5.8044,5.817,5.8224,5.8331,5.8525,5.856,5.8596,5.8736,5.9081,5.9352,5.9487,5.9569,5.9636,5.9701,5.983,5.9927,5.9975,6.0089,6.0186,6.0201,6.0264,6.0278,6.0341,6.0452,6.0594,6.064,6.0686,6.0745,6.083,6.0906,6.1001,6.1152,6.1241,6.1328,6.1415,6.1587,6.1746,6.1718,6.1728,6.1816,6.1858,6.19,6.1927,6.1982,6.201,6.201,6.201,6.201,6.201,6.201,6.201,6.21,6.2136,6.2476,6.2712,6.3146,6.3341,6.3993,6.5026,6.5772,6.6025,6.6261,6.6587,6.6768,6.675,6.6768,6.6804,6.6804,6.6804,6.6804,5.3501,5.3551,5.389,5.4262,5.4617,5.4972,5.553,5.619,5.624,5.6647,5.7154,5.734,5.7543,5.7815,5.79,5.79,5.79,5.79,5.79,5.79,5.79,5.79,5.79,5.79,5.79,5.79,5.79,5.79,5.79,5.79,5.79,5.79,5.79,5.79,5.79,5.79,5.79,5.79,5.79,5.79,5.79,5.79,5.79,5.79,5.79,5.7936,5.8007,5.8044,5.8152,5.8295,5.8331,5.8384,5.8526,5.8701,5.8909,5.9013,5.9098,5.9183,5.9302,5.9452,5.9585,5.9718,5.9783,5.9832,5.9866,5.9897,5.9945,5.9977,6.0072,6.0232,6.0329,6.039,6.0512,6.0635,6.0681,6.0757,6.0893,6.0998,6.1149,6.1328,6.1505,6.1605,6.169,6.1746,6.1858,6.1927,6.1969,6.1982,6.201,6.201,6.201,6.201,6.201,6.201,6.201,6.201,6.201,6.201,6.2046,6.2299,6.2408,6.2675,6.3178,6.3957,6.4577,6.5102,6.5718,6.6025,6.6333,6.6623,6.6623,6.6623,6.675,6.6804,6.675,5.3348,5.3501,5.3501,5.3839,5.4313,5.4397,5.4786,5.5361,5.5497,5.5885,5.6528,5.6613,5.69,5.7357,5.7595,5.773,5.7866,5.79,5.79,5.79,5.79,5.79,5.79,5.79,5.79,5.79,5.79,5.79,5.79,5.79,5.79,5.79,5.79,5.79,5.79,5.79,5.79,5.79,5.79,5.79,5.79,5.79,5.79,5.79,5.79,5.79,5.7918,5.7918,5.7991,5.8098,5.8152,5.8223,5.8349,5.8384,5.8384,5.8402,5.8562,5.8736,5.8892,5.9047,5.9166,5.9268,5.9336,5.937,5.9403,5.942,5.952,5.9536,5.9684,5.9847,5.9994,6.0072,6.0246,6.0421,6.0501,6.0545,6.0714,6.0803,6.0878,6.1075,6.1314,6.143,6.1501,6.1662,6.176,6.184,6.1886,6.1955,6.1982,6.201,6.201,6.201,6.201,6.201,6.201,6.201,6.201,6.201,6.201,6.2136,6.2118,6.2136,6.2675,6.3146,6.3327,6.3907,6.4667,6.5355,6.55,6.5754,6.6152,6.6333,6.6279,6.637,6.6424,5.2858,5.3501,5.3501,5.3568,5.3653,5.3687,5.4042,5.4668,5.4718,5.5141,5.5817,5.5834,5.5902,5.6207,5.6714,5.7256,5.7646,5.7798,5.7764,5.7747,5.7849,5.79,5.79,5.79,5.79,5.79,5.79,5.79,5.79,5.79,5.79,5.79,5.79,5.79,5.79,5.79,5.79,5.79,5.79,5.79,5.79,5.79,5.79,5.79,5.79,5.79,5.79,5.79,5.7936,5.7936,5.7919,5.7919,5.7954,5.7972,5.7972,5.808,5.8277,5.8526,5.8544,5.8648,5.8701,5.8771,5.8736,5.8648,5.8788,5.8978,5.9166,5.9352,5.9486,5.9586,5.9636,5.9686,5.9849,6.0025,6.0169,6.0345,6.0532,6.064,6.0699,6.0803,6.1028,6.1164,6.1267,6.1473,6.1662,6.1746,6.1812,6.19,6.1955,6.1982,6.201,6.201,6.201,6.201,6.201,6.201,6.201,6.201,6.201,6.201,6.201,6.201,6.201,6.2404,6.2553,6.2915,6.378,6.4341,6.4541,6.4867,6.5283,6.55,6.5645,6.579,6.5935,5.2773,5.3484,5.3501,5.3501,5.3501,5.3501,5.367,5.3923,5.3991,5.438,5.4972,5.5091,5.5276,5.5682,5.6071,5.6342,5.6697,5.7087,5.7273,5.7408,5.7611,5.7849,5.79,5.79,5.79,5.7849,5.79,5.79,5.79,5.79,5.79,5.79,5.79,5.79,5.79,5.79,5.79,5.79,5.79,5.79,5.79,5.7883,5.7866,5.7866,5.7849,5.7832,5.7832,5.79,5.79,5.7815,5.7577,5.7273,5.7154,5.6917,5.663,5.663,5.6771,5.7321,5.8143,5.8262,5.835,5.8472,5.849,5.8525,5.8525,5.8614,5.8754,5.884,5.903,5.9184,5.9302,5.9386,5.9553,5.9734,5.988,6.0057,6.0266,6.0425,6.0534,6.0638,6.074,6.0908,6.1058,6.1252,6.143,6.1544,6.1672,6.183,6.19,6.1955,6.1982,6.201,6.201,6.201,6.201,6.201,6.201,6.201,6.201,6.201,6.201,6.201,6.201,6.201,6.2209,6.2625,6.3114,6.3454,6.378,6.4088,6.4396,6.4613,6.4812,6.4957,6.5174,5.2959,5.3484,5.3501,5.3501,5.3501,5.3501,5.3501,5.3501,5.3518,5.3822,5.4194,5.4363,5.4752,5.531,5.5446,5.5581,5.5783,5.6274,5.6477,5.6765,5.7019,5.7222,5.7154,5.7239,5.7357,5.7646,5.7509,5.7662,5.7866,5.79,5.79,5.79,5.79,5.79,5.79,5.7866,5.7832,5.7509,5.7526,5.7442,5.7273,5.7239,5.7256,5.7289,5.734,5.7357,5.7357,5.7289,5.7256,5.7137,5.6816,5.6511,5.6426,5.6172,5.5919,5.5919,5.5988,5.6363,5.7164,5.7607,5.7985,5.8244,5.8349,5.8295,5.8313,5.8367,5.842,5.8473,5.8648,5.8806,5.8944,5.9098,5.9285,5.9453,5.9618,5.9782,5.991,5.9965,6.016,6.039,6.0527,6.0694,6.0878,6.1043,6.119,6.1325,6.1516,6.1746,6.1858,6.1941,6.1982,6.201,6.201,6.201,6.201,6.201,6.201,6.201,6.201,6.201,6.201,6.201,6.201,6.201,6.201,6.2173,6.2571,6.282,6.3037,6.3182,6.3363,6.3744,6.3979,6.4124,6.445,5.345,5.3501,5.3501,5.3501,5.3501,5.3501,5.3501,5.3501,5.3501,5.3534,5.3687,5.367,5.4076,5.4515,5.4735,5.5006,5.5614,5.5733,5.5767,5.5783,5.5868,5.6071,5.6139,5.6223,5.6342,5.6799,5.6884,5.7239,5.7628,5.7492,5.7697,5.7883,5.7645,5.7798,5.773,5.7476,5.7273,5.6985,5.6867,5.6579,5.6223,5.6054,5.6037,5.6003,5.5919,5.5851,5.5868,5.6037,5.6122,5.6139,5.5885,5.5767,5.5716,5.5479,5.5327,5.531,5.5327,5.5616,5.6074,5.6684,5.7242,5.7682,5.7837,5.7722,5.7655,5.7982,5.8138,5.7986,5.7976,5.827,5.8513,5.8806,5.8685,5.8734,5.8779,5.8945,5.9092,5.9343,5.9591,6.0016,6.0225,6.032,6.0696,6.0878,6.109,6.1208,6.1473,6.1704,6.1872,6.1969,6.1996,6.201,6.201,6.201,6.201,6.201,6.201,6.201,6.201,6.201,6.201,6.201,6.201,6.201,6.201,6.201,6.2028,6.2331,6.2458,6.2209,6.2354,6.2875,6.3273,6.349,6.3852,5.3501,5.3501,5.3501,5.3501,5.3501,5.3501,5.3501,5.3501,5.3501,5.3501,5.3501,5.3518,5.3653,5.3873,5.3923,5.4059,5.4414,5.4871,5.4955,5.5209,5.5395,5.5648,5.5699,5.5648,5.5885,5.6071,5.6139,5.6172,5.6461,5.668,5.6562,5.663,5.6951,5.6833,5.6731,5.6663,5.6426,5.6257,5.6105,5.5919,5.5834,5.5699,5.5699,5.5699,5.5699,5.5699,5.5733,5.5716,5.5699,5.5547,5.5225,5.5073,5.4921,5.4685,5.4498,5.4465,5.4515,5.4685,5.5124,5.5683,5.6258,5.6393,5.6528,5.6613,5.6714,5.6667,5.6669,5.6705,5.6948,5.7207,5.7072,5.7227,5.7362,5.7565,5.7803,5.8021,5.8221,5.8472,5.874,5.9058,5.9475,5.9749,6.0214,6.0696,6.0908,6.112,6.1401,6.1662,6.183,6.1969,6.1996,6.201,6.201,6.201,6.201,6.201,6.201,6.201,6.201,6.201,6.201,6.201,6.201,6.201,6.201,6.201,6.201,6.201,6.201,6.2028,6.2046,6.2191,6.2549,6.2875,6.32,5.3501,5.3501,5.3501,5.3501,5.3501,5.3501,5.3501,5.3501,5.3501,5.3501,5.3501,5.3501,5.3501,5.3501,5.3518,5.3551,5.3754,5.4042,5.4211,5.4431,5.4718,5.5023,5.5039,5.5023,5.4989,5.5276,5.5395,5.5445,5.5851,5.5716,5.5631,5.5683,5.5835,5.5818,5.5936,5.5682,5.5614,5.5411,5.5361,5.5175,5.5073,5.4972,5.4955,5.4938,5.4887,5.4887,5.4853,5.482,5.487,5.4752,5.4549,5.433,5.4093,5.3839,5.3551,5.3501,5.3551,5.3788,5.4313,5.5141,5.5648,5.5885,5.5851,5.5817,5.5682,5.5682,5.5937,5.5886,5.5941,5.5909,5.591,5.6372,5.6644,5.695,5.7033,5.7217,5.7331,5.7546,5.7799,5.8083,5.848,5.8839,5.9157,5.9666,6.0428,6.0828,6.1415,6.163,6.1788,6.1927,6.201,6.201,6.201,6.201,6.201,6.201,6.201,6.201,6.201,6.201,6.201,6.201,6.201,6.201,6.201,6.201,6.201,6.201,6.201,6.201,6.2028,6.2046,6.2118,6.244,6.248,5.3501,5.3501,5.3501,5.3501,5.3501,5.3501,5.3501,5.3501,5.3501,5.3501,5.3501,5.3501,5.3501,5.3501,5.3501,5.3501,5.3501,5.3585,5.3653,5.3771,5.389,5.3737,5.3737,5.3873,5.4228,5.4532,5.4651,5.4938,5.5479,5.531,5.5074,5.4769,5.4786,5.4989,5.5581,5.5665,5.5293,5.4735,5.4634,5.4279,5.3974,5.3856,5.3907,5.3923,5.3923,5.3991,5.3991,5.3974,5.4008,5.394,5.3873,5.3737,5.3653,5.3602,5.3501,5.3501,5.3501,5.3534,5.3653,5.4904,5.5327,5.5344,5.5175,5.5276,5.5513,5.5564,5.5395,5.5158,5.5396,5.5585,5.579,5.5911,5.5962,5.6011,5.6076,5.6191,5.6287,5.6416,5.6615,5.7087,5.7433,5.7738,5.7998,5.8511,5.9612,6.0407,6.1229,6.1547,6.1534,6.1632,6.1629,6.1955,6.1955,6.1982,6.1982,6.201,6.201,6.201,6.201,6.201,6.201,6.201,6.201,6.201,6.201,6.201,6.201,6.201,6.201,6.201,6.201,6.2028,6.201,6.2046,6.2173,5.3501,5.3501,5.3501,5.3501,5.3501,5.3501,5.3501,5.3501,5.3501,5.3501,5.3501,5.3501,5.3501,5.3501,5.3501,5.3501,5.3501,5.3501,5.3501,5.3501,5.3501,5.3501,5.3501,5.3551,5.3653,5.3805,5.3923,5.4008,5.4177,5.4397,5.4211,5.389,5.3991,5.3991,5.4177,5.4245,5.4025,5.3907,5.3856,5.3737,5.3518,5.3501,5.3501,5.3501,5.3501,5.3501,5.3501,5.3501,5.3501,5.3501,5.3501,5.3501,5.3501,5.3501,5.3501,5.3501,5.3501,5.3501,5.3551,5.4076,5.4177,5.4279,5.438,5.4397,5.4262,5.4228,5.4228,5.4312,5.4448,5.4465,5.4296,5.4414,5.4481,5.4547,5.4628,5.4825,5.4953,5.5132,5.5381,5.6075,5.6542,5.7184,5.758,5.7597,5.8467,5.898,5.9624,6.0325,6.0496,6.0806,6.0961,6.16,6.1872,6.1927,6.1937,6.1728,6.1846,6.1969,6.1996,6.201,6.201,6.201,6.201,6.201,6.201,6.201,6.201,6.201,6.201,6.201,6.201,6.201,6.201,6.201,6.2046,5.3501,5.3501,5.3501,5.3501,5.3501,5.3501,5.3501,5.3501,5.3501,5.3501,5.3501,5.3501,5.3501,5.3501,5.3501,5.3501,5.3501,5.3501,5.3501,5.3501,5.3501,5.3501,5.3501,5.3501,5.3551,5.3501,5.3501,5.3551,5.3636,5.3534,5.3551,5.3568,5.3501,5.3602,5.3636,5.3602,5.3585,5.3585,5.3602,5.3568,5.3501,5.3501,5.3501,5.3501,5.3501,5.3501,5.3501,5.3501,5.3501,5.3501,5.3501,5.3501,5.3501,5.3501,5.3501,5.3501,5.3501,5.3501,5.3551,5.3551,5.3687,5.3653,5.3501,5.3501,5.3501,5.3653,5.3636,5.3602,5.3501,5.3518,5.3568,5.3634,5.3684,5.3768,5.3883,5.4098,5.4326,5.4539,5.4687,5.5345,5.5756,5.6444,5.7007,5.7079,5.7314,5.7605,5.7911,5.8666,5.9437,5.9829,6.0156,6.069,6.1083,6.0999,6.1081,6.1225,6.1429,6.1855,6.1833,6.1706,6.201,6.201,6.201,6.201,6.201,6.1996,6.201,6.201,6.201,6.201,6.201,6.201,6.201,6.201,6.201,5.3501,5.3501,5.3501,5.3501,5.3501,5.3501,5.3501,5.3501,5.3501,5.3501,5.3501,5.3501,5.3501,5.3501,5.3501,5.3501,5.3501,5.3501,5.3501,5.3501,5.3501,5.3501,5.3501,5.3501,5.3501,5.3501,5.3501,5.3501,5.3501,5.3501,5.3501,5.3501,5.3501,5.3501,5.3501,5.3501,5.3501,5.3501,5.3501,5.3501,5.3501,5.3501,5.3501,5.3501,5.3501,5.3501,5.3501,5.3501,5.3501,5.3501,5.3501,5.3501,5.3501,5.3501,5.3501,5.3501,5.3501,5.3501,5.3501,5.3501,5.3501,5.3501,5.3501,5.3501,5.3501,5.3501,5.3501,5.3501,5.3501,5.3501,5.3517,5.3551,5.3585,5.3651,5.3701,5.3899,5.4111,5.4258,5.4354,5.4651,5.489,5.5375,5.5842,5.6027,5.6485,5.6602,5.6929,5.7363,5.811,5.8853,5.9183,5.9522,5.9811,5.9829,6.0018,6.0366,6.0583,6.085,6.1135,6.1149,6.1538,6.181,6.1737,6.1723,6.1914,6.1996,6.1996,6.201,6.201,6.201,6.201,6.201,6.201,6.201,6.201,5.3501,5.3501,5.3501,5.3501,5.3501,5.3501,5.3501,5.3501,5.3501,5.3501,5.3501,5.3501,5.3501,5.3501,5.3501,5.3501,5.3501,5.3501,5.3501,5.3501,5.3501,5.3501,5.3501,5.3501,5.3501,5.3501,5.3501,5.3501,5.3501,5.3501,5.3501,5.3501,5.3501,5.3501,5.3501,5.3501,5.3501,5.3501,5.3501,5.3501,5.3501,5.3501,5.3501,5.3501,5.3501,5.3501,5.3501,5.3501,5.3501,5.3501,5.3501,5.3501,5.3501,5.3501,5.3501,5.3501,5.3501,5.3501,5.3501,5.3501,5.3501,5.3501,5.3501,5.3501,5.3501,5.3501,5.3501,5.3501,5.3501,5.3501,5.3501,5.3517,5.3534,5.3568,5.3634,5.375,5.3948,5.4078,5.4175,5.4351,5.4575,5.4871,5.5237,5.5513,5.5886,5.5881,5.6042,5.6454,5.6883,5.7642,5.8093,5.8417,5.8642,5.8699,5.9139,5.9513,5.9662,5.9816,6.014,6.0442,6.0691,6.0935,6.1178,6.1296,6.1293,6.1624,6.1978,6.191,6.1692,6.1946,6.1996,6.201,6.201,6.201,6.201,5.3501,5.3501,5.3501,5.3501,5.3501,5.3501,5.3501,5.3501,5.3501,5.3501,5.3501,5.3501,5.3501,5.3501,5.3501,5.3501,5.3501,5.3501,5.3501,5.3501,5.3501,5.3501,5.3501,5.3501,5.3501,5.3501,5.3501,5.3501,5.3501,5.3501,5.3501,5.3501,5.3501,5.3501,5.3501,5.3501,5.3501,5.3501,5.3501,5.3501,5.3501,5.3501,5.3501,5.3501,5.3501,5.3501,5.3501,5.3501,5.3501,5.3501,5.3501,5.3501,5.3501,5.3501,5.3501,5.3501,5.3501,5.3501,5.3501,5.3501,5.3501,5.3501,5.3501,5.3501,5.3501,5.3501,5.3501,5.3501,5.3501,5.3501,5.3501,5.3501,5.3501,5.3501,5.3568,5.3651,5.3767,5.3881,5.4045,5.4239,5.4494,5.4793,5.5055,5.5234,5.5428,5.5622,5.575,5.5999,5.6241,5.6599,5.6947,5.7202,5.7441,5.7647,5.8105,5.8506,5.8667,5.8878,5.9243,5.9536,5.9799,5.9994,6.0166,6.0374,6.0559,6.0877,6.1176,6.1307,6.1243,6.1493,6.1705,6.1764,6.1809,6.1982,6.1982,5.3501,5.3501,5.3501,5.3501,5.3501,5.3501,5.3501,5.3501,5.3501,5.3501,5.3501,5.3501,5.3501,5.3501,5.3501,5.3501,5.3501,5.3501,5.3501,5.3501,5.3501,5.3501,5.3501,5.3501,5.3501,5.3501,5.3501,5.3501,5.3501,5.3501,5.3501,5.3501,5.3501,5.3501,5.3501,5.3501,5.3501,5.3501,5.3501,5.3501,5.3501,5.3501,5.3501,5.3501,5.3501,5.3501,5.3501,5.3501,5.3501,5.3501,5.3501,5.3501,5.3501,5.3501,5.3501,5.3501,5.3501,5.3501,5.3501,5.3501,5.3501,5.3501,5.3501,5.3501,5.3501,5.3501,5.3501,5.3501,5.3501,5.3501,5.3501,5.3501,5.3501,5.3501,5.3534,5.3584,5.3651,5.3767,5.3931,5.4127,5.4351,5.462,5.4793,5.4976,5.5174,5.5386,5.5505,5.5634,5.5724,5.5864,5.607,5.6237,5.6542,5.6819,5.6947,5.7317,5.7623,5.7897,5.82,5.8499,5.8677,5.8892,5.9166,5.9476,5.9803,5.9941,6.014,6.0312,6.0523,6.0794,6.1056,6.1348,6.1526,6.1605,6.1882,5.3501,5.3501,5.3501,5.3501,5.3501,5.3501,5.3501,5.3501,5.3501,5.3501,5.3501,5.3501,5.3501,5.3501,5.3501,5.3501,5.3501,5.3501,5.3501,5.3501,5.3501,5.3501,5.3501,5.3501,5.3501,5.3501,5.3501,5.3501,5.3501,5.3501,5.3501,5.3501,5.3501,5.3501,5.3501,5.3501,5.3501,5.3501,5.3501,5.3501,5.3501,5.3501,5.3501,5.3501,5.3501,5.3501,5.3501,5.3501,5.3501,5.3501,5.3501,5.3501,5.3501,5.3501,5.3501,5.3501,5.3501,5.3501,5.3501,5.3501,5.3501,5.3501,5.3501,5.3501,5.3501,5.3501,5.3501,5.3501,5.3501,5.3501,5.3501,5.3501,5.3501,5.3501,5.3501,5.3534,5.3551,5.3684,5.3816,5.4013,5.4206,5.4399,5.4575,5.4747,5.4932,5.5055,5.5098,5.5189,5.5217,5.5341,5.5552,5.5742,5.5935,5.6138,5.6143,5.6223,5.6578,5.6612,5.6772,5.7121,5.7527,5.79,5.8255,5.8719,5.9065,5.9018,5.907,5.9405,5.9653,5.9933,6.009,6.0288,6.0556,6.069,6.1275,5.2672,5.301,5.3365,5.3501,5.3501,5.3501,5.3501,5.3501,5.3501,5.3501,5.3501,5.3501,5.3501,5.3501,5.3501,5.3501,5.3501,5.3501,5.3501,5.3501,5.3501,5.3501,5.3501,5.3501,5.3501,5.3501,5.3501,5.3501,5.3501,5.3501,5.3501,5.3501,5.3501,5.3501,5.3501,5.3501,5.3501,5.3501,5.3501,5.3501,5.3501,5.3501,5.3501,5.3501,5.3501,5.3501,5.3501,5.3501,5.3501,5.3501,5.3501,5.3501,5.3501,5.3501,5.3501,5.3501,5.3501,5.3501,5.3501,5.3501,5.3501,5.3501,5.3501,5.3501,5.3501,5.3501,5.3501,5.3501,5.3501,5.3501,5.3501,5.3501,5.3501,5.3501,5.3501,5.3501,5.3551,5.3634,5.3734,5.3816,5.4012,5.4207,5.4385,5.4543,5.4731,5.4919,5.4932,5.4961,5.4944,5.4852,5.5068,5.5219,5.5396,5.5467,5.5504,5.5539,5.5648,5.5596,5.5628,5.6014,5.6572,5.695,5.7363,5.7594,5.7722,5.7747,5.7882,5.8258,5.8645,5.893,5.9049,5.913,5.9444,5.9729,6.0142,5.1607,5.2249,5.2892,5.3196,5.3196,5.3196,5.3213,5.3315,5.3331,5.3399,5.3501,5.3501,5.3501,5.3501,5.3501,5.3501,5.3501,5.3501,5.3501,5.3501,5.3501,5.3501,5.3501,5.3501,5.3501,5.3501,5.3501,5.3501,5.3501,5.3501,5.3501,5.3501,5.3501,5.3501,5.3501,5.3501,5.3501,5.3501,5.3501,5.3501,5.3501,5.3501,5.3501,5.3501,5.3501,5.3501,5.3501,5.3501,5.3501,5.3501,5.3501,5.3501,5.3501,5.3501,5.3501,5.3501,5.3501,5.3501,5.3501,5.3501,5.3501,5.3501,5.3501,5.3501,5.3501,5.3501,5.3501,5.3501,5.3501,5.3501,5.3501,5.3501,5.3501,5.3501,5.3501,5.3501,5.3568,5.3601,5.3651,5.3684,5.3833,5.4013,5.4143,5.4319,5.4496,5.4686,5.4778,5.4823,5.479,5.4634,5.4619,5.4698,5.4774,5.4836,5.4946,5.502,5.5094,5.5232,5.5334,5.541,5.5587,5.6053,5.6229,5.609,5.6218,5.6588,5.6758,5.7025,5.7446,5.7839,5.7768,5.7836,5.8346,5.8627,5.8862,5.1269,5.1421,5.159,5.1674,5.1674,5.1674,5.1962,5.2469,5.252,5.2858,5.3264,5.345,5.3501,5.3484,5.3501,5.3501,5.3501,5.3501,5.3501,5.3501,5.3501,5.3501,5.3501,5.3501,5.3501,5.3501,5.3501,5.3501,5.3501,5.3501,5.3501,5.3501,5.3501,5.3501,5.3501,5.3501,5.3501,5.3501,5.3501,5.3501,5.3501,5.3501,5.3501,5.3501,5.3501,5.3501,5.3501,5.3501,5.3501,5.3501,5.3501,5.3501,5.3501,5.3501,5.3501,5.3501,5.3501,5.3501,5.3501,5.3501,5.3501,5.3501,5.3501,5.3501,5.3501,5.3501,5.3501,5.3501,5.3501,5.3501,5.3501,5.3501,5.3501,5.3501,5.3501,5.3501,5.3517,5.3534,5.3551,5.3584,5.3667,5.3783,5.3849,5.3997,5.411,5.4273,5.4289,5.4318,5.435,5.427,5.4239,5.4255,5.4305,5.4512,5.4731,5.4712,5.4772,5.4913,5.502,5.505,5.5126,5.5229,5.5301,5.5422,5.5528,5.5813,5.5948,5.6106,5.6194,5.652,5.6385,5.65,5.7064,5.7479,5.7687]}]]